[[{"header":{"parameterUnit":"m.s-1","parameterCategory":1,"la1":31.0,"la2":29.5877,"lo1":-88.7671,"lo2":-86.6584,"dy":0.0162,"dx":0.0185,"nx":115,"ny":88,"refTime":"2023-04-13T12:00:00:Z","depth":0,"parameterNumber":2,"parameterNumberName":"U-component_of_WINDS"},"data":[0.0,0.0,0.0,0.0,0.0,0.0,0.0,0.0,0.0,0.0,0.0,0.0,0.0,0.0,0.0,0.0,0.0,0.0,0.0,0.0,0.0,0.0,0.0,0.0,0.0,0.0,0.0,0.0,0.0,0.0,0.0,0.0,0.0,0.0,0.0,0.0,0.0,0.0,0.0,0.0,0.0,0.0,0.0,0.0,0.0,0.0,0.0,0.0,0.0,0.0,0.0,0.0,0.0,0.0,0.0,0.0,0.0,0.0,0.0,0.0,0.0,0.0,0.0,0.0,0.0,0.0,0.0,0.0,0.0,0.0,0.0,0.0,0.0,0.0,0.0,0.0,0.0,0.0,0.0,0.0,0.0,0.0,0.0,0.0,0.0,0.0,0.0,0.0,0.0,0.0,0.0,0.0,0.0,0.0,0.0,0.0,0.0,0.0,0.0,0.0,0.0,0.0,0.0,0.0,0.0,0.0,0.0,0.0,0.0,0.0,0.0,0.0,0.0,0.0,0.0,0.0,0.0,0.0,0.0,0.0,0.0,0.0,0.0,0.0,0.0,0.0,0.0,0.0,0.0,0.0,0.0,0.0,0.0,0.0,0.0,0.0,0.0,0.0,0.0,0.0,0.0,0.0,0.0,0.0,0.0,0.0,0.0,0.0,0.0,0.0,0.0,0.0,0.0,0.0,0.0,0.0,0.0,0.0,0.0,0.0,0.0,0.0,0.0,0.0,0.0,0.0,0.0,0.0,0.0,0.0,0.0,0.0,0.0,0.0,0.0,0.0,0.0,0.0,0.0,0.0,0.0,0.0,0.0,0.0,0.0,0.0,0.0,0.0,0.0,0.0,0.0,0.0,0.0,0.0,0.0,0.0,0.0,0.0,0.0,0.0,0.0,0.0,0.0,0.0,0.0,0.0,0.0,0.0,0.0,0.0,0.0,0.0,0.0,0.0,0.0,0.0,0.0,0.0,0.0,0.0,0.0,0.0,0.0,0.0,0.0,0.0,0.0,0.0,0.0,0.0,0.0,0.0,0.0,0.0,0.0,0.0,0.0,0.0,0.0,0.0,0.0,0.0,0.0,0.0,0.0,0.0,0.0,0.0,0.0,0.0,0.0,0.0,0.0,0.0,0.0,0.0,0.0,0.0,0.0,0.0,0.0,0.0,0.0,0.0,0.0,0.0,0.0,0.0,0.0,0.0,0.0,0.0,0.0,0.0,0.0,0.0,0.0,0.0,0.0,0.0,0.0,0.0,0.0,0.0,0.0,0.0,0.0,0.0,0.0,0.0,0.0,0.0,0.0,0.0,0.0,0.0,0.0,0.0,0.0,0.0,0.0,0.0,0.0,0.0,0.0,0.0,0.0,0.0,0.0,0.0,0.0,0.0,0.0,0.0,0.0,0.0,0.0,0.0,0.0,0.0,0.0,0.0,0.0,0.0,0.0,0.0,0.0,0.0,0.0,0.0,0.0,0.0,0.0,0.0,0.0,0.0,0.0,0.0,0.0,0.0,0.0,0.0,0.0,0.0,0.0,0.0,0.0,0.0,0.0,0.0,0.0,0.0,0.0,0.0,0.0,0.0,0.0,0.0,0.0,0.0,0.0,0.0,0.0,0.0,0.0,0.0,0.0,0.0,0.0,0.0,0.0,0.0,0.0,0.0,0.0,0.0,0.0,0.0,0.0,0.0,0.0,0.0,0.0,0.0,0.0,0.0,0.0,0.0,0.0,0.0,0.0,0.0,0.0,0.0,0.0,0.0,0.0,0.0,0.0,0.0,0.0,0.0,0.0,0.0,0.0,0.0,0.0,0.0,0.0,0.0,0.0,0.0,0.0,0.0,0.0,0.0,0.0,0.0,0.0,0.0,0.0,0.0,0.0,0.0,0.0,0.0,0.0,0.0,0.0,0.0,0.0,0.0,0.0,0.0,0.0,0.0,0.0,0.0,0.0,0.0,0.0,0.0,0.0,0.0,0.0,0.0,0.0,0.0,0.0,0.0,0.0,0.0,0.0,0.0,0.0,0.0,0.0,0.0,0.0,0.0,0.0,0.0,0.0,0.0,0.0,0.0,0.0,0.0,0.0,0.0,0.0,0.0,0.0,0.0,0.0,0.0,0.0,0.0,0.0,0.0,0.0,0.0,0.0,0.0,0.0,0.0,0.0,0.0,0.0,0.0,0.0,0.0,0.0,0.0,0.0,0.0,0.0,0.0,0.0,0.0,0.0,0.0,0.0,0.0,0.0,0.0,0.0,0.0,0.0,0.0,0.0,0.0,0.0,0.0,0.0,0.0,0.0,0.0,0.0,0.0,0.0,0.0,0.0,0.0,0.0,0.0,0.0,0.0,0.0,0.0,0.0,0.0,0.0,0.0,0.0,0.0,0.0,0.0,0.0,0.0,0.0,0.0,0.0,0.0,0.0,0.0,0.0,0.0,0.0,0.0,0.0,0.0,0.0,0.0,0.0,0.0,0.0,0.0,0.0,0.0,0.0,0.0,0.0,0.0,0.0,0.0,0.0,0.0,0.0,0.0,0.0,0.0,0.0,0.0,0.0,0.0,0.0,0.0,0.0,0.0,0.0,0.0,0.0,0.0,0.0,0.0,0.0,0.0,0.0,0.0,0.0,0.0,0.0,0.0,0.0,0.0,0.0,0.0,0.0,0.0,0.0,0.0,0.0,0.0,0.0,0.0,0.0,0.0,0.0,0.0,0.0,0.0,0.0,0.0,0.0,0.0,0.0,0.0,0.0,0.0,0.0,0.0,0.0,0.0,0.0,0.0,0.0,0.0,0.0,0.0,0.0,0.0,0.0,0.0,0.0,0.0,0.0,0.0,0.0,0.0,0.0,0.0,0.0,0.0,0.0,0.0,0.0,0.0,0.0,0.0,0.0,0.0,0.0,0.0,0.0,0.0,0.0,0.0,0.0,0.0,0.0,0.0,0.0,0.0,0.0,0.0,0.0,0.0,0.0,0.0,0.0,0.0,0.0,0.0,0.0,0.0,0.0,0.0,0.0,0.0,0.0,0.0,0.0,0.0,0.0,0.0,0.0,0.0,0.0,0.0,0.0,0.0,0.0,0.0,0.0,0.0,0.0,0.0,0.0,0.0,0.0,0.0,0.0,0.0,0.0,0.0,0.0,0.0,0.0,0.0,0.0,0.0,0.0,0.0,0.0,0.0,0.0,0.0,0.0,0.0,0.0,0.0,0.0,0.0,0.0,0.0,0.0,0.0,0.0,0.0,0.0,0.0,0.0,0.0,0.0,0.0,0.0,0.0,0.0,0.0,0.0,0.0,0.0,0.0,0.0,0.0,0.0,0.0,0.0,0.0,0.0,0.0,0.0,0.0,0.0,0.0,0.0,0.0,0.0,0.0,0.0,0.0,0.0,0.0,0.0,0.0,0.0,0.0,0.0,0.0,0.0,0.0,0.0,0.0,0.0,0.0,0.0,0.0,0.0,0.0,0.0,0.0,0.0,0.0,0.0,0.0,0.0,0.0,0.0,0.0,0.0,0.0,0.0,0.0,0.0,0.0,0.0,0.0,0.0,0.0,0.0,0.0,0.0,0.0,0.0,0.0,0.0,0.0,0.0,0.0,0.0,0.0,0.0,0.0,0.0,0.0,0.0,0.0,0.0,0.0,0.0,0.0,0.0,0.0,0.0,0.0,0.0,0.0,0.0,0.0,0.0,0.0,0.0,0.0,0.0,0.0,0.0,0.0,0.0,0.0,0.0,0.0,0.0,0.0,0.0,0.0,0.0,0.0,0.0,0.0,0.0,0.0,0.0,0.0,0.0,0.0,0.0,0.0,0.0,0.0,0.0,0.0,0.0,0.0,0.0,0.0,0.0,0.0,0.0,0.0,0.0,0.0,0.0,0.0,0.0,0.0,0.0,0.0,0.0,0.0,0.0,0.0,0.0,0.0,0.0,0.0,0.0,0.0,0.0,0.0,0.0,0.0,0.0,0.0,0.0,0.0,0.0,0.0,0.0,0.0,0.0,0.0,0.0,0.0,0.0,0.0,0.0,0.0,0.0,0.0,0.0,0.0,0.0,0.0,0.0,0.0,0.0,0.0,0.0,0.0,0.0,0.0,0.0,0.0,0.0,0.0,0.0,0.0,0.0,0.0,0.0,0.0,0.0,0.0,0.0,0.0,0.0,0.0,0.0,0.0,0.0,0.0,0.0,0.0,0.0,0.0,0.0,0.0,0.0,0.0,0.0,0.0,0.0,0.0,0.0,0.0,0.0,0.0,0.0,0.0,0.0,0.0,0.0,0.0,0.0,0.0,-1.36,0.0,0.0,0.0,0.0,0.0,0.0,0.0,0.0,0.0,0.0,0.0,0.0,0.0,0.0,0.0,0.0,0.0,0.0,0.0,0.0,0.0,0.0,0.0,0.0,0.0,0.0,0.0,0.0,0.0,0.0,0.0,0.0,0.0,0.0,0.0,0.0,0.0,0.0,0.0,0.0,0.0,0.0,0.0,0.0,0.0,0.0,0.0,0.0,0.0,0.0,0.0,0.0,0.0,0.0,0.0,0.0,0.0,0.0,0.0,0.0,0.0,0.0,0.0,0.0,0.0,0.0,0.0,0.0,0.0,0.0,0.0,0.0,0.0,0.0,0.0,0.0,0.0,0.0,0.0,0.0,0.0,0.0,0.0,0.0,0.0,0.0,0.0,0.0,0.0,0.0,0.0,0.0,0.0,0.0,0.0,0.0,0.0,0.0,0.0,0.0,0.0,0.0,0.0,0.0,0.0,0.0,0.0,0.0,0.0,0.0,-1.3362,-1.3266,-1.3266,-1.317,-1.3007,0.0,0.0,0.0,0.0,0.0,0.0,0.0,0.0,0.0,0.0,0.0,0.0,0.0,0.0,0.0,0.0,0.0,0.0,0.0,0.0,0.0,0.0,0.0,0.0,0.0,0.0,0.0,0.0,0.0,0.0,0.0,0.0,0.0,0.0,0.0,0.0,0.0,0.0,0.0,0.0,0.0,0.0,0.0,0.0,0.0,0.0,0.0,0.0,0.0,0.0,0.0,0.0,0.0,0.0,0.0,0.0,0.0,0.0,0.0,0.0,0.0,0.0,0.0,0.0,0.0,0.0,0.0,0.0,0.0,0.0,0.0,0.0,0.0,0.0,0.0,0.0,0.0,0.0,0.0,0.0,0.0,0.0,0.0,0.0,0.0,0.0,0.0,0.0,0.0,0.0,0.0,0.0,0.0,0.0,0.0,0.0,0.0,0.0,0.0,0.0,0.0,0.0,0.0,0.0,0.0,0.0,0.0,0.0,0.0,0.0,0.0,0.0,-1.2832,-1.2696,-1.2421,0.0,0.0,0.0,0.0,0.0,0.0,0.0,0.0,0.0,0.0,0.0,0.0,0.0,0.0,0.0,0.0,0.0,0.0,0.0,0.0,0.0,0.0,0.0,0.0,0.0,0.0,0.0,0.0,0.0,0.0,0.0,0.0,0.0,0.0,0.0,0.0,0.0,0.0,0.0,0.0,0.0,0.0,0.0,0.0,0.0,0.0,0.0,0.0,0.0,0.0,0.0,0.0,0.0,0.0,0.0,0.0,0.0,0.0,0.0,0.0,0.0,0.0,0.0,0.0,0.0,0.0,0.0,0.0,0.0,0.0,0.0,0.0,0.0,0.0,0.0,0.0,0.0,0.0,0.0,0.0,0.0,0.0,0.0,0.0,0.0,0.0,0.0,0.0,0.0,0.0,0.0,0.0,0.0,0.0,0.0,0.0,0.0,0.0,0.0,0.0,0.0,0.0,0.0,0.0,0.0,0.0,0.0,0.0,0.0,0.0,-1.2372,-1.2372,-1.2215,0.0,-1.1628,0.0,0.0,0.0,0.0,0.0,0.0,0.0,0.0,0.0,0.0,0.0,0.0,0.0,0.0,0.0,0.0,0.0,0.0,0.0,0.0,0.0,0.0,0.0,0.0,0.0,0.0,0.0,0.0,0.0,0.0,0.0,0.0,0.0,0.0,0.0,0.0,0.0,0.0,0.0,0.0,0.0,0.0,0.0,0.0,0.0,0.0,0.0,0.0,0.0,0.0,0.0,0.0,0.0,0.0,0.0,0.0,0.0,0.0,0.0,0.0,0.0,0.0,0.0,0.0,0.0,0.0,0.0,0.0,0.0,0.0,0.0,0.0,0.0,0.0,0.0,0.0,0.0,0.0,0.0,0.0,0.0,0.0,0.0,0.0,0.0,0.0,0.0,0.0,0.0,0.0,0.0,0.0,0.0,0.0,0.0,0.0,0.0,0.0,0.0,0.0,0.0,0.0,0.0,0.0,0.0,0.0,0.0,0.0,0.0,0.0,-1.1828,-1.1819,-1.1528,-1.1226,0.0,0.0,0.0,0.0,0.0,0.0,0.0,0.0,0.0,0.0,0.0,0.0,0.0,0.0,0.0,0.0,0.0,0.0,0.0,0.0,0.0,0.0,0.0,0.0,0.0,0.0,0.0,0.0,0.0,0.0,0.0,0.0,0.0,0.0,0.0,0.0,0.0,0.0,0.0,0.0,0.0,0.0,0.0,0.0,0.0,0.0,0.0,0.0,0.0,0.0,0.0,0.0,0.0,0.0,0.0,0.0,0.0,0.0,0.0,0.0,0.0,0.0,0.0,0.0,0.0,0.0,0.0,0.0,0.0,0.0,0.0,0.0,0.0,0.0,0.0,0.0,0.0,0.0,0.0,0.0,0.0,0.0,0.0,0.0,0.0,0.0,0.0,0.0,0.0,0.0,0.0,0.0,0.0,0.0,0.0,0.0,0.0,0.0,0.0,0.0,0.0,0.0,0.0,0.0,0.0,0.0,0.0,0.0,0.0,0.0,-1.1326,-1.1226,-1.1116,-1.0871,-1.0616,-1.0308,0.0,0.0,0.0,0.0,0.0,0.0,0.0,0.0,0.0,0.0,0.0,0.0,0.0,0.0,0.0,0.0,0.0,0.0,0.0,0.0,0.0,0.0,0.0,0.0,0.0,0.0,0.0,0.0,0.0,0.0,0.0,0.0,0.0,0.0,0.0,0.0,0.0,0.0,0.0,0.0,0.0,0.0,0.0,0.0,0.0,0.0,0.0,0.0,0.0,0.0,0.0,0.0,0.0,0.0,0.0,0.0,0.0,0.0,0.0,0.0,0.0,0.0,0.0,0.0,0.0,0.0,0.0,0.0,0.0,0.0,0.0,0.0,0.0,0.0,0.0,0.0,0.0,0.0,0.0,0.0,0.0,0.0,0.0,0.0,0.0,0.0,0.0,0.0,0.0,0.0,0.0,0.0,0.0,0.0,0.0,0.0,0.0,0.0,0.0,0.0,0.0,0.0,0.0,0.0,0.0,0.0,0.0,0.0,-1.1267,-1.0922,-1.0565,-1.0308,-1.0316,-1.0154,0.0,0.0,0.0,0.0,0.0,0.0,0.0,0.0,0.0,0.0,0.0,0.0,0.0,0.0,0.0,0.0,0.0,0.0,0.0,0.0,0.0,0.0,0.0,0.0,0.0,0.0,0.0,0.0,0.0,0.0,0.0,0.0,0.0,0.0,0.0,0.0,0.0,0.0,0.0,0.0,0.0,0.0,0.0,0.0,0.0,0.0,0.0,0.0,0.0,0.0,0.0,0.0,0.0,0.0,0.0,0.0,0.0,0.0,0.0,0.0,0.0,0.0,0.0,0.0,0.0,0.0,0.0,0.0,0.0,0.0,0.0,0.0,0.0,0.0,0.0,0.0,0.0,0.0,0.0,0.0,0.0,0.0,0.0,0.0,0.0,0.0,0.0,0.0,0.0,0.0,0.0,0.0,0.0,0.0,0.0,0.0,0.0,0.0,0.0,0.0,0.0,0.0,0.0,0.0,0.0,0.0,0.0,0.0,0.0,-1.0922,-1.047,-1.0095,-0.9725,-0.9725,-0.9621,0.0,0.0,0.0,0.0,0.0,0.0,0.0,0.0,0.0,0.0,0.0,0.0,0.0,0.0,0.0,0.0,0.0,0.0,0.0,0.0,0.0,0.0,0.0,0.0,0.0,0.0,0.0,0.0,0.0,0.0,0.0,0.0,0.0,0.0,0.0,0.0,0.0,0.0,0.0,0.0,0.0,0.0,0.0,0.0,0.0,0.0,0.0,0.0,0.0,0.0,0.0,0.0,0.0,0.0,0.0,0.0,0.0,0.0,0.0,0.0,0.0,0.0,0.0,0.0,0.0,0.0,0.0,0.0,0.0,0.0,0.0,0.0,0.0,0.0,0.0,0.0,0.0,0.0,0.0,0.0,0.0,0.0,0.0,0.0,0.0,0.0,0.0,0.0,0.0,0.0,0.0,0.0,0.0,0.0,0.0,0.0,0.0,0.0,0.0,0.0,0.0,0.0,0.0,0.0,0.0,0.0,0.0,0.0,0.0,-1.0249,0.0,-0.9629,0.0,-0.9263,-0.9211,0.0,0.0,0.0,0.0,0.0,0.0,0.0,0.0,0.0,0.0,0.0,0.0,0.0,0.0,0.0,0.0,0.0,0.0,0.0,0.0,0.0,0.0,0.0,0.0,0.0,0.0,0.0,0.0,0.0,0.0,0.0,0.0,0.0,0.0,0.0,0.0,0.0,0.0,0.0,0.0,0.0,0.0,0.0,0.0,0.0,0.0,0.0,0.0,0.0,0.0,0.0,0.0,0.0,0.0,0.0,0.0,0.0,0.0,0.0,0.0,0.0,0.0,0.0,0.0,0.0,0.0,0.0,0.0,0.0,0.0,0.0,0.0,0.0,0.0,0.0,0.0,0.0,0.0,0.0,0.0,0.0,0.0,0.0,0.0,0.0,0.0,0.0,0.0,0.0,0.0,0.0,0.0,0.0,0.0,0.0,0.0,0.0,0.0,0.0,0.0,0.0,0.0,0.0,0.0,0.0,0.0,0.0,0.0,-1.0022,-0.9435,-0.9435,-0.9306,-0.9029,-0.9036,-0.8917,0.0,0.0,0.0,0.0,0.0,0.0,0.0,0.0,0.0,0.0,0.0,0.0,0.0,0.0,0.0,0.0,0.0,0.0,0.0,0.0,0.0,0.0,0.0,0.0,0.0,0.0,0.0,0.0,0.0,0.0,0.0,0.0,0.0,0.0,0.0,0.0,0.0,0.0,0.0,0.0,0.0,0.0,0.0,0.0,0.0,0.0,0.0,0.0,0.0,0.0,0.0,0.0,0.0,0.0,0.0,0.0,0.0,0.0,0.0,0.0,0.0,0.0,0.0,0.0,0.0,0.0,0.0,0.0,0.0,0.0,0.0,0.0,0.0,0.0,0.0,0.0,0.0,0.0,0.0,0.0,0.0,0.0,0.0,0.0,0.0,0.0,0.0,0.0,0.0,0.0,0.0,0.0,0.0,0.0,0.0,0.0,0.0,0.0,0.0,0.0,0.0,0.0,0.0,0.0,0.0,0.0,0.0,0.0,0.0,-0.9729,-0.9624,-0.9462,-0.9286,-0.8935,-0.8715,0.0,0.0,0.0,0.0,0.0,0.0,0.0,0.0,0.0,0.0,0.0,0.0,0.0,0.0,0.0,0.0,0.0,0.0,0.0,0.0,0.0,0.0,0.0,0.0,0.0,0.0,0.0,0.0,0.0,0.0,0.0,0.0,0.0,0.0,0.0,0.0,0.0,0.0,0.0,0.0,0.0,0.0,0.0,0.0,0.0,0.0,0.0,0.0,0.0,0.0,0.0,0.0,0.0,0.0,0.0,0.0,0.0,0.0,0.0,0.0,0.0,0.0,0.0,0.0,0.0,0.0,0.0,0.0,0.0,0.0,0.0,0.0,0.0,0.0,0.0,0.0,0.0,0.0,0.0,0.0,0.0,0.0,0.0,0.0,0.0,0.0,0.0,0.0,0.0,0.0,0.0,0.0,0.0,0.0,0.0,0.0,0.0,0.0,0.0,0.0,0.0,0.0,0.0,0.0,0.0,0.0,0.0,0.0,0.0,-1.0232,-0.9992,-0.9708,-0.9498,-0.912,-0.8759,-0.8353,0.0,0.0,0.0,0.0,0.0,0.0,0.0,0.0,0.0,0.0,0.0,0.0,0.0,0.0,0.0,0.0,0.0,0.0,0.0,0.0,0.0,0.0,0.0,0.0,0.0,0.0,0.0,0.0,0.0,0.0,0.0,0.0,0.0,0.0,0.0,0.0,0.0,0.0,0.0,0.0,0.0,0.0,0.0,0.0,0.0,0.0,0.0,0.0,0.0,0.0,0.0,0.0,0.0,0.0,0.0,0.0,0.0,0.0,0.0,0.0,0.0,0.0,0.0,0.0,0.0,0.0,0.0,0.0,0.0,0.0,0.0,0.0,0.0,0.0,0.0,0.0,0.0,0.0,0.0,0.0,0.0,0.0,0.0,0.0,0.0,0.0,0.0,0.0,0.0,0.0,0.0,0.0,0.0,0.0,0.0,0.0,0.0,0.0,0.0,0.0,0.0,0.0,0.0,0.0,0.0,0.0,0.0,0.0,-1.0823,-1.0488,-1.0034,-0.9692,-0.9623,-0.9063,0.0,0.0,0.0,0.0,0.0,0.0,0.0,0.0,0.0,0.0,0.0,0.0,0.0,0.0,0.0,0.0,0.0,0.0,0.0,0.0,0.0,0.0,0.0,0.0,0.0,0.0,0.0,0.0,0.0,0.0,0.0,0.0,0.0,0.0,0.0,0.0,0.0,0.0,0.0,0.0,0.0,0.0,0.0,0.0,0.0,0.0,0.0,0.0,0.0,0.0,0.0,0.0,0.0,0.0,0.0,0.0,0.0,0.0,0.0,0.0,0.0,0.0,0.0,0.0,0.0,0.0,0.0,0.0,0.0,0.0,0.0,0.0,0.0,0.0,0.0,0.0,0.0,0.0,0.0,0.0,0.0,0.0,0.0,0.0,0.0,0.0,0.0,0.0,0.0,0.0,0.0,0.0,0.0,0.0,0.0,0.0,0.0,0.0,0.0,0.0,0.0,0.0,0.0,0.0,0.0,0.0,0.0,0.0,0.0,-0.9796,-0.9821,-0.9885,-1.0182,-0.9653,-0.8848,0.0,0.0,0.0,0.0,0.0,0.0,0.0,0.0,0.0,0.0,0.0,0.0,0.0,0.0,0.0,0.0,0.0,0.0,0.0,0.0,0.0,0.0,0.0,0.0,0.0,0.0,0.0,0.0,0.0,0.0,0.0,0.0,0.0,0.0,0.0,0.0,0.0,0.0,0.0,0.0,0.0,0.0,0.0,0.0,0.0,0.0,0.0,0.0,0.0,0.0,0.0,0.0,0.0,0.0,0.0,0.0,0.0,0.0,0.0,0.0,0.0,0.0,0.0,0.0,0.0,0.0,0.0,0.0,0.0,0.0,0.0,0.0,0.0,0.0,0.0,0.0,0.0,0.0,0.0,0.0,0.0,0.0,0.0,0.0,0.0,0.0,0.0,0.0,0.0,0.0,0.0,0.0,0.0,0.0,0.0,0.0,0.0,0.0,0.0,0.0,0.0,0.0,0.0,0.0,0.0,0.0,0.0,0.0,-0.8243,-0.9252,-0.963,-0.9861,-0.9927,-0.9447,-0.8626,0.0,0.0,0.0,0.0,0.0,0.0,0.0,0.0,0.0,0.0,0.0,0.0,0.0,0.0,0.0,0.0,0.0,0.0,0.0,0.0,0.0,0.0,0.0,0.0,0.0,0.0,0.0,0.0,0.0,0.0,0.0,0.0,0.0,0.0,0.0,0.0,0.0,0.0,0.0,0.0,0.0,0.0,0.0,0.0,0.0,0.0,0.0,0.0,0.0,0.0,0.0,0.0,0.0,0.0,0.0,0.0,0.0,0.0,0.0,0.0,0.0,0.0,0.0,0.0,0.0,0.0,0.0,0.0,0.0,0.0,0.0,0.0,0.0,0.0,0.0,0.0,0.0,0.0,0.0,0.0,0.0,0.0,0.0,0.0,0.0,0.0,0.0,0.0,0.0,0.0,0.0,0.0,0.0,0.0,0.0,0.0,0.0,0.0,0.0,0.0,0.0,0.0,0.0,0.0,0.0,0.0,0.0,0.0,-0.8146,-0.8794,-0.9552,-0.963,-0.9132,-0.9118,-0.849,0.0,0.0,0.0,0.0,0.0,0.0,0.0,0.0,0.0,0.0,0.0,0.0,0.0,0.0,0.0,0.0,0.0,0.0,0.0,0.0,0.0,0.0,0.0,0.0,0.0,0.0,0.0,0.0,0.0,0.0,0.0,0.0,0.0,0.0,0.0,0.0,0.0,0.0,0.0,0.0,0.0,0.0,0.0,0.0,0.0,0.0,0.0,0.0,0.0,0.0,0.0,0.0,0.0,0.0,0.0,0.0,0.0,0.0,0.0,0.0,0.0,0.0,0.0,0.0,0.0,0.0,0.0,0.0,0.0,0.0,0.0,0.0,0.0,0.0,0.0,0.0,0.0,0.0,0.0,0.0,0.0,0.0,0.0,0.0,0.0,0.0,0.0,0.0,0.0,0.0,0.0,0.0,0.0,0.0,0.0,0.0,0.0,0.0,0.0,0.0,0.0,0.0,0.0,0.0,0.0,0.0,0.0,0.0,-0.7216,-0.775,-0.7828,-0.8006,-0.8229,-0.8555,-0.8169,0.0,0.0,0.0,0.0,0.0,0.0,0.0,0.0,0.0,0.0,0.0,0.0,0.0,0.0,0.0,0.0,0.0,0.0,0.0,0.0,0.0,0.0,0.0,0.0,0.0,0.0,0.0,0.0,0.0,0.0,0.0,0.0,0.0,0.0,0.0,0.0,0.0,0.0,0.0,0.0,0.0,0.0,0.0,0.0,0.0,0.0,0.0,0.0,-0.4047,0.0,0.0,0.0,0.0,0.0,0.0,0.0,0.0,0.0,0.0,0.0,0.0,0.0,0.0,0.0,0.0,0.0,0.0,0.0,0.0,0.0,0.0,0.0,0.0,0.0,0.0,0.0,0.0,0.0,0.0,0.0,0.0,0.0,0.0,0.0,0.0,0.0,0.0,0.0,0.0,0.0,0.0,0.0,0.0,0.0,0.0,0.0,0.0,0.0,0.0,0.0,0.0,0.0,0.0,0.0,0.0,0.0,0.0,0.0,-0.6864,-0.7207,-0.73,-0.7505,-0.7746,-0.7776,-0.7484,0.0,0.0,0.0,0.0,0.0,0.0,0.0,0.0,0.0,0.0,0.0,0.0,0.0,0.0,0.0,0.0,0.0,0.0,0.0,0.0,0.0,0.0,0.0,0.0,0.0,0.0,0.0,0.0,0.0,0.0,0.0,0.0,0.0,0.0,0.0,0.0,0.0,0.0,0.0,0.0,0.0,0.0,0.0,0.0,0.0,0.0,0.0,0.0,0.0,0.0,0.0,0.0,0.0,0.0,0.0,0.0,0.0,0.0,0.0,0.0,0.0,0.0,0.0,0.0,0.0,0.0,0.0,0.0,0.0,0.0,0.0,0.0,0.0,0.0,0.0,0.0,0.0,0.0,0.0,0.0,0.0,0.0,0.0,0.0,0.0,0.0,0.0,0.0,0.0,0.0,0.0,0.0,0.0,0.0,0.0,0.0,0.0,0.0,0.0,0.0,0.0,0.0,0.0,0.0,0.0,0.0,0.0,-0.6706,-0.6765,-0.6929,-0.7253,-0.7415,-0.7408,-0.6989,-0.6677,-0.6485,0.0,0.0,0.0,0.0,0.0,0.0,0.0,0.0,0.0,0.0,0.0,0.0,0.0,0.0,0.0,0.0,0.0,0.0,0.0,0.0,0.0,0.0,0.0,0.0,0.0,0.0,0.0,0.0,0.0,0.0,0.0,0.0,0.0,0.0,0.0,0.0,0.0,0.0,-0.3587,-0.3375,0.0,0.0,0.0,0.0,0.0,0.0,0.0,0.0,-0.2766,0.0,0.0,0.0,0.0,0.0,0.0,0.0,0.0,0.0,0.0,0.0,0.0,0.0,0.0,0.0,0.0,0.0,0.0,0.0,0.0,0.0,0.0,0.0,0.0,0.0,0.0,0.0,0.0,0.0,0.0,0.0,0.0,0.0,0.0,0.0,0.0,0.0,0.0,0.0,0.0,0.0,0.0,0.0,0.0,0.0,0.0,0.0,0.0,0.0,0.0,0.0,0.0,0.0,0.0,0.0,0.0,-0.6527,-0.6514,-0.6576,-0.6771,-0.699,-0.7143,-0.7132,-0.6831,-0.6544,-0.6108,0.0,0.0,0.0,0.0,0.0,0.0,0.0,0.0,0.0,0.0,0.0,0.0,0.0,0.0,0.0,0.0,0.0,0.0,0.0,0.0,0.0,0.0,0.0,0.0,0.0,0.0,0.0,0.0,0.0,0.0,0.0,0.0,0.0,0.0,0.0,0.0,0.0,0.0,0.0,-0.2765,-0.2726,0.0,0.0,0.0,0.0,0.0,0.0,0.0,0.0,-0.2227,0.0,0.0,0.0,0.0,0.0,0.0,0.0,0.0,0.0,0.0,0.0,0.0,0.0,0.0,0.0,0.0,0.0,0.0,0.0,0.0,0.0,0.0,0.0,0.0,0.0,0.0,0.0,0.0,0.0,0.0,0.0,0.0,0.0,0.0,0.0,0.0,0.0,0.0,0.0,0.0,0.0,0.0,0.0,0.0,0.0,0.0,0.0,0.0,0.0,0.0,0.0,0.0,0.0,0.0,0.0,-0.6591,-0.6531,-0.6599,-0.6803,-0.7027,-0.7105,-0.7027,-0.6739,-0.6332,0.0,0.0,0.0,0.0,0.0,0.0,0.0,0.0,0.0,0.0,0.0,0.0,0.0,0.0,0.0,0.0,0.0,0.0,0.0,0.0,0.0,0.0,0.0,0.0,0.0,0.0,0.0,0.0,0.0,0.0,0.0,0.0,0.0,0.0,0.0,0.0,0.0,0.0,0.0,0.0,-0.2589,-0.2455,-0.2526,0.0,0.0,0.0,0.0,0.0,0.0,-0.206,-0.2031,0.0,0.0,0.0,0.0,0.0,0.0,0.0,0.0,0.0,0.0,0.0,0.0,0.0,0.0,0.0,0.0,0.0,0.0,0.0,0.0,0.0,0.0,0.0,0.0,0.0,0.0,0.0,0.0,0.0,0.0,0.0,0.0,0.0,0.0,0.0,0.0,0.0,0.0,0.0,0.0,0.0,0.0,0.0,0.0,0.0,0.0,0.0,0.0,0.0,0.0,0.0,0.0,0.0,0.0,0.0,-0.6472,-0.6514,-0.6614,-0.6868,-0.7051,-0.7071,-0.6929,-0.6603,-0.6086,0.0,0.0,0.0,0.0,0.0,0.0,0.0,0.0,0.0,0.0,0.0,0.0,0.0,0.0,0.0,0.0,0.0,0.0,0.0,0.0,0.0,0.0,0.0,0.0,0.0,0.0,0.0,0.0,0.0,0.0,0.0,0.0,0.0,0.0,0.0,0.0,0.0,0.0,0.0,0.0,0.0,-0.2115,-0.2383,-0.1914,0.0,0.0,0.0,0.0,-0.1623,-0.1917,0.0,0.0,0.0,0.0,0.0,0.0,0.0,0.0,0.0,0.0,0.0,0.0,0.0,0.0,0.0,0.0,0.0,0.0,0.0,0.0,0.0,0.0,0.0,0.0,0.0,0.0,0.0,0.0,0.0,0.0,0.0,0.0,0.0,0.0,0.0,0.0,0.0,0.0,0.0,0.0,0.0,0.0,0.0,0.0,0.0,0.0,0.0,0.0,0.0,0.0,0.0,0.0,0.0,0.0,0.0,0.0,-0.5758,-0.6261,-0.6562,-0.6722,-0.7,-0.7071,-0.6929,-0.6344,-0.5757,0.0,0.0,0.0,0.0,0.0,0.0,0.0,0.0,0.0,0.0,0.0,0.0,0.0,0.0,0.0,0.0,0.0,0.0,0.0,0.0,0.0,0.0,0.0,0.0,0.0,0.0,0.0,0.0,0.0,0.0,0.0,0.0,0.0,0.0,0.0,0.0,0.0,0.0,0.0,0.0,0.0,-0.1602,-0.1515,-0.1458,-0.1488,0.0,0.0,-0.1571,-0.1891,-0.1959,0.0,0.0,0.0,0.0,0.0,0.0,0.0,0.0,0.0,0.0,0.0,0.0,0.0,0.0,0.0,0.0,0.0,0.0,0.0,0.0,0.0,0.0,0.0,0.0,0.0,0.0,0.0,0.0,0.0,0.0,0.0,0.0,0.0,0.0,0.0,0.0,0.0,0.0,0.0,0.0,0.0,0.0,0.0,0.0,0.0,0.0,0.0,0.0,0.0,0.0,0.0,0.0,0.0,0.0,0.0,-0.5463,-0.5509,-0.55,-0.5877,-0.6573,-0.6423,-0.6418,-0.6803,-0.6122,-0.5513,0.0,0.0,0.0,0.0,0.0,0.0,0.0,0.0,0.0,0.0,0.0,0.0,0.0,0.0,0.0,0.0,0.0,0.0,0.0,0.0,0.0,0.0,0.0,0.0,0.0,0.0,0.0,0.0,0.0,0.0,0.0,0.0,0.0,0.0,0.0,0.0,0.0,0.0,0.0,0.0,0.0,0.0,-0.1301,-0.1358,0.0,0.0,0.0,-0.1856,-0.2057,0.0,0.0,0.0,0.0,0.0,0.0,0.0,0.0,0.0,0.0,0.0,0.0,0.0,0.0,0.0,0.0,0.0,0.0,0.0,0.0,0.0,0.0,0.0,0.0,0.0,0.0,0.0,0.0,0.0,0.0,0.0,0.0,0.0,0.0,0.0,0.0,0.0,0.0,0.0,0.0,0.0,0.0,0.0,0.0,0.0,0.0,0.0,0.0,0.0,0.0,0.0,0.0,0.0,0.0,0.0,0.0,0.0,-0.5033,-0.4715,-0.5023,-0.5801,-0.5548,-0.5605,-0.6037,-0.5479,0.0,0.0,0.0,0.0,0.0,0.0,0.0,0.0,0.0,0.0,0.0,0.0,0.0,0.0,0.0,0.0,0.0,0.0,0.0,0.0,0.0,0.0,0.0,0.0,0.0,0.0,0.0,-0.1245,0.0,0.0,0.0,0.0,0.0,0.0,0.0,0.0,0.0,0.0,0.0,0.0,0.0,0.0,-0.1238,-0.1314,-0.1472,-0.1564,0.0,0.0,-0.2083,-0.2238,-0.2138,-0.1978,0.0,0.0,0.0,0.0,0.0,0.0,0.0,0.0,0.0,0.0,0.0,0.0,0.0,0.0,0.0,0.0,0.0,0.0,0.0,0.0,0.0,0.0,0.0,0.0,0.0,0.0,0.0,0.0,0.0,0.0,0.0,0.0,0.0,0.0,0.0,0.0,0.0,0.0,0.0,0.0,0.0,0.0,0.0,0.0,0.0,0.0,0.0,0.0,0.0,0.0,0.0,0.0,0.0,0.0,0.0,-0.3974,-0.4038,-0.4087,-0.4185,-0.4282,-0.4293,-0.4199,-0.3852,-0.3567,0.0,0.0,0.0,0.0,0.0,0.0,0.0,0.0,0.0,0.0,0.0,0.0,0.0,0.0,0.0,0.0,0.0,0.0,0.0,0.0,0.0,0.0,0.0,0.0,0.0,0.0,0.0,0.0,0.0,0.0,0.0,0.0,0.0,0.0,0.0,0.0,0.0,0.0,0.0,0.0,0.0,-0.1454,-0.172,-0.1814,-0.1921,0.0,0.0,-0.2346,-0.2589,-0.2519,-0.235,-0.1919,0.0,0.0,0.0,0.0,0.0,0.0,0.0,0.0,0.0,0.0,0.0,0.0,0.0,0.0,0.0,0.0,0.0,0.0,0.0,0.0,0.0,0.0,0.0,0.0,0.0,0.0,0.0,0.0,0.0,0.0,0.0,0.0,0.0,0.0,0.0,0.0,0.0,0.0,0.0,0.0,0.0,0.0,0.0,0.0,0.0,0.0,0.0,0.0,0.0,0.0,0.0,0.0,0.0,-0.3336,-0.3582,-0.3231,-0.3282,-0.3859,-0.3589,-0.3617,-0.4026,-0.3861,-0.3542,0.0,0.0,0.0,0.0,0.0,0.0,0.0,0.0,0.0,0.0,0.0,0.0,0.0,0.0,0.0,0.0,0.0,0.0,0.0,0.0,0.0,0.0,0.0,0.0,0.0,0.0,0.0,0.0,-0.086,-0.0872,-0.0879,0.0,0.0,0.0,0.0,0.0,0.0,0.0,0.0,0.0,0.0,-0.1674,-0.1881,-0.2084,0.0,0.0,-0.2468,-0.2561,-0.2606,-0.2337,-0.2087,-0.1958,-0.1641,0.0,0.0,0.0,0.0,0.0,0.0,0.0,0.0,0.0,0.0,0.0,0.0,0.0,0.0,0.0,0.0,0.0,0.0,0.0,0.0,0.0,0.0,0.0,0.0,0.0,0.0,0.0,0.0,0.0,0.0,0.0,0.0,0.0,0.0,0.0,0.0,0.0,0.0,0.0,0.0,0.0,0.0,0.0,0.0,0.0,0.0,0.0,0.0,0.0,0.0,0.0,0.0,-0.3053,-0.3149,-0.2418,-0.2389,-0.3049,-0.2638,-0.2749,-0.3298,-0.3166,-0.2991,0.0,0.0,0.0,0.0,0.0,0.0,0.0,0.0,0.0,0.0,0.0,0.0,0.0,0.0,0.0,0.0,0.0,0.0,0.0,0.0,0.0,0.0,0.0,0.0,0.0,0.0,0.0,0.0,-0.0872,-0.0878,-0.0907,0.0,0.0,0.0,0.0,0.0,0.0,0.0,0.0,0.0,0.0,-0.189,-0.2174,-0.2307,-0.2407,-0.2467,-0.2566,-0.2657,-0.255,-0.2234,-0.1976,-0.1837,0.0,0.0,0.0,0.0,0.0,0.0,0.0,0.0,0.0,0.0,0.0,0.0,0.0,0.0,0.0,0.0,0.0,0.0,0.0,0.0,0.0,0.0,0.0,0.0,0.0,0.0,0.0,0.0,0.0,0.0,-0.4547,0.0,0.0,0.0,0.0,0.0,0.0,0.0,0.0,0.0,0.0,0.0,0.0,0.0,0.0,0.0,0.0,0.0,0.0,0.0,0.0,0.0,0.0,-0.2316,-0.2488,-0.1747,-0.1414,-0.1474,-0.1419,-0.1511,-0.148,-0.1477,-0.1532,-0.1629,0.0,0.0,0.0,0.0,0.0,0.0,0.0,0.0,0.0,0.0,0.0,0.0,0.0,0.0,0.0,0.0,0.0,0.0,0.0,0.0,0.0,0.0,0.0,0.0,0.0,0.0,-0.0911,-0.0879,-0.0908,0.0,0.0,0.0,0.0,0.0,0.0,0.0,0.0,0.0,0.0,-0.1833,-0.2081,-0.2504,-0.2604,-0.2627,-0.268,-0.2642,-0.2542,-0.2428,-0.2146,-0.1951,0.0,0.0,0.0,0.0,0.0,0.0,0.0,0.0,0.0,0.0,0.0,0.0,0.0,0.0,0.0,0.0,0.0,0.0,0.0,0.0,0.0,0.0,0.0,0.0,0.0,0.0,0.0,-0.3975,-0.3663,0.0,0.0,0.0,0.0,0.0,0.0,0.0,0.0,0.0,0.0,0.0,-0.1936,-0.1819,0.0,0.0,0.0,0.0,0.0,0.0,0.0,0.0,0.0,0.0,0.0,0.0,-0.2317,-0.2167,-0.1626,-0.1361,-0.1418,-0.145,-0.1461,-0.1451,-0.145,-0.1414,-0.1419,0.0,0.0,0.0,0.0,0.0,0.0,0.0,0.0,0.0,0.0,0.0,0.0,0.0,0.0,0.0,0.0,0.0,0.0,0.0,0.0,0.0,0.0,0.0,0.0,0.0,-0.0871,0.0,0.0,0.0,0.0,0.0,0.0,0.0,0.0,0.0,0.0,0.0,-0.1586,-0.1832,-0.2127,-0.2367,-0.2644,-0.2661,-0.2586,0.0,0.0,0.0,0.0,0.0,0.0,0.0,0.0,0.0,0.0,0.0,0.0,0.0,0.0,-0.1386,-0.1037,-0.0564,-0.0246,-0.0163,0.0,0.0,0.0,0.0,0.0,0.0,0.0,0.0,0.0,0.0,0.0,0.0,0.0,0.0,-0.3373,0.0,-0.3214,0.0,0.0,0.0,0.0,0.0,0.0,0.0,0.0,-0.1564,-0.1613,-0.1636,-0.1587,-0.1596,0.0,-0.1679,-0.1952,0.0,0.0,0.0,0.0,0.0,0.0,0.0,0.0,-0.2203,-0.2088,-0.16,-0.1402,-0.1449,-0.1481,-0.1496,-0.1496,-0.1487,-0.1362,-0.1396,-0.143,-0.1539,0.0,0.0,0.0,0.0,0.0,0.0,0.0,0.0,0.0,0.0,0.0,0.0,0.0,0.0,0.0,0.0,0.0,0.0,0.0,0.0,0.0,0.0,0.0,-0.0911,0.0,0.0,0.0,0.0,0.0,0.0,0.0,0.0,0.0,-0.1166,-0.1448,-0.1762,-0.2006,-0.2299,-0.2521,-0.2681,0.0,0.0,0.0,0.0,0.0,0.0,0.0,-0.1666,-0.1612,-0.1537,-0.147,-0.152,-0.1545,-0.1558,-0.1558,0.0,0.0,-0.1492,-0.1229,-0.098,-0.1069,-0.0905,-0.0829,-0.0747,-0.0761,-0.0869,0.0,0.0,0.0,0.0,0.0,0.0,0.0,0.0,-0.2971,-0.2883,0.0,-0.264,0.0,0.0,0.0,0.0,0.0,-0.171,0.0,0.0,-0.153,-0.1574,-0.1573,-0.1577,-0.1577,-0.1574,-0.1549,-0.1614,-0.1854,-0.2098,0.0,0.0,0.0,0.0,0.0,0.0,-0.1811,-0.2017,-0.158,-0.1451,-0.1482,-0.1512,-0.1527,-0.1526,-0.15,-0.1483,-0.1477,-0.1398,-0.1449,-0.1646,-0.16,0.0,0.0,0.0,0.0,0.0,0.0,0.0,0.0,0.0,0.0,0.0,0.0,0.0,0.0,0.0,0.0,0.0,0.0,0.0,0.0,-0.1009,0.0,0.0,0.0,0.0,0.0,0.0,0.0,0.0,0.0,0.0,-0.1488,-0.1549,-0.17,-0.2264,0.0,0.0,0.0,0.0,-0.235,-0.2355,-0.2182,-0.1936,-0.1797,-0.1833,-0.1776,-0.1525,0.0,0.0,-0.1615,-0.1622,-0.1624,-0.1623,-0.1647,-0.1741,-0.1745,-0.1654,-0.1575,-0.1675,-0.1701,-0.1724,-0.1728,-0.1651,-0.1665,-0.5831,0.0,0.0,0.0,0.0,-0.3542,-0.2914,-0.215,-0.2478,-0.2392,-0.2186,-0.2278,0.0,0.0,0.0,0.0,0.0,0.0,-0.1619,-0.1632,-0.1704,-0.1637,-0.1637,-0.1679,-0.1688,-0.1667,-0.1679,-0.167,-0.1742,-0.1794,-0.1964,-0.2285,0.0,0.0,0.0,0.0,-0.1605,-0.181,-0.1616,-0.1483,-0.1513,-0.1543,-0.1559,-0.1558,-0.155,-0.1525,-0.1483,-0.1456,-0.1426,-0.1479,-0.1442,0.0,0.0,0.0,0.0,0.0,0.0,0.0,0.0,0.0,0.0,0.0,0.0,0.0,0.0,0.0,0.0,0.0,0.0,0.0,-0.1063,-0.1075,-0.1061,0.0,0.0,0.0,0.0,0.0,0.0,0.0,0.0,0.0,-0.1966,-0.2017,-0.2175,0.0,0.0,-0.2623,-0.2493,-0.2457,-0.2248,-0.2036,0.0,0.0,0.0,-0.1671,-0.1687,-0.1618,-0.1665,-0.1701,-0.171,-0.1729,-0.1744,-0.1743,-0.175,-0.1747,-0.1725,-0.1706,-0.1805,-0.1808,-0.174,-0.1775,-0.1778,-0.18,-0.1818,-0.7434,-0.4925,-0.5388,-0.4818,-0.3675,-0.3652,-0.2973,-0.1937,-0.2053,-0.2056,-0.1942,-0.1959,-0.2011,-0.1994,-0.2014,0.0,0.0,0.0,-0.1626,-0.1765,-0.1698,-0.1728,-0.1752,-0.1787,-0.1787,-0.1759,-0.1777,-0.1763,-0.1722,-0.1705,-0.1732,-0.1876,0.0,0.0,-0.1356,-0.1401,-0.1515,-0.1607,-0.1579,-0.1525,-0.1543,-0.1574,-0.159,-0.1589,-0.1578,-0.1554,-0.1519,-0.1505,-0.1476,-0.1428,-0.1414,-0.1384,0.0,0.0,0.0,0.0,0.0,0.0,0.0,0.0,0.0,0.0,0.0,-0.1046,-0.119,0.0,0.0,0.0,-0.112,-0.1153,-0.1164,-0.1149,0.0,0.0,0.0,0.0,0.0,0.0,0.0,-0.1252,-0.1401,-0.1639,-0.1952,-0.218,-0.2326,-0.2446,-0.2449,-0.2468,-0.2342,0.0,-0.2173,-0.1865,-0.1894,-0.1719,-0.1647,-0.1662,-0.168,-0.171,-0.1743,-0.1767,-0.1768,-0.1783,-0.1794,-0.1795,-0.1795,-0.1799,-0.181,-0.1807,-0.1799,-0.1789,-0.1825,-0.1856,-0.1859,-0.1883,-0.19,-0.9236,-0.7933,-0.7502,-0.5698,-0.338,-0.418,-0.3569,-0.2129,-0.1864,-0.1851,-0.1847,-0.1785,-0.1633,-0.1605,-0.1555,0.0,-0.1677,-0.1679,-0.1725,-0.1802,-0.1802,-0.1832,-0.1885,-0.1885,-0.1871,-0.1844,-0.1844,-0.1814,-0.1759,-0.1757,-0.1727,-0.1669,-0.1486,-0.1417,-0.1545,-0.148,-0.1495,-0.1495,-0.1553,-0.1583,-0.1583,-0.1607,-0.162,-0.162,-0.1589,-0.1572,-0.1571,-0.1542,-0.1513,-0.1485,-0.1455,-0.1438,-0.1433,0.0,0.0,0.0,0.0,0.0,0.0,0.0,0.0,0.0,0.0,0.0,0.0,0.0,0.0,0.0,-0.1247,0.0,-0.131,-0.1238,0.0,0.0,0.0,-0.1217,-0.1301,-0.1316,-0.1341,-0.1395,0.0,0.0,-0.1767,0.0,-0.2245,-0.253,-0.2333,-0.2157,-0.2203,-0.2051,-0.1903,-0.1968,-0.1879,-0.1682,-0.1708,-0.1732,-0.1757,-0.1782,-0.1795,-0.1793,-0.1793,-0.1794,-0.1795,-0.1795,-0.1795,-0.1802,-0.1831,-0.1854,-0.1874,-0.1847,-0.187,-0.1894,-0.1897,-0.1917,-0.1928,-1.0106,-0.9481,-0.9402,-0.772,-0.5056,-0.451,-0.3445,-0.2227,-0.1955,-0.1944,-0.1939,-0.1855,-0.1802,-0.1774,-0.1672,-0.1679,-0.1799,-0.1822,-0.1959,-0.1864,-0.1864,-0.1872,-0.1885,-0.1885,-0.1882,-0.1875,-0.1875,-0.1856,-0.182,-0.1819,-0.1788,-0.173,-0.1707,-0.1656,-0.1677,-0.1604,-0.162,-0.1619,-0.1654,-0.1673,-0.1672,-0.1658,-0.1652,-0.1652,-0.16,-0.1572,-0.1571,-0.1542,-0.1523,-0.1515,-0.1486,-0.146,-0.1436,-0.1373,0.0,0.0,0.0,0.0,0.0,0.0,0.0,0.0,0.0,-0.1241,-0.1273,0.0,-0.1223,0.0,-0.1314,-0.1371,-0.1401,-0.1384,0.0,0.0,-0.1333,-0.1345,-0.1367,-0.1431,-0.1478,-0.1492,-0.1534,-0.1774,-0.2016,-0.1921,-0.1933,-0.2161,-0.2286,-0.2252,-0.2124,-0.2067,-0.2002,-0.1829,-0.1855,-0.1765,-0.177,-0.1778,-0.1786,-0.1794,-0.1795,-0.1795,-0.1795,-0.1795,-0.1795,-0.1795,-0.1795,-0.1799,-0.1805,-0.183,-0.1857,-0.1874,-0.1917,-0.1955,-0.1955,-0.196,-0.1963,-1.0497,-1.0351,-0.9697,-0.8756,-0.7668,-0.6443,-0.4433,-0.2178,-0.215,-0.2021,-0.2031,-0.1954,-0.1911,-0.1894,-0.1885,-0.1888,-0.19,-0.2009,-0.2019,-0.1925,-0.1913,-0.1913,-0.1926,-0.1926,-0.1912,-0.1887,-0.19,-0.1883,-0.1843,-0.1853,-0.1837,-0.1791,-0.179,-0.1759,-0.1699,-0.1792,-0.1681,-0.1682,-0.1696,-0.1704,-0.1703,-0.1689,-0.1675,-0.1662,-0.1616,-0.1585,-0.1572,-0.1542,-0.152,-0.1506,-0.1489,-0.1473,-0.1455,-0.1399,-0.1365,0.0,0.0,0.0,0.0,0.0,0.0,0.0,0.0,0.0,0.0,0.0,-0.1333,-0.1373,-0.1434,-0.1478,-0.1495,-0.1483,-0.1474,-0.1468,-0.1482,-0.1502,-0.1527,-0.1575,-0.1605,-0.1605,-0.1635,-0.1662,-0.1887,-0.1784,-0.1797,-0.1935,-0.1996,-0.2076,-0.1904,-0.1929,-0.1952,-0.1875,-0.1784,-0.1795,-0.1795,-0.1795,-0.1795,-0.1795,-0.1795,-0.1795,-0.1795,-0.1795,-0.1795,-0.1795,-0.1795,-0.1795,-0.1795,-0.1807,-0.1829,-0.186,-0.1892,-0.1928,-0.1968,-0.1977,-0.1977,-1.0578,-1.029,-0.9085,-0.8952,-0.9453,-0.8198,-0.5764,-0.2633,-0.2336,-0.2206,-0.2095,-0.2044,-0.2018,-0.2009,-0.196,-0.2073,-0.1973,-0.2042,-0.2047,-0.1973,-0.1949,-0.1951,-0.1977,-0.1977,-0.1949,-0.19,-0.1924,-0.1908,-0.1853,-0.1879,-0.1876,-0.1847,-0.1847,-0.1831,-0.18,-0.1748,-0.172,-0.1716,-0.1716,-0.1716,-0.1716,-0.1708,-0.1692,-0.1668,-0.1631,-0.1599,-0.1573,-0.1546,-0.1518,-0.1489,-0.149,-0.1492,-0.1491,-0.1439,-0.1421,0.0,-0.1401,0.0,0.0,0.0,0.0,0.0,0.0,0.0,0.0,-0.1416,-0.1454,-0.1536,-0.1567,-0.1585,-0.1588,-0.1564,-0.157,-0.1622,-0.1628,-0.1648,-0.1697,-0.1704,-0.1705,-0.171,-0.171,-0.1711,-0.1716,-0.1718,-0.1733,-0.1758,-0.187,-0.1867,-0.176,-0.1758,-0.1765,-0.1792,-0.1795,-0.1795,-0.1795,-0.1795,-0.1795,-0.1795,-0.1795,-0.1795,-0.1795,-0.1795,-0.1795,-0.1795,-0.1795,-0.1793,-0.179,-0.1789,-0.1798,-0.1821,-0.1834,-0.1866,-0.1939,-0.1965,-0.1969,-0.9987,-0.8833,-0.8301,-0.7196,-0.582,-0.6161,-0.599,-0.5087,-0.3036,-0.2075,-0.2035,-0.2024,-0.2007,-0.1985,-0.2097,-0.2094,-0.1976,-0.1964,-0.1966,-0.1976,-0.1971,-0.1971,-0.1977,-0.1977,-0.1971,-0.196,-0.1965,-0.1949,-0.1915,-0.1919,-0.1907,-0.1878,-0.1877,-0.1745,-0.1833,0.0,0.0,0.0,-0.1778,-0.1778,-0.1776,-0.1729,-0.1703,-0.1803,-0.1622,0.0,-0.1474,-0.1468,-0.1452,-0.152,-0.1541,0.0,0.0,0.0,0.0,0.0,0.0,0.0,0.0,0.0,0.0,0.0,-0.1556,-0.1551,-0.1635,-0.156,-0.1591,-0.1632,-0.1641,-0.1654,-0.1677,-0.1674,-0.1675,-0.1686,-0.1688,-0.1692,-0.1703,-0.1705,-0.1714,-0.1738,-0.1741,-0.175,-0.1774,-0.1798,-0.1814,-0.1818,-0.1823,-0.1823,-0.182,-0.1798,-0.1789,-0.1794,-0.1795,-0.1795,-0.1795,-0.1795,-0.1795,-0.1795,-0.1795,-0.1795,-0.1795,-0.1795,-0.1795,-0.1795,-0.1795,-0.1787,-0.1763,-0.1759,-0.176,-0.1766,-0.1786,-0.1823,-0.1889,-0.1922,-0.1932,-1.0274,0.0,-0.7287,-0.6068,0.0,-0.4467,-0.4113,-0.4034,-0.3446,-0.2755,-0.2086,-0.2085,-0.2078,-0.2064,-0.2049,-0.2042,-0.2041,-0.2026,-0.202,-0.202,-0.202,-0.2011,-0.1997,-0.1997,-0.1981,-0.1955,-0.1969,-0.1961,-0.1933,-0.1946,-0.1939,-0.1908,-0.1909,-0.1893,-0.1864,-0.163,-0.1495,-0.1346,-0.1683,-0.1795,-0.1793,-0.1434,-0.1307,-0.1403,0.0,0.0,0.0,0.0,0.0,0.0,0.0,0.0,0.0,0.0,0.0,-0.1592,-0.1579,-0.1577,-0.1592,-0.1607,-0.1629,-0.1658,-0.1687,-0.1686,-0.1743,-0.1665,-0.1695,-0.1724,-0.1728,-0.1733,-0.1747,-0.1749,-0.1748,-0.1749,-0.1749,-0.1749,-0.1749,-0.1749,-0.1755,-0.177,-0.1785,-0.1801,-0.1815,-0.1829,-0.184,-0.184,-0.1827,-0.1819,-0.1817,-0.1805,-0.1795,-0.1795,-0.1795,-0.1795,-0.1795,-0.1795,-0.1795,-0.1795,-0.1795,-0.1795,-0.1795,-0.1795,-0.1795,-0.1795,-0.1795,-0.1782,-0.1738,-0.1728,-0.1616,-0.1391,-0.1289,-0.1858,-0.271,-0.2798,-0.2617,-1.0585,-1.0047,-0.7227,-0.6027,-0.6028,-0.3628,-0.2423,-0.2287,0.0,0.0,0.0,-0.2146,-0.2144,-0.2137,-0.2113,-0.2101,-0.2099,-0.2075,-0.2064,-0.2063,-0.2059,-0.2042,-0.2019,-0.2014,-0.1986,-0.1942,-0.1964,-0.1964,-0.1941,-0.1964,-0.1964,-0.2063,-0.206,-0.1924,-0.1896,-0.1534,-0.1279,-0.1133,-0.158,-0.18,-0.1795,-0.1342,-0.1,-0.0769,-0.0755,-0.0848,-0.094,-0.0823,-0.1017,-0.1618,-0.1626,-0.1633,-0.1633,-0.1637,-0.1643,-0.1648,-0.1649,-0.166,-0.1684,-0.1686,-0.1706,-0.1755,-0.178,-0.1774,-0.1724,-0.1743,-0.1768,-0.1793,-0.1795,-0.1794,-0.1795,-0.1795,-0.1795,-0.1795,-0.1795,-0.1794,-0.1794,-0.1795,-0.1792,-0.1797,-0.1814,-0.1832,-0.1829,-0.1836,-0.184,-0.1838,-0.1822,-0.1803,-0.1802,-0.18,-0.1795,-0.1795,-0.1801,-0.1803,-0.1797,-0.1802,-0.18,-0.1796,-0.1795,-0.1795,-0.1795,-0.1795,-0.1795,-0.1795,-0.1792,-0.1764,-0.161,-0.1596,-0.1478,-0.1037,-0.0933,-0.1677,-0.4116,-0.4286,-0.4063,-1.0047,-0.8975,-0.9661,-0.8046,-0.5088,-0.4297,-0.3362,-0.2289,-0.2418,-0.2269,-0.2116,-0.2116,-0.2101,-0.2076,-0.2072,-0.207,-0.207,-0.2194,-0.2194,0.0,-0.2165,-0.2022,-0.2017,-0.1994,-0.1978,-0.1971,-0.1975,-0.1975,-0.1971,-0.1975,-0.1974,-0.1971,-0.197,-0.1955,-0.1925,-0.1899,-0.1764,-0.1873,-0.1847,-0.1821,-0.1795,-0.1661,-0.1216,-0.0223,-0.0,-0.064,-0.1595,-0.1167,-0.1148,-0.1622,-0.1665,-0.1692,-0.1692,-0.1716,-0.1742,-0.1767,-0.177,-0.1772,-0.1776,-0.1777,-0.178,-0.1788,-0.1793,-0.1791,-0.1783,-0.1787,-0.1791,-0.1795,-0.1795,-0.1795,-0.1795,-0.1795,-0.1795,-0.1795,-0.1795,-0.1795,-0.1795,-0.1795,-0.1795,-0.1795,-0.1798,-0.1804,-0.1808,-0.1826,-0.184,-0.184,-0.1831,-0.1832,-0.1827,-0.1812,-0.1797,-0.1798,-0.1818,-0.1821,-0.1807,-0.1819,-0.1819,-0.1799,-0.1795,-0.1795,-0.1795,-0.1795,-0.1795,-0.1795,-0.1776,-0.1637,-0.1177,-0.1474,-0.1661,-0.1635,-0.154,-0.2401,-0.5873,-0.6456,-0.6465,-1.0316,-0.9782,-1.0475,-0.9667,-0.7907,-0.4561,-0.3225,-0.3228,-0.2558,-0.2147,-0.2134,-0.2134,-0.2126,-0.2114,-0.2113,-0.2113,-0.2113,-0.2245,-0.2105,-0.2088,-0.2074,-0.205,-0.2019,-0.2005,-0.1991,-0.1977,-0.1977,-0.1977,-0.1977,-0.1977,-0.1853,-0.1483,-0.1853,-0.1969,-0.1956,-0.1942,-0.1927,-0.2029,-0.1645,-0.1156,-0.0796,-0.079,-0.0562,-0.0,-0.0,-0.0548,-0.1755,-0.1536,-0.1524,-0.1714,-0.1739,-0.1753,-0.1754,-0.1767,-0.178,-0.1793,-0.1795,-0.1795,-0.1795,-0.1795,-0.1795,-0.1795,-0.1795,-0.1795,-0.1795,-0.1795,-0.1795,-0.1795,-0.1795,-0.1795,-0.1795,-0.1795,-0.1795,-0.1795,-0.1795,-0.1795,-0.1795,-0.1795,-0.1795,-0.1796,-0.181,-0.1819,-0.1819,-0.1832,-0.184,-0.1839,-0.1829,-0.1822,-0.1838,-0.1829,-0.1826,-0.184,-0.1843,-0.1835,-0.1822,-0.1829,-0.1827,-0.18,-0.1795,-0.1795,-0.1795,-0.1795,-0.1683,-0.1457,-0.1549,-0.1633,-0.1392,-0.1052,-0.1755,-0.3969,-0.4068,-0.4953,-0.6503,-0.6978,-0.7141,-1.0721,-1.0721,-1.0741,-1.0478,-0.98,-0.4959,-0.3355,-0.4167,-0.2827,-0.2155,-0.2155,-0.2155,-0.2155,-0.2155,-0.2155,-0.2155,-0.2155,-0.2155,-0.2138,-0.2111,-0.2102,-0.207,-0.2021,-0.2013,-0.1998,-0.1979,-0.1983,-0.1859,-0.1854,-0.1983,-0.1734,-0.1359,-0.173,-0.1977,-0.173,-0.1977,-0.1964,-0.1941,-0.1559,-0.0944,-0.0463,-0.0116,-0.0115,-0.0341,-0.0,-0.0789,-0.1692,-0.1799,-0.1795,-0.1795,-0.1795,-0.1795,-0.1795,-0.1795,-0.1795,-0.1795,-0.1795,-0.1795,-0.1795,-0.1795,-0.1795,-0.1795,-0.1683,-0.157,-0.157,-0.1683,-0.1795,-0.1795,-0.1795,-0.1795,-0.1795,-0.1795,-0.1795,-0.1795,-0.1795,-0.1795,-0.1795,-0.1795,-0.1795,-0.1797,-0.1816,-0.1828,-0.1829,-0.1715,-0.1715,-0.1825,-0.1814,-0.1817,-0.1836,-0.184,-0.1854,-0.188,-0.1875,-0.1856,-0.1847,-0.1848,-0.1835,-0.1803,-0.1795,-0.1795,-0.1795,-0.1795,-0.1683,-0.1231,-0.1213,-0.1958,-0.2577,-0.253,-0.3003,-0.4906,-0.5415,-0.6264,-0.6684,-0.6912,-0.7065,-1.0721,-1.0721,-1.0724,-0.9918,-0.8576,-0.5889,-0.4558,-0.4167,-0.2826,-0.2155,-0.2153,-0.2155,-0.2155,-0.2155,-0.2155,-0.2155,-0.2155,-0.2155,-0.2138,-0.2108,-0.208,-0.205,-0.2018,-0.1993,-0.1979,-0.1981,-0.2002,-0.1625,-0.1114,-0.1627,-0.1878,-0.1856,-0.1977,-0.173,-0.1235,-0.173,-0.1975,-0.1973,-0.1969,-0.194,-0.1768,-0.0588,-0.047,-0.1643,-0.1619,-0.1722,-0.1834,-0.181,-0.1795,-0.1795,-0.1795,-0.1795,-0.1795,-0.1795,-0.1795,-0.1795,-0.1795,-0.1795,-0.1795,-0.1795,-0.1795,-0.1795,-0.1346,-0.1009,-0.1009,-0.1458,-0.1795,-0.1795,-0.1795,-0.1795,-0.1795,-0.1795,-0.1795,-0.1683,-0.1795,-0.1795,-0.1795,-0.1795,-0.1795,-0.1795,-0.1687,-0.18,-0.1693,-0.1355,-0.124,-0.1809,-0.1818,-0.1716,-0.1844,-0.1846,-0.1864,-0.1909,-0.1922,-0.1898,-0.1862,-0.1865,-0.1851,-0.1808,-0.1795,-0.1795,-0.1795,-0.1795,-0.1682,-0.1225,-0.1424,-0.2375,-0.4964,-0.6515,-0.5523,-0.4663,-0.5489,-0.6455,-0.6801,-0.7032,-0.7201,-1.0721,-1.0721,-1.0721,-0.9915,-0.8304,-0.6021,-0.469,-0.4166,-0.2827,-0.2145,-0.2131,-0.2146,-0.2155,-0.2155,-0.2155,-0.2155,-0.2155,-0.2155,-0.2138,-0.2108,-0.1299,-0.1024,-0.1389,-0.1883,-0.2003,-0.1878,-0.1259,-0.0629,-0.0501,-0.0749,-0.087,-0.0865,-0.1606,-0.1853,-0.1606,-0.1853,-0.1977,-0.1977,-0.1977,-0.1964,-0.1941,-0.1201,-0.0952,-0.1297,-0.1639,-0.1857,-0.1842,-0.1827,-0.1814,-0.1797,-0.1795,-0.1795,-0.1795,-0.1795,-0.1795,-0.1795,-0.1458,-0.1234,-0.1234,-0.1234,-0.1458,-0.1795,-0.157,-0.1346,-0.1009,-0.1458,-0.1795,-0.1795,-0.1458,-0.1234,-0.1234,-0.1234,-0.1234,-0.1234,-0.1234,-0.1234,-0.1234,-0.1234,-0.1234,-0.1234,-0.1234,-0.1465,-0.159,-0.091,-0.091,-0.1592,-0.1708,-0.1598,-0.1741,-0.1868,-0.1885,-0.1922,-0.1945,-0.1931,-0.1881,-0.1876,-0.1857,-0.1814,-0.1795,-0.1795,-0.1795,-0.1795,-0.1566,-0.0998,-0.2622,-0.432,-0.658,-0.7189,-0.6658,-0.5588,-0.5579,-0.6669,-0.6893,-0.7027,-0.713,-1.0721,-1.0721,-1.0721,-0.9915,-0.844,-0.6293,-0.4961,-0.4166,-0.2827,-0.2138,-0.2113,-0.2133,-0.2137,-0.2132,-0.2146,-0.2155,-0.2155,-0.2155,-0.2138,-0.1977,-0.0652,-0.0257,-0.0759,-0.1263,-0.1639,-0.176,-0.1009,-0.0379,-0.0126,-0.0373,-0.0371,-0.0247,-0.1112,-0.1853,-0.1977,-0.1977,-0.1977,-0.1977,-0.1977,-0.1977,-0.1973,-0.1711,-0.1447,-0.1307,-0.1661,-0.1884,-0.1854,-0.1844,-0.1831,-0.1809,-0.18,-0.1795,-0.1795,-0.1683,-0.157,-0.1795,-0.1346,-0.1121,-0.1121,-0.0785,-0.0785,-0.1234,-0.1346,-0.1121,-0.0785,-0.1009,-0.1458,-0.1795,-0.1346,-0.1121,-0.0673,-0.0673,-0.0673,-0.0673,-0.0673,-0.0673,-0.0673,-0.0675,-0.0678,-0.0677,-0.0682,-0.0797,-0.1034,-0.0577,-0.0462,-0.1598,-0.159,-0.1477,-0.1747,-0.1879,-0.1896,-0.1926,-0.1834,-0.1701,-0.189,-0.1881,-0.1855,-0.1817,-0.1795,-0.1795,-0.1683,-0.157,-0.269,-0.3117,-0.5628,-0.684,-0.7188,-0.7233,-0.7163,-0.7058,-0.6934,-0.6926,-0.7013,-0.7037,-0.7103,-1.0721,-1.0714,-1.0717,-0.9766,-0.8435,-0.6958,-0.5496,-0.4026,-0.2824,-0.2137,-0.2111,-0.2112,-0.2096,-0.2076,-0.2126,-0.2153,-0.2153,-0.2151,-0.2136,-0.1978,-0.0657,-0.0,-0.0,-0.0126,-0.0753,-0.1748,-0.1638,-0.1011,-0.0126,-0.1244,-0.1235,-0.0124,-0.0741,-0.1359,-0.1977,-0.1977,-0.1977,-0.1977,-0.1977,-0.1977,-0.1977,-0.1975,-0.1836,-0.1812,-0.1929,-0.1915,-0.1885,-0.1856,-0.184,-0.1838,-0.1813,-0.1797,-0.1797,-0.1234,-0.1235,-0.1685,-0.1683,-0.1683,-0.1572,-0.0785,-0.0224,-0.0,-0.0,-0.0,-0.0,-0.0,-0.0673,-0.1683,-0.157,-0.1121,-0.0,-0.0,-0.0,-0.0,-0.0,-0.0,-0.0,-0.0,-0.0,-0.0,-0.0,-0.0,-0.0,-0.0,-0.0464,-0.1371,-0.1824,-0.1842,-0.1736,-0.1871,-0.1899,-0.1807,-0.1583,-0.1216,-0.1751,-0.1869,-0.1857,-0.1817,-0.1795,-0.1683,-0.1346,-0.1458,-0.3138,-0.4925,-0.6342,-0.7146,-0.7365,-0.7384,-0.7329,-0.7299,-0.7149,-0.7152,-0.7105,-0.7133,-0.7195,-1.0654,-1.0439,-1.0436,-0.913,-0.7045,-0.6523,-0.499,-0.2919,-0.2391,-0.212,-0.211,-0.2109,-0.2093,-0.2065,-0.2086,-0.2097,-0.2097,-0.118,-0.1313,-0.1974,-0.0653,-0.0,-0.0,-0.0,-0.013,-0.0644,-0.077,-0.0507,-0.0125,-0.0495,-0.0494,-0.0247,-0.0741,-0.1359,-0.1853,-0.1977,-0.1977,-0.1977,-0.1977,-0.1977,-0.1977,-0.1977,-0.1971,-0.1962,-0.196,-0.1946,-0.1915,-0.1904,-0.1889,-0.1754,-0.151,-0.139,-0.1619,-0.0802,-0.0456,-0.0569,-0.0677,-0.1014,-0.1591,-0.1354,-0.0785,-0.0,-0.0,-0.0,-0.0,-0.0,-0.0224,-0.0,-0.0,-0.0336,-0.0,-0.0,-0.0,-0.0,-0.0,-0.0,-0.0,-0.0,-0.0,-0.0,-0.0,-0.0,-0.0,-0.0,-0.0,-0.0582,-0.128,-0.175,-0.1757,-0.154,-0.1439,-0.1811,-0.1831,-0.158,-0.1274,-0.175,-0.1868,-0.1822,-0.1683,-0.1234,-0.0785,-0.1009,-0.2465,-0.5262,-0.6805,-0.7312,-0.7412,-0.7456,-0.7437,-0.7345,-0.7312,-0.7228,-0.7168,-0.7176,-0.7249,-0.9977,-0.9115,-1.0035,-0.8604,-0.5738,-0.5739,-0.4462,-0.2256,-0.2124,-0.2113,-0.2099,-0.2105,-0.2087,-0.2056,-0.2059,-0.2064,-0.1936,-0.0648,-0.0524,-0.1325,-0.0394,-0.0,-0.0,-0.0,-0.0,-0.0,-0.0,-0.0,-0.0,-0.0,-0.0,-0.0,-0.0871,-0.1489,-0.1979,-0.1977,-0.1977,-0.1977,-0.1977,-0.1977,-0.1977,-0.1977,-0.1977,-0.1977,-0.1853,-0.1721,-0.1947,-0.1694,-0.1682,-0.1784,-0.1418,-0.1176,-0.1168,-0.046,-0.0228,-0.0456,-0.0226,-0.0563,-0.1593,-0.1807,-0.1458,-0.0673,-0.0,-0.0,-0.0,-0.0,-0.0,-0.0,-0.0,-0.0,-0.0,-0.0,-0.0,-0.0,-0.0,-0.0,-0.0,-0.0,-0.0,-0.0,-0.0,-0.0,-0.0,-0.0,-0.0,-0.0,-0.0707,-0.1298,-0.1664,-0.1556,-0.1089,-0.1337,-0.1717,-0.1459,-0.0,-0.0,-0.0,-0.1591,-0.1234,-0.0673,-0.1346,-0.1458,-0.258,-0.5375,-0.6748,-0.715,-0.7437,-0.7375,-0.7415,-0.7456,-0.7388,-0.7296,-0.7247,-0.7203,-0.726,-0.8814,-0.6784,-0.938,-0.801,-0.4799,-0.4931,-0.3889,-0.2415,-0.2148,-0.2119,-0.2088,-0.2099,-0.2081,-0.204,-0.2055,-0.2064,-0.1813,-0.0785,-0.0265,-0.0,-0.0,-0.0,-0.0,-0.0,-0.0,-0.0,-0.0,-0.0,-0.0,-0.0,-0.0,-0.0,-0.1135,-0.1627,-0.1977,-0.1853,-0.1977,-0.1977,-0.1977,-0.1977,-0.1977,-0.1977,-0.1853,-0.1853,-0.1482,-0.1481,-0.1974,-0.1461,-0.1329,-0.1688,-0.1668,-0.1171,-0.0347,-0.0114,-0.0562,-0.1352,-0.0674,-0.0673,-0.1573,-0.1686,-0.1571,-0.1237,-0.0561,-0.0,-0.0,-0.0,-0.0,-0.0,-0.0,-0.0,-0.0,-0.0,-0.0,-0.0,-0.0,-0.0,-0.0,-0.0,-0.0,-0.0,-0.0,-0.0,-0.0,-0.0,-0.0,-0.0,-0.0,-0.0476,-0.1321,-0.1328,-0.1094,-0.0614,-0.0863,-0.1099,-0.0,-0.0,-0.0,-0.1248,-0.0675,-0.0336,-0.2468,-0.3256,-0.4183,-0.6449,-0.6922,-0.7331,-0.7489,-0.7535,-0.7535,-0.7543,-0.7451,-0.7361,-0.7323,-0.7279,-0.7236,-0.7094,-0.6379,-0.7032,-0.6387,-0.4568,-0.4438,-0.3413,-0.2123,-0.2123,-0.2123,-0.2124,-0.2114,-0.2098,-0.2081,-0.2071,-0.2076,-0.1964,-0.1579,-0.0925,-0.0,-0.0,-0.0,-0.0,-0.0,-0.0,-0.0,-0.0,-0.0,-0.0,-0.0,-0.0,-0.0,-0.0,-0.0627,-0.0742,-0.1112,-0.1483,-0.1977,-0.1977,-0.1977,-0.1977,-0.1483,-0.1359,-0.1359,-0.1483,-0.1853,-0.1976,-0.1844,-0.1349,-0.0735,-0.061,-0.0361,-0.0235,-0.0815,-0.1386,-0.1712,-0.1467,-0.0903,-0.0569,-0.0,-0.0,-0.0,-0.0,-0.0,-0.0,-0.0,-0.0,-0.0,-0.0,-0.0,-0.0,-0.0,-0.0,-0.0,-0.0,-0.0,-0.0,-0.0,-0.0,-0.0,-0.0,-0.0,-0.0,-0.0,-0.0,-0.0,-0.0,-0.0,-0.0,-0.0,-0.0491,-0.0123,-0.0493,-0.0,-0.0,-0.0,-0.0,-0.0,-0.1245,-0.1908,-0.3929,-0.4497,-0.5554,-0.6648,-0.7013,-0.7322,-0.7597,-0.7614,-0.757,-0.7543,-0.7434,-0.7388,-0.7383,-0.7345,-0.729,-0.6155,-0.4956,-0.5356,-0.484,-0.3797,-0.3404,-0.2896,-0.2257,-0.2126,-0.2131,-0.2133,-0.213,-0.212,-0.211,-0.21,-0.2108,-0.2125,-0.2127,-0.1595,-0.0797,-0.0133,-0.0,-0.0,-0.0,-0.0,-0.0,-0.0,-0.0,-0.0,-0.0,-0.0,-0.0,-0.0,-0.0,-0.0,-0.0371,-0.0865,-0.1235,-0.1483,-0.173,-0.1853,-0.1606,-0.1112,-0.0865,-0.1483,-0.1977,-0.1977,-0.173,-0.1359,-0.074,-0.0491,-0.0364,-0.0476,-0.1064,-0.1642,-0.1859,-0.1842,-0.1493,-0.081,-0.0,-0.0,-0.0,-0.0,-0.0,-0.0,-0.0,-0.0,-0.0,-0.0,-0.0,-0.0,-0.0,-0.0,-0.0,-0.0,-0.0,-0.0,-0.0,-0.0,-0.0,-0.0,-0.0,-0.0,-0.0,-0.0,-0.0,-0.0,-0.0,-0.0,-0.0,-0.0,-0.0,-0.0,-0.0,-0.0,-0.0,-0.0,-0.0,-0.2164,-0.3953,-0.5962,-0.5054,-0.5189,-0.6592,-0.7359,-0.7423,-0.7674,-0.7494,-0.7404,-0.7385,-0.7402,-0.7377,-0.7355,-0.7355,-0.7334,-0.5933,-0.2666,-0.4149,-0.3875,-0.2407,-0.2273,-0.227,-0.2144,-0.2144,-0.2127,-0.2115,-0.2127,-0.2127,-0.2116,-0.2121,-0.2132,-0.2147,-0.2139,-0.2135,-0.1736,-0.0935,-0.0,-0.0,-0.0,-0.0,-0.0,-0.0,-0.0,-0.0,-0.0,-0.0,-0.0,-0.0,-0.0,-0.0,-0.0,-0.0,-0.0,-0.0865,-0.1482,-0.173,-0.1853,-0.1482,-0.0371,-0.1359,-0.1853,-0.1977,-0.1483,-0.1483,-0.185,-0.1343,-0.109,-0.1083,-0.107,-0.1417,-0.1883,-0.1884,-0.188,-0.1648,-0.0938,-0.0,-0.0,-0.0,-0.0,-0.0,-0.0,-0.0,-0.0,-0.0,-0.0,-0.0,-0.0,-0.0,-0.0,-0.0,-0.0,-0.0,-0.0,-0.0,-0.0,-0.0,-0.0,-0.0,-0.0,-0.0,-0.0,-0.0,-0.0,-0.0,-0.0,-0.0,-0.0,-0.0,-0.0,-0.0,-0.0,-0.0,-0.0,-0.2664,-0.5496,-0.7064,-0.6028,-0.5368,-0.6778,-0.7581,-0.7655,-0.7622,-0.7448,-0.7347,-0.7353,-0.7353,-0.7334,-0.7353,-0.738,-0.7434,-0.4918,-0.2338,-0.3643,-0.3518,-0.2218,-0.2088,-0.2219,-0.2219,-0.2089,-0.2087,-0.221,-0.2214,-0.2218,-0.2207,-0.2085,-0.2088,-0.2091,-0.2221,-0.2218,-0.2088,-0.1696,-0.119,-0.0805,-0.0269,-0.0269,-0.0672,-0.1208,-0.1071,-0.0,-0.0,-0.0,-0.0,-0.0,-0.0,-0.0,-0.0,-0.0,-0.0,-0.1112,-0.1235,-0.0741,-0.1112,-0.1359,-0.1606,-0.1359,-0.1606,-0.1977,-0.1853,-0.173,-0.1976,-0.1847,-0.1709,-0.1693,-0.1683,-0.1672,-0.1894,-0.1889,-0.1887,-0.1887,-0.1534,-0.0948,-0.0,-0.0,-0.0,-0.0,-0.0,-0.0,-0.0,-0.0,-0.0,-0.0,-0.0,-0.0,-0.0,-0.0,-0.0,-0.0,-0.0,-0.0,-0.0,-0.0,-0.0,-0.0,-0.0,-0.0,-0.0,-0.0,-0.0,-0.0,-0.0,-0.0,-0.0,-0.0,-0.0,-0.0,-0.0,-0.0,-0.0,-0.3191,-0.6763,-0.7575,-0.724,-0.7069,-0.7663,-0.7644,-0.7693,-0.7576,-0.7423,-0.7383,-0.732,-0.7328,-0.7331,-0.7432,-0.7486,-0.7548,-0.511,-0.3599,-0.3347,-0.2836,-0.2193,-0.2065,-0.2065,-0.2065,-0.2065,-0.2065,-0.2194,-0.2194,-0.2064,-0.1806,-0.1677,-0.1806,-0.2064,-0.2065,-0.2194,-0.2065,-0.2067,-0.1825,-0.1451,-0.1058,-0.0794,-0.0662,-0.1721,-0.1713,-0.0,-0.039,-0.0,-0.0,-0.0,-0.0,-0.0,-0.0,-0.0,-0.0,-0.0865,-0.0988,-0.0865,-0.1235,-0.1606,-0.1853,-0.1606,-0.1606,-0.1977,-0.1977,-0.1977,-0.1977,-0.1976,-0.1969,-0.1954,-0.195,-0.1942,-0.1924,-0.1924,-0.1925,-0.1924,-0.1924,-0.1448,-0.0,-0.0244,-0.0,-0.0,-0.0,-0.0,-0.0,-0.0,-0.0,-0.0,-0.0,-0.0,-0.0,-0.0,-0.0,-0.0,-0.0,-0.0,-0.0,-0.0,-0.0,-0.0,-0.0,-0.0,-0.0,-0.0,-0.0,-0.0,-0.0,-0.0,-0.0,-0.0,-0.0,-0.0,-0.0,-0.0,-0.0,-0.4085,-0.7595,-0.7786,-0.7819,-0.7748,-0.7674,-0.769,-0.7668,-0.7557,-0.7434,-0.732,-0.7282,-0.7301,-0.7369,-0.7472,-0.7568,-0.7635,-0.5812,-0.5243,-0.3205,-0.2183,-0.2052,-0.2054,-0.2049,-0.2053,-0.2049,-0.205,-0.205,-0.2052,-0.1535,-0.1027,-0.1277,-0.1539,-0.2052,-0.2046,-0.2049,-0.2048,-0.2048,-0.2052,-0.1925,-0.1941,-0.1426,-0.0778,-0.168,-0.2067,-0.1802,-0.0764,-0.0126,-0.0,-0.0,-0.0,-0.0988,-0.0494,-0.0124,-0.0,-0.0371,-0.0865,-0.1482,-0.173,-0.1977,-0.1977,-0.1977,-0.1853,-0.1977,-0.1977,-0.1977,-0.1977,-0.1977,-0.1976,-0.1975,-0.1976,-0.1974,-0.1971,-0.1967,-0.1969,-0.1973,-0.1968,-0.1726,-0.1109,-0.037,-0.0,-0.0,-0.0,-0.0,-0.0,-0.0,-0.0,-0.0,-0.0,-0.0,-0.0,-0.0,-0.0,-0.0,-0.0,-0.0,-0.0,-0.0,-0.0,-0.0,-0.0,-0.0,-0.0,-0.0,-0.0,-0.0,-0.0,-0.0,-0.0,-0.0,-0.0,-0.0,-0.0,-0.0,-0.681,-0.6436,-0.7826,-0.7704,-0.7713,-0.7627,-0.7668,-0.7741,-0.7712,-0.7597,-0.7464,-0.735,-0.7312,-0.7375,-0.744,-0.7516,-0.7608,-0.7687,-0.5679,-0.2846,-0.3351,-0.2987,-0.212,-0.1995,-0.1996,-0.1997,-0.1996,-0.2001,-0.1872,-0.1498,-0.0999,-0.0374,-0.125,-0.187,-0.2001,-0.2001,-0.1996,-0.1996,-0.1996,-0.1996,-0.2007,-0.2037,-0.1932,-0.1674,-0.1934,-0.2052,-0.1906,-0.1643,-0.113,-0.0,-0.0,-0.0,-0.0,-0.0,-0.0618,-0.1235,-0.1112,-0.0988,-0.1235,-0.1853,-0.1977,-0.1977,-0.1977,-0.1977,-0.1977,-0.1977,-0.1977,-0.1977,-0.1977,-0.1977,-0.1977,-0.1977,-0.1977,-0.1977,-0.1977,-0.1977,-0.1977,-0.1977,-0.1977,-0.173,-0.0,-0.0,-0.0,-0.0,-0.0,-0.0,-0.0,-0.0,-0.0,-0.0,-0.0,-0.0,-0.0,-0.0,-0.0,-0.0,-0.0,-0.0,-0.0,-0.0,-0.0,-0.0,-0.0,-0.0,-0.0,-0.0,-0.0,-0.0,-0.0,-0.0,-0.0,-0.4189,-0.4795,-0.6246,-0.6974,-0.7955,-0.7947,-0.7931,-0.7693,-0.766,-0.7717,-0.7769,-0.7826,-0.7755,-0.7644,-0.7627,-0.754,-0.75,-0.7453,-0.7527,-0.76,-0.7676,-0.7736,-0.5028,-0.2086,-0.2708,-0.259,-0.21,-0.1977,-0.1977,-0.1977,-0.1977,-0.1977,-0.1977,-0.1606,-0.1235,-0.0988,-0.1359,-0.1607,-0.1977,-0.1977,-0.1977,-0.1979,-0.1978,-0.1977,-0.1979,-0.2004,-0.2023,-0.2023,-0.1769,-0.1635,-0.1252,-0.1125,-0.0622,-0.0,-0.0,-0.0,-0.0,-0.0,-0.0,-0.1606,-0.173,-0.1483,-0.1606,-0.173,-0.1977,-0.1977,-0.1977,-0.1977,-0.1977,-0.1977,-0.1977,-0.1977,-0.1977,-0.1977,-0.1977,-0.1977,-0.1977,-0.1977,-0.1977,-0.1977,-0.1977,-0.1977,-0.1977,-0.1977,-0.0741,-0.0,-0.0,-0.0,-0.0,-0.0,-0.0,-0.0,-0.0,-0.0,-0.0,-0.0,-0.0,-0.0,-0.0,-0.0,-0.0,-0.0,-0.0,-0.0,-0.0,-0.0,-0.0,-0.0,-0.0,-0.0,-0.0,-0.0,-0.0,-0.0,-0.0,-0.7187,-0.7308,-0.7539,-0.7516,-0.7877,-0.7864,-0.785,-0.7793,-0.7801,-0.7831,-0.7845,-0.7834,-0.7801,-0.7717,-0.7714,-0.7679,-0.7573,-0.7538,-0.7616,-0.7684,-0.7744,-0.7793,-0.4421,-0.1967,-0.1974,-0.1977,-0.1977,-0.1977,-0.1977,-0.1977,-0.1977,-0.1977,-0.1977,-0.1977,-0.1853,-0.1853,-0.1482,-0.1606,-0.1853,-0.1977,-0.1977,-0.1977,-0.173,-0.173,-0.1732,-0.1734,-0.1737,-0.1854,-0.1611,-0.1114,-0.0619,-0.0,-0.0,-0.0,-0.0,-0.0,-0.0,-0.0,-0.0988,-0.1853,-0.1977,-0.1853,-0.1977,-0.1977,-0.1977,-0.1977,-0.1977,-0.1977,-0.1977,-0.1977,-0.1977,-0.1977,-0.1977,-0.1977,-0.1977,-0.1977,-0.1977,-0.1977,-0.1977,-0.1977,-0.1977,-0.1977,-0.1977,-0.173,-0.0741,-0.0,-0.0,-0.0,-0.0,-0.0,-0.0,-0.0,-0.0,-0.0,-0.0,-0.0,-0.0,-0.0,-0.0,-0.0,-0.0,-0.0,-0.0,-0.0,-0.0,-0.0,-0.0,-0.0,-0.0,-0.0,-0.0,-0.1482,-0.3826,-0.5184,-0.7059,-0.7803,-0.7924,-0.791,-0.7896,-0.7891,-0.788,-0.7872,-0.7858,-0.7858,-0.785,-0.7815,-0.7793,-0.7782,-0.7782,-0.7771,-0.7712,-0.7608,-0.7633,-0.7725,-0.7777,-0.7815,-0.7842,-0.4421,-0.1967,-0.1974,-0.1977,-0.1977,-0.1977,-0.1977,-0.1977,-0.1977,-0.1977,-0.1977,-0.1977,-0.1977,-0.1977,-0.1977,-0.1977,-0.1977,-0.1977,-0.1977,-0.173,-0.1359,-0.1235,-0.1235,-0.1359,-0.1235,-0.1359,-0.1606,-0.173,-0.1359,-0.0,-0.0,-0.0,-0.0,-0.0,-0.1235,-0.1606,-0.1606,-0.1977,-0.1977,-0.1977,-0.1977,-0.1977,-0.1977,-0.1977,-0.1977,-0.1977,-0.1977,-0.1977,-0.1977,-0.1977,-0.1977,-0.1977,-0.1977,-0.1977,-0.1977,-0.1977,-0.1977,-0.1977,-0.1853,-0.1853,-0.1359,-0.0618,-0.0,-0.0,-0.0,-0.0,-0.0,-0.0,-0.0,-0.0,-0.0,-0.0,-0.0,-0.0,-0.0,-0.0,-0.0,-0.0,-0.0,-0.0,-0.0,-0.0,-0.0,-0.0,-0.0,-0.0,-0.0,-0.0,-0.0,-0.3211,-0.6317,-0.7064,-0.7685,-0.7924,-0.7907,-0.7891,-0.7877,-0.788,-0.7875,-0.7875,-0.7867,-0.7869,-0.7853,-0.7828,-0.7828,-0.7837,-0.7834,-0.7823,-0.7804,-0.7744,-0.7788,-0.7834,-0.7839,-0.7845,-0.785,-0.4426,-0.2094,-0.1975,-0.1977,-0.1977,-0.1977,-0.1977,-0.1977,-0.1977,-0.1977,-0.1977,-0.1977,-0.173,-0.1606,-0.1483,-0.1606,-0.1977,-0.1977,-0.1606,-0.1112,-0.0618,-0.0741,-0.0988,-0.0988,-0.0988,-0.1235,-0.1606,-0.1977,-0.1977,-0.1359,-0.0618,-0.0,-0.0,-0.0,-0.173,-0.1977,-0.1977,-0.1977,-0.1977,-0.1977,-0.1977,-0.1977,-0.1977,-0.1977,-0.1977,-0.1977,-0.1977,-0.1977,-0.1977,-0.1977,-0.1977,-0.1977,-0.1977,-0.1977,-0.1977,-0.1977,-0.1977,-0.1606,-0.1112,-0.0988,-0.0618,-0.0,-0.0,-0.0,-0.0,-0.0,-0.0618,-0.0,-0.0,-0.0,-0.0,-0.0,-0.0,-0.0,-0.0,-0.0,-0.0,-0.0,-0.0,-0.0,-0.0,-0.0,-0.0,-0.0,-0.0,-0.0,-0.1234,-0.1357,-0.1726,-0.457,-0.7691,-0.7303,-0.7298,-0.791,-0.7894,-0.7883,-0.7872,-0.7872,-0.7872,-0.7872,-0.7872,-0.7872,-0.7872,-0.7861,-0.7869,-0.7872,-0.7867,-0.7847,-0.7864,-0.7872,-0.7861,-0.7856,-0.7864,-0.7872,-0.7872,-0.4186,-0.1977,-0.1977,-0.1977,-0.1977,-0.1977,-0.1977,-0.1977,-0.1977,-0.1977,-0.1977,-0.1977,-0.173,-0.1235,-0.0988,-0.1112,-0.1606,-0.173,-0.1483,-0.0741,-0.0247,-0.0371,-0.0741,-0.1112,-0.1235,-0.1359,-0.1482,-0.1853,-0.1977,-0.1853,-0.1235,-0.0,-0.0,-0.0618,-0.1483,-0.1853,-0.1977,-0.1977,-0.1977,-0.1977,-0.1977,-0.1977,-0.1977,-0.1977,-0.1977,-0.1977,-0.1977,-0.1977,-0.1977,-0.1977,-0.1977,-0.1977,-0.1977,-0.1977,-0.1977,-0.1977,-0.1977,-0.1235,-0.0,-0.0,-0.0,-0.0,-0.0,-0.0,-0.0,-0.0865,-0.1483,-0.0618,-0.0,-0.0,-0.0,-0.0,-0.0,-0.0,-0.0,-0.0,-0.0,-0.0,-0.0,-0.0,-0.1376,-0.0,-0.0,-0.0,-0.0,-0.3701,-0.3329,-0.308,-0.3573,-0.5557,-0.7552,-0.6664,-0.6655,-0.7641,-0.788,-0.7877,-0.7872,-0.7872,-0.7872,-0.7872,-0.7872,-0.7872,-0.7872,-0.7872,-0.7872,-0.7872,-0.7872,-0.7872,-0.7872,-0.7872,-0.7872,-0.7872,-0.7872,-0.7872,-0.7872,-0.3326,-0.1977,-0.1977,-0.1977,-0.1977,-0.1977,-0.1977,-0.1977,-0.1977,-0.1977,-0.1853,-0.1977,-0.1853,-0.1483,-0.0618,-0.0247,-0.0618,-0.1235,-0.1606,-0.1112,-0.0494,-0.0,-0.0371,-0.1482,-0.1606,-0.1606,-0.1359,-0.1483,-0.1853,-0.1977,-0.1235,-0.0,-0.0,-0.0371,-0.1359,-0.1853,-0.1977,-0.1977,-0.1977,-0.1977,-0.1977,-0.1977,-0.1977,-0.1977,-0.1977,-0.1977,-0.1977,-0.1977,-0.1977,-0.1977,-0.1977,-0.1977,-0.1977,-0.1977,-0.1977,-0.1977,-0.1853,-0.0,-0.0,-0.0,-0.0,-0.0,-0.0,-0.0,-0.0,-0.0988,-0.173,-0.1853,-0.0865,-0.0,-0.0,-0.0,-0.0,-0.0,-0.0,-0.0,-0.0,-0.0,-0.0,-0.4636,-0.5117,-0.5802,-0.0,-0.0,-0.3815,-0.4681,-0.5427,-0.5061,-0.532,-0.6972,-0.7954,-0.7192,-0.6803,-0.7667,-0.7877,-0.7872,-0.7872,-0.7872,-0.7872,-0.7872,-0.7872,-0.7872,-0.7872,-0.7872,-0.7872,-0.7872,-0.7872,-0.7872,-0.7872,-0.7872,-0.7872,-0.7872,-0.7872,-0.7872,-0.7872,-0.2468,-0.1977,-0.1977,-0.1977,-0.1977,-0.1977,-0.1977,-0.1977,-0.1977,-0.173,-0.1359,-0.0988,-0.0865,-0.0,-0.0124,-0.0,-0.0,-0.0,-0.0,-0.0,-0.0,-0.0,-0.0,-0.0618,-0.1112,-0.1853,-0.173,-0.173,-0.1853,-0.1606,-0.0865,-0.0371,-0.0741,-0.1235,-0.1483,-0.1853,-0.1977,-0.1977,-0.1977,-0.1977,-0.1977,-0.1977,-0.1977,-0.1977,-0.1977,-0.1977,-0.1977,-0.1977,-0.1853,-0.173,-0.1606,-0.1606,-0.173,-0.173,-0.173,-0.0865,-0.1246,-0.0997,-0.0,-0.0,-0.0,-0.0,-0.0,-0.0,-0.0,-0.0494,-0.1359,-0.1977,-0.1483,-0.0865,-0.0,-0.0,-0.0,-0.0,-0.0,-0.0,-0.0,-0.0,-0.6153,-0.7597,-0.8505,-0.8386,-0.8163,-0.7112,-0.5806,-0.6292,-0.6937,-0.6695,-0.683,-0.7489,-0.8079,-0.7878,-0.7733,-0.7964,-0.7907,-0.7872,-0.7875,-0.7875,-0.788,-0.7877,-0.7872,-0.7872,-0.7872,-0.7872,-0.7872,-0.7872,-0.7872,-0.7872,-0.7872,-0.7872,-0.7872,-0.7872,-0.7872,-0.7872,-0.7872,-0.1977,-0.1977,-0.1977,-0.1977,-0.1977,-0.1977,-0.1977,-0.1977,-0.1977,-0.1606,-0.0988,-0.0,-0.0,-0.0,-0.0,-0.0,-0.0,-0.0,-0.0,-0.0,-0.0,-0.0,-0.0,-0.0,-0.0618,-0.173,-0.1853,-0.1977,-0.1853,-0.1606,-0.1112,-0.0494,-0.1359,-0.1853,-0.1977,-0.1977,-0.1977,-0.1977,-0.1977,-0.1977,-0.1977,-0.1977,-0.1977,-0.1977,-0.1977,-0.1977,-0.1977,-0.1977,-0.1853,-0.1606,-0.1606,-0.1606,-0.1606,-0.1853,-0.1612,-0.1119,-0.1381,-0.126,-0.0753,-0.0,-0.0,-0.0,-0.0,-0.0,-0.0,-0.0,-0.0247,-0.1359,-0.1853,-0.1112,-0.0,-0.0,-0.0,-0.0,-0.0,-0.0,-0.2214,-0.5265,-0.7297,-0.7964,-0.8612,-0.8579,-0.8378,-0.8359,-0.8183,-0.8127,-0.8253,-0.8261,-0.8258,-0.8253,-0.816,-0.8065,-0.8032,-0.7994,-0.7915,-0.7877,-0.7877,-0.7896,-0.7902,-0.7888,-0.7888,-0.7877,-0.7872,-0.7872,-0.7872,-0.7872,-0.7872,-0.7872,-0.7872,-0.7872,-0.7872,-0.7872,-0.7872,-0.7875,-0.7877,-0.1977,-0.1977,-0.1977,-0.1977,-0.1977,-0.1977,-0.1977,-0.1977,-0.1977,-0.1606,-0.0988,-0.0,-0.0,-0.0,-0.0,-0.0,-0.0,-0.0,-0.0,-0.0,-0.0,-0.0,-0.0,-0.0,-0.0494,-0.1112,-0.173,-0.1977,-0.1977,-0.1853,-0.1853,-0.1853,-0.1853,-0.1977,-0.1977,-0.1977,-0.1977,-0.1977,-0.1977,-0.1977,-0.1977,-0.1977,-0.1977,-0.1977,-0.1977,-0.1977,-0.1977,-0.1977,-0.1853,-0.173,-0.1853,-0.1853,-0.1853,-0.1977,-0.1737,-0.1631,-0.1516,-0.1653,-0.1534,-0.0896,-0.0,-0.0,-0.0,-0.0,-0.0,-0.0,-0.0,-0.0,-0.1114,-0.1115,-0.0,-0.0,-0.0,-0.0,-0.0,-0.0,-0.4232,-0.6535,-0.8192,-0.8467,-0.8573,-0.8527,-0.8513,-0.8478,-0.8432,-0.8369,-0.8348,-0.8356,-0.8331,-0.831,-0.8204,-0.8119,-0.8081,-0.8019,-0.7915,-0.7902,-0.7951,-0.7978,-0.7992,-0.7948,-0.791,-0.7899,-0.7913,-0.7872,-0.7872,-0.7872,-0.7872,-0.7872,-0.7872,-0.7872,-0.7875,-0.7883,-0.7905,-0.7921,-0.7913,-0.1977,-0.1977,-0.1977,-0.1977,-0.1977,-0.1977,-0.1977,-0.1977,-0.1977,-0.1606,-0.0988,-0.0,-0.0,-0.0,-0.0,-0.0,-0.0,-0.0,-0.0,-0.0,-0.0,-0.0,-0.0,-0.0741,-0.1235,-0.1235,-0.173,-0.1977,-0.1977,-0.1977,-0.1977,-0.1977,-0.1977,-0.1977,-0.1977,-0.1977,-0.1977,-0.1977,-0.1977,-0.1977,-0.1977,-0.1977,-0.1853,-0.1359,-0.1359,-0.1606,-0.1853,-0.1977,-0.173,-0.1606,-0.173,-0.1977,-0.1978,-0.1978,-0.1994,-0.1895,-0.1654,-0.1805,-0.2082,-0.1429,-0.0904,-0.0,-0.0,-0.0,-0.0,-0.0,-0.0,-0.0,-0.0,-0.0,-0.0,-0.0,-0.0,-0.0,-0.0,-0.0,-0.5752,-0.767,-0.863,-0.8609,-0.8598,-0.8576,-0.8573,-0.8573,-0.8527,-0.8481,-0.8462,-0.8443,-0.8421,-0.8394,-0.8304,-0.8204,-0.8157,-0.8049,-0.7943,-0.7975,-0.8035,-0.8054,-0.807,-0.8051,-0.8013,-0.7992,-0.7992,-0.7932,-0.7883,-0.7891,-0.7891,-0.7877,-0.7872,-0.7872,-0.7886,-0.7905,-0.7932,-0.7964,-0.7975,-0.1977,-0.1977,-0.1977,-0.1977,-0.1977,-0.1977,-0.1977,-0.1977,-0.1977,-0.173,-0.1235,-0.0741,-0.0494,-0.0371,-0.0,-0.0,-0.0,-0.0,-0.0,-0.0,-0.0,-0.0,-0.0741,-0.1359,-0.1606,-0.1483,-0.173,-0.1977,-0.1977,-0.1977,-0.1977,-0.1977,-0.1977,-0.1977,-0.1977,-0.1977,-0.1977,-0.1977,-0.1977,-0.1977,-0.1977,-0.1977,-0.1853,-0.1482,-0.1482,-0.1235,-0.1359,-0.1235,-0.1112,-0.1112,-0.1359,-0.1853,-0.1856,-0.1863,-0.1879,-0.165,-0.1545,-0.1568,-0.1975,-0.1581,-0.1044,-0.0,-0.0,-0.0,-0.0,-0.0,-0.0,-0.0,-0.0,-0.0,-0.0,-0.0,-0.0,-0.0,-0.0,-0.5758,-0.6156,-0.7386,-0.82,-0.8603,-0.8598,-0.859,-0.859,-0.859,-0.8571,-0.8535,-0.853,-0.8522,-0.8522,-0.8492,-0.8448,-0.8342,-0.8244,-0.8111,-0.7978,-0.8057,-0.8122,-0.8095,-0.8122,-0.8176,-0.8157,-0.8125,-0.8095,-0.8068,-0.8016,-0.7951,-0.7918,-0.791,-0.7891,-0.7872,-0.7886,-0.7899,-0.7983,-0.8021,-0.8068,-0.1977,-0.1977,-0.1977,-0.1977,-0.1977,-0.1977,-0.1977,-0.1977,-0.1977,-0.1977,-0.1853,-0.173,-0.1483,-0.0988,-0.0494,-0.0,-0.0,-0.0,-0.0,-0.0,-0.0,-0.0,-0.1482,-0.1977,-0.1977,-0.1977,-0.1977,-0.1977,-0.1977,-0.1977,-0.1977,-0.1977,-0.1977,-0.1977,-0.1977,-0.1977,-0.1977,-0.1977,-0.1977,-0.1977,-0.1853,-0.1853,-0.1606,-0.173,-0.1483,-0.1112,-0.0988,-0.0494,-0.0,-0.0,-0.0,-0.1484,-0.1488,-0.1754,-0.1775,-0.1159,-0.1697,-0.1986,-0.2012,-0.0806,-0.0,-0.0,-0.0,-0.0,-0.0,-0.0,-0.0,-0.0,-0.0,-0.0,-0.0,-0.0,-0.0,-0.0,-0.0,-0.6577,-0.6976,-0.7379,-0.8197,-0.8603,-0.8595,-0.8587,-0.859,-0.859,-0.8456,-0.8448,-0.8584,-0.8587,-0.8587,-0.8565,-0.8519,-0.841,-0.8291,-0.816,-0.806,-0.8155,-0.8201,-0.8168,-0.8195,-0.8277,-0.8272,-0.8214,-0.8195,-0.8187,-0.8076,-0.7943,-0.7937,-0.7948,-0.7926,-0.7905,-0.7877,-0.7902,-0.7994,-0.8084,-0.8141,-0.1977,-0.1977,-0.1977,-0.1977,-0.1977,-0.1977,-0.1977,-0.1977,-0.1977,-0.1977,-0.1977,-0.1977,-0.1977,-0.1606,-0.1359,-0.0988,-0.0618,-0.0,-0.0,-0.0,-0.0741,-0.1482,-0.1977,-0.1977,-0.1977,-0.1977,-0.1977,-0.1977,-0.1977,-0.1977,-0.1977,-0.1977,-0.1977,-0.1977,-0.1977,-0.1977,-0.1977,-0.1977,-0.1977,-0.1853,-0.1483,-0.1112,-0.0989,-0.136,-0.0989,-0.0989,-0.0988,-0.0494,-0.0,-0.0,-0.0,-0.087,-0.1126,-0.1645,-0.1663,-0.13,-0.1582,-0.1592,-0.1072,-0.0,-0.0,-0.0,-0.0,-0.0,-0.0,-0.0,-0.0,-0.0,-0.0,-0.0,-0.0,-0.0,-0.0,-0.0,-0.8223,-0.7397,-0.739,-0.8066,-0.8609,-0.86,-0.8592,-0.8606,-0.8611,-0.7789,-0.765,-0.8325,-0.8595,-0.859,-0.8587,-0.8576,-0.8541,-0.8426,-0.831,-0.819,-0.8141,-0.8225,-0.8263,-0.8236,-0.8318,-0.844,-0.8402,-0.832,-0.8242,-0.8209,-0.8062,-0.7929,-0.7962,-0.7986,-0.7967,-0.7943,-0.7945,-0.7992,-0.81,-0.8182,-0.8236,-0.1961,-0.1962,-0.1972,-0.1977,-0.1977,-0.1977,-0.1977,-0.1977,-0.1977,-0.1977,-0.1977,-0.1977,-0.1977,-0.1977,-0.1977,-0.1853,-0.1235,-0.0,-0.0,-0.0618,-0.1482,-0.1853,-0.1977,-0.1977,-0.1977,-0.1977,-0.1977,-0.1977,-0.1977,-0.1977,-0.1977,-0.1977,-0.1977,-0.1977,-0.1977,-0.1977,-0.1977,-0.1977,-0.1977,-0.1853,-0.1608,-0.1239,-0.0869,-0.0992,-0.0992,-0.0994,-0.1237,-0.0865,-0.0,-0.0,-0.0,-0.0,-0.0,-0.1411,-0.1682,-0.1706,-0.1194,-0.0933,-0.0269,-0.0,-0.0,-0.0,-0.0,-0.0,-0.0,-0.0,-0.0,-0.0,-0.066,-0.0,-0.0,-0.1748,-0.4574,-0.8097,-0.8633,-0.7804,-0.7932,-0.8475,-0.8609,-0.86,-0.8606,-0.8619,-0.836,-0.7395,-0.6711,-0.7655,-0.8603,-0.8595,-0.8587,-0.8579,-0.8568,-0.8478,-0.8386,-0.8293,-0.8253,-0.8288,-0.831,-0.8299,-0.8407,-0.8538,-0.8524,-0.8443,-0.8334,-0.8247,-0.8195,-0.8136,-0.8046,-0.8027,-0.8057,-0.807,-0.807,-0.8133,-0.8223,-0.8263,-0.8299,-0.193,-0.1935,-0.1963,-0.1975,-0.1976,-0.1977,-0.1977,-0.1977,-0.1977,-0.1977,-0.1977,-0.1977,-0.1977,-0.1977,-0.1977,-0.1977,-0.1853,-0.1853,-0.1483,-0.1235,-0.173,-0.1977,-0.1977,-0.1977,-0.1977,-0.1977,-0.1977,-0.1977,-0.1977,-0.1977,-0.1977,-0.1977,-0.1977,-0.1977,-0.1977,-0.1977,-0.1977,-0.1977,-0.1977,-0.198,-0.1739,-0.1878,-0.15,-0.1373,-0.15,-0.1496,-0.1489,-0.1112,-0.0623,-0.0,-0.0,-0.0,-0.0,-0.0,-0.1709,-0.1589,-0.0669,-0.0,-0.0,-0.0,-0.0,-0.0,-0.0,-0.0,-0.0,-0.0,-0.0,-0.1593,-0.2008,-0.1475,-0.1211,-0.3363,-0.5655,-0.7275,-0.8352,-0.8344,-0.8472,-0.8606,-0.8606,-0.8606,-0.8617,-0.8494,-0.8233,-0.7275,-0.6311,-0.766,-0.8603,-0.8592,-0.8587,-0.8587,-0.8576,-0.8562,-0.8478,-0.8418,-0.8394,-0.8367,-0.8361,-0.8356,-0.8462,-0.8571,-0.8562,-0.8538,-0.8435,-0.8369,-0.8397,-0.8345,-0.8225,-0.8185,-0.8201,-0.8204,-0.819,-0.8212,-0.8282,-0.8288,-0.8334,-0.1912,-0.1932,-0.1941,-0.1956,-0.1975,-0.1977,-0.1977,-0.1977,-0.1977,-0.1977,-0.1977,-0.1977,-0.1977,-0.1977,-0.1977,-0.1977,-0.1977,-0.1977,-0.1853,-0.1853,-0.1853,-0.1977,-0.1977,-0.1977,-0.1977,-0.1977,-0.1977,-0.1977,-0.1977,-0.1977,-0.1977,-0.1977,-0.1977,-0.1977,-0.1977,-0.1977,-0.1977,-0.1978,-0.1979,-0.1987,-0.1999,-0.2015,-0.1759,-0.1883,-0.1886,-0.1752,-0.1736,-0.1606,-0.1121,-0.0,-0.0,-0.0,-0.0,-0.0395,-0.0528,-0.0535,-0.0,-0.0,-0.0,-0.0,-0.0,-0.0,-0.0,-0.0,-0.0,-0.1467,-0.1461,-0.2009,-0.323,-0.2826,-0.3228,-0.5112,-0.673,-0.7806,-0.8478,-0.8333,-0.8464,-0.86,-0.8603,-0.8349,-0.8357,-0.7821,-0.756,-0.7004,-0.6313,-0.7796,-0.8603,-0.8592,-0.8587,-0.8587,-0.8584,-0.8573,-0.8538,-0.8467,-0.8435,-0.841,-0.841,-0.8426,-0.8524,-0.8584,-0.8568,-0.8538,-0.8492,-0.8459,-0.844,-0.8416,-0.8369,-0.8345,-0.8323,-0.8312,-0.8301,-0.8315,-0.8331,-0.8342,-0.838,-0.1878,-0.1898,-0.1922,-0.2071,-0.1974,-0.1977,-0.1977,-0.1977,-0.1977,-0.1977,-0.1977,-0.1977,-0.1977,-0.1977,-0.1977,-0.1977,-0.1977,-0.1977,-0.1977,-0.1977,-0.1977,-0.1977,-0.1977,-0.1977,-0.1977,-0.1977,-0.1977,-0.1977,-0.1977,-0.1977,-0.1977,-0.1977,-0.1977,-0.1977,-0.1977,-0.1977,-0.1977,-0.1981,-0.1987,-0.1995,-0.2006,-0.2021,-0.2024,-0.2009,-0.2014,-0.2003,-0.1982,-0.1977,-0.1499,-0.0634,-0.0509,-0.0258,-0.0,-0.0,-0.0,-0.0,-0.0,-0.0,-0.0,-0.0,-0.0,-0.0,-0.0,-0.0,-0.1334,-0.1731,-0.1735,-0.2146,-0.3629,-0.4711,-0.5653,-0.6596,-0.767,-0.8745,-0.8467,-0.8187,-0.8323,-0.8595,-0.8475,-0.822,-0.7687,-0.7015,-0.647,-0.5919,-0.6315,-0.7799,-0.8603,-0.8592,-0.8587,-0.8587,-0.8587,-0.8581,-0.8549,-0.8503,-0.8481,-0.847,-0.8481,-0.8494,-0.8538,-0.8579,-0.8571,-0.856,-0.8535,-0.8492,-0.8451,-0.8446,-0.8462,-0.8443,-0.8424,-0.8416,-0.8418,-0.844,-0.8435,-0.8407,-0.8462,-0.1838,-0.1848,-0.1906,-0.1946,-0.1971,-0.1975,-0.1977,-0.1977,-0.1977,-0.1977,-0.1977,-0.1977,-0.1977,-0.1977,-0.1977,-0.1977,-0.1977,-0.1977,-0.1977,-0.1977,-0.1977,-0.1977,-0.1977,-0.1977,-0.1977,-0.1977,-0.1977,-0.1977,-0.1977,-0.1977,-0.1977,-0.1977,-0.1977,-0.1977,-0.1977,-0.1977,-0.1977,-0.1979,-0.1995,-0.2009,-0.2005,-0.2021,-0.2037,-0.1999,-0.2001,-0.2006,-0.1986,-0.1988,-0.188,-0.1532,-0.1297,-0.0786,-0.0,-0.0,-0.0,-0.0,-0.0,-0.0,-0.0,-0.0,-0.0,-0.0,-0.0,-0.0,-0.1206,-0.1869,-0.2009,-0.2282,-0.3498,-0.4577,-0.5518,-0.7,-0.8347,-0.875,-0.8475,-0.8336,-0.847,-0.8614,-0.8494,-0.8099,-0.715,-0.661,-0.6466,-0.6051,-0.7152,-0.8357,-0.8633,-0.8625,-0.8655,-0.8655,-0.8619,-0.8617,-0.8573,-0.8552,-0.8549,-0.8543,-0.856,-0.8579,-0.8584,-0.8584,-0.8579,-0.8581,-0.8587,-0.8543,-0.8505,-0.8541,-0.8554,-0.8524,-0.8511,-0.8527,-0.8538,-0.8565,-0.8546,-0.8492,-0.8505,-0.1819,-0.1846,-0.1906,-0.1936,-0.1945,-0.1967,-0.1976,-0.1977,-0.1977,-0.1976,-0.1977,-0.1977,-0.1977,-0.1977,-0.1977,-0.1977,-0.1977,-0.1977,-0.1977,-0.1977,-0.1977,-0.1977,-0.1977,-0.1977,-0.1977,-0.1977,-0.1977,-0.1977,-0.1977,-0.1977,-0.1977,-0.1977,-0.1977,-0.1977,-0.1977,-0.1977,-0.1977,-0.1979,-0.1996,-0.201,-0.2009,-0.2012,-0.2018,-0.2007,-0.2014,-0.2001,-0.199,-0.1999,-0.1899,-0.1801,-0.1956,-0.1191,-0.0,-0.0,-0.0,-0.0,-0.0,-0.0,-0.0,-0.0,-0.0,-0.0,-0.0,-0.0,-0.1076,-0.1744,-0.228,-0.2689,-0.323,-0.4174,-0.5386,-0.7136,-0.8349,-0.8349,-0.8349,-0.8349,-0.8483,-0.8638,-0.8655,-0.7432,-0.6482,-0.6621,-0.6478,-0.7018,-0.8257,-0.8693,-0.8723,-0.875,-0.8818,-0.8831,-0.8723,-0.8693,-0.8619,-0.8595,-0.8603,-0.8606,-0.8614,-0.8595,-0.8587,-0.8587,-0.8587,-0.8587,-0.8587,-0.8587,-0.8579,-0.8587,-0.8587,-0.8579,-0.8576,-0.8587,-0.8587,-0.8587,-0.8587,-0.8546,-0.8557,-0.1805,-0.1826,-0.187,-0.1899,-0.1913,-0.193,-0.1944,-0.1955,-0.1956,-0.1964,-0.1976,-0.1977,-0.1977,-0.1977,-0.1977,-0.1977,-0.1977,-0.1977,-0.1977,-0.1977,-0.1977,-0.1977,-0.1977,-0.1977,-0.1977,-0.1977,-0.1977,-0.1977,-0.1977,-0.1977,-0.1977,-0.1977,-0.1977,-0.1977,-0.1977,-0.1977,-0.1977,-0.1978,-0.1995,-0.2,-0.2004,-0.2009,-0.2008,-0.2007,-0.1996,-0.1988,-0.1994,-0.2004,-0.2033,-0.2069,-0.2104,-0.1996,-0.121,-0.0,-0.0,-0.0,-0.0,-0.0,-0.0,-0.0,-0.0,-0.0,-0.0808,-0.1346,-0.1077,-0.1747,-0.215,-0.2424,-0.2558,-0.3366,-0.4308,-0.5921,-0.6185,-0.6182,-0.6453,-0.6587,-0.7706,-0.8571,-0.6535,-0.3542,-0.4652,-0.8013,-0.7849,-0.7784,-0.8769,-0.8804,-0.8829,-0.8829,-0.8905,-0.8997,-0.8889,-0.8815,-0.8769,-0.8701,-0.869,-0.8677,-0.8658,-0.8633,-0.859,-0.8587,-0.8587,-0.8587,-0.8587,-0.8587,-0.8587,-0.8587,-0.8587,-0.8587,-0.8587,-0.8587,-0.8587,-0.8587,-0.8587,-0.8587,-0.8587,-0.1795,-0.18,-0.1829,-0.1855,-0.1879,-0.1886,-0.1902,-0.1924,-0.193,-0.1943,-0.1959,-0.1965,-0.1972,-0.1977,-0.1977,-0.1977,-0.1977,-0.1977,-0.1977,-0.1977,-0.1977,-0.1977,-0.1977,-0.1977,-0.1977,-0.1977,-0.1977,-0.1977,-0.1977,-0.1977,-0.1977,-0.1977,-0.1977,-0.1977,-0.1977,-0.1977,-0.1977,-0.1977,-0.1982,-0.1979,-0.1988,-0.1999,-0.1994,-0.1985,-0.1977,-0.1978,-0.1989,-0.201,-0.2039,-0.2077,-0.212,-0.2008,-0.1884,-0.1751,-0.1885,-0.1616,-0.0,-0.0,-0.0,-0.0,-0.0,-0.0,-0.0,-0.1885,-0.1481,-0.1616,-0.202,-0.2289,-0.2289,-0.2692,-0.3635,-0.3767,-0.3897,-0.0,-0.0,-0.0,-0.0,-0.0,-0.4387,-0.0962,-0.4435,-0.841,-0.8943,-0.8867,-0.8859,-0.8899,-0.8921,-0.8924,-0.8954,-0.9054,-0.906,-0.9024,-0.9005,-0.8929,-0.8802,-0.8745,-0.8712,-0.863,-0.8587,-0.8587,-0.8587,-0.8587,-0.8587,-0.8587,-0.8587,-0.8587,-0.8587,-0.8587,-0.8587,-0.8587,-0.8587,-0.8587,-0.8587,-0.8587,-0.8587,-0.1795,-0.1798,-0.1828,-0.1844,-0.1853,-0.1875,-0.1889,-0.1898,-0.1922,-0.1923,-0.1921,-0.1934,-0.1951,-0.1977,-0.1977,-0.1977,-0.1977,-0.1977,-0.1977,-0.1977,-0.1977,-0.1977,-0.1977,-0.1977,-0.1977,-0.1977,-0.1977,-0.1977,-0.1977,-0.1977,-0.1977,-0.1977,-0.1977,-0.1977,-0.1977,-0.1977,-0.1977,-0.1977,-0.1977,-0.1977,-0.1977,-0.1983,-0.1981,-0.1977,-0.1977,-0.1991,-0.2011,-0.2039,-0.2069,-0.2102,-0.2131,-0.2014,-0.1883,-0.2018,-0.2155,-0.2155,-0.1616,-0.1077,-0.0,-0.0,-0.0,-0.0,-0.1212,-0.2155,-0.1885,-0.1885,-0.2155,-0.2155,-0.2289,-0.2289,-0.2693,-0.1615,-0.0,-0.0,-0.0,-0.0,-0.0,-0.0,-0.2621,-0.3187,-0.5858,-0.8146,-0.9011,-0.8943,-0.8891,-0.8932,-0.897,-0.8984,-0.9076,-0.915,-0.9209,-0.9196,-0.9185,-0.9019,-0.8837,-0.8799,-0.8755,-0.866,-0.8587,-0.8587,-0.8587,-0.8587,-0.8587,-0.8587,-0.8587,-0.8587,-0.8587,-0.8587,-0.8587,-0.8587,-0.8587,-0.8587,-0.8587,-0.8587,-0.8587]},{"header":{"parameterUnit":"m.s-1","parameterCategory":1,"la1":31.0,"la2":29.5877,"lo1":-88.7671,"lo2":-86.6584,"dy":0.0162,"dx":0.0185,"nx":115,"ny":88,"refTime":"2023-04-13T12:00:00:Z","depth":0,"parameterNumber":3,"parameterNumberName":"V-component_of_WINDS"},"data":[0.0,0.0,0.0,0.0,0.0,0.0,0.0,0.0,0.0,0.0,0.0,0.0,0.0,0.0,0.0,0.0,0.0,0.0,0.0,0.0,0.0,0.0,0.0,0.0,0.0,0.0,0.0,0.0,0.0,0.0,0.0,0.0,0.0,0.0,0.0,0.0,0.0,0.0,0.0,0.0,0.0,0.0,0.0,0.0,0.0,0.0,0.0,0.0,0.0,0.0,0.0,0.0,0.0,0.0,0.0,0.0,0.0,0.0,0.0,0.0,0.0,0.0,0.0,0.0,0.0,0.0,0.0,0.0,0.0,0.0,0.0,0.0,0.0,0.0,0.0,0.0,0.0,0.0,0.0,0.0,0.0,0.0,0.0,0.0,0.0,0.0,0.0,0.0,0.0,0.0,0.0,0.0,0.0,0.0,0.0,0.0,0.0,0.0,0.0,0.0,0.0,0.0,0.0,0.0,0.0,0.0,0.0,0.0,0.0,0.0,0.0,0.0,0.0,0.0,0.0,0.0,0.0,0.0,0.0,0.0,0.0,0.0,0.0,0.0,0.0,0.0,0.0,0.0,0.0,0.0,0.0,0.0,0.0,0.0,0.0,0.0,0.0,0.0,0.0,0.0,0.0,0.0,0.0,0.0,0.0,0.0,0.0,0.0,0.0,0.0,0.0,0.0,0.0,0.0,0.0,0.0,0.0,0.0,0.0,0.0,0.0,0.0,0.0,0.0,0.0,0.0,0.0,0.0,0.0,0.0,0.0,0.0,0.0,0.0,0.0,0.0,0.0,0.0,0.0,0.0,0.0,0.0,0.0,0.0,0.0,0.0,0.0,0.0,0.0,0.0,0.0,0.0,0.0,0.0,0.0,0.0,0.0,0.0,0.0,0.0,0.0,0.0,0.0,0.0,0.0,0.0,0.0,0.0,0.0,0.0,0.0,0.0,0.0,0.0,0.0,0.0,0.0,0.0,0.0,0.0,0.0,0.0,0.0,0.0,0.0,0.0,0.0,0.0,0.0,0.0,0.0,0.0,0.0,0.0,0.0,0.0,0.0,0.0,0.0,0.0,0.0,0.0,0.0,0.0,0.0,0.0,0.0,0.0,0.0,0.0,0.0,0.0,0.0,0.0,0.0,0.0,0.0,0.0,0.0,0.0,0.0,0.0,0.0,0.0,0.0,0.0,0.0,0.0,0.0,0.0,0.0,0.0,0.0,0.0,0.0,0.0,0.0,0.0,0.0,0.0,0.0,0.0,0.0,0.0,0.0,0.0,0.0,0.0,0.0,0.0,0.0,0.0,0.0,0.0,0.0,0.0,0.0,0.0,0.0,0.0,0.0,0.0,0.0,0.0,0.0,0.0,0.0,0.0,0.0,0.0,0.0,0.0,0.0,0.0,0.0,0.0,0.0,0.0,0.0,0.0,0.0,0.0,0.0,0.0,0.0,0.0,0.0,0.0,0.0,0.0,0.0,0.0,0.0,0.0,0.0,0.0,0.0,0.0,0.0,0.0,0.0,0.0,0.0,0.0,0.0,0.0,0.0,0.0,0.0,0.0,0.0,0.0,0.0,0.0,0.0,0.0,0.0,0.0,0.0,0.0,0.0,0.0,0.0,0.0,0.0,0.0,0.0,0.0,0.0,0.0,0.0,0.0,0.0,0.0,0.0,0.0,0.0,0.0,0.0,0.0,0.0,0.0,0.0,0.0,0.0,0.0,0.0,0.0,0.0,0.0,0.0,0.0,0.0,0.0,0.0,0.0,0.0,0.0,0.0,0.0,0.0,0.0,0.0,0.0,0.0,0.0,0.0,0.0,0.0,0.0,0.0,0.0,0.0,0.0,0.0,0.0,0.0,0.0,0.0,0.0,0.0,0.0,0.0,0.0,0.0,0.0,0.0,0.0,0.0,0.0,0.0,0.0,0.0,0.0,0.0,0.0,0.0,0.0,0.0,0.0,0.0,0.0,0.0,0.0,0.0,0.0,0.0,0.0,0.0,0.0,0.0,0.0,0.0,0.0,0.0,0.0,0.0,0.0,0.0,0.0,0.0,0.0,0.0,0.0,0.0,0.0,0.0,0.0,0.0,0.0,0.0,0.0,0.0,0.0,0.0,0.0,0.0,0.0,0.0,0.0,0.0,0.0,0.0,0.0,0.0,0.0,0.0,0.0,0.0,0.0,0.0,0.0,0.0,0.0,0.0,0.0,0.0,0.0,0.0,0.0,0.0,0.0,0.0,0.0,0.0,0.0,0.0,0.0,0.0,0.0,0.0,0.0,0.0,0.0,0.0,0.0,0.0,0.0,0.0,0.0,0.0,0.0,0.0,0.0,0.0,0.0,0.0,0.0,0.0,0.0,0.0,0.0,0.0,0.0,0.0,0.0,0.0,0.0,0.0,0.0,0.0,0.0,0.0,0.0,0.0,0.0,0.0,0.0,0.0,0.0,0.0,0.0,0.0,0.0,0.0,0.0,0.0,0.0,0.0,0.0,0.0,0.0,0.0,0.0,0.0,0.0,0.0,0.0,0.0,0.0,0.0,0.0,0.0,0.0,0.0,0.0,0.0,0.0,0.0,0.0,0.0,0.0,0.0,0.0,0.0,0.0,0.0,0.0,0.0,0.0,0.0,0.0,0.0,0.0,0.0,0.0,0.0,0.0,0.0,0.0,0.0,0.0,0.0,0.0,0.0,0.0,0.0,0.0,0.0,0.0,0.0,0.0,0.0,0.0,0.0,0.0,0.0,0.0,0.0,0.0,0.0,0.0,0.0,0.0,0.0,0.0,0.0,0.0,0.0,0.0,0.0,0.0,0.0,0.0,0.0,0.0,0.0,0.0,0.0,0.0,0.0,0.0,0.0,0.0,0.0,0.0,0.0,0.0,0.0,0.0,0.0,0.0,0.0,0.0,0.0,0.0,0.0,0.0,0.0,0.0,0.0,0.0,0.0,0.0,0.0,0.0,0.0,0.0,0.0,0.0,0.0,0.0,0.0,0.0,0.0,0.0,0.0,0.0,0.0,0.0,0.0,0.0,0.0,0.0,0.0,0.0,0.0,0.0,0.0,0.0,0.0,0.0,0.0,0.0,0.0,0.0,0.0,0.0,0.0,0.0,0.0,0.0,0.0,0.0,0.0,0.0,0.0,0.0,0.0,0.0,0.0,0.0,0.0,0.0,0.0,0.0,0.0,0.0,0.0,0.0,0.0,0.0,0.0,0.0,0.0,0.0,0.0,0.0,0.0,0.0,0.0,0.0,0.0,0.0,0.0,0.0,0.0,0.0,0.0,0.0,0.0,0.0,0.0,0.0,0.0,0.0,0.0,0.0,0.0,0.0,0.0,0.0,0.0,0.0,0.0,0.0,0.0,0.0,0.0,0.0,0.0,0.0,0.0,0.0,0.0,0.0,0.0,0.0,0.0,0.0,0.0,0.0,0.0,0.0,0.0,0.0,0.0,0.0,0.0,0.0,0.0,0.0,0.0,0.0,0.0,0.0,0.0,0.0,0.0,0.0,0.0,0.0,0.0,0.0,0.0,0.0,0.0,0.0,0.0,0.0,0.0,0.0,0.0,0.0,0.0,0.0,0.0,0.0,0.0,0.0,0.0,0.0,0.0,0.0,0.0,0.0,0.0,0.0,0.0,0.0,0.0,0.0,0.0,0.0,0.0,0.0,0.0,0.0,0.0,0.0,0.0,0.0,0.0,0.0,0.0,0.0,0.0,0.0,0.0,0.0,0.0,0.0,0.0,0.0,0.0,0.0,0.0,0.0,0.0,0.0,0.0,0.0,0.0,0.0,0.0,0.0,0.0,0.0,0.0,0.0,0.0,0.0,0.0,0.0,0.0,0.0,0.0,0.0,0.0,0.0,0.0,0.0,0.0,0.0,0.0,0.0,0.0,0.0,0.0,0.0,0.0,0.0,0.0,0.0,0.0,0.0,0.0,0.0,0.0,0.0,0.0,0.0,0.0,0.0,0.0,0.0,0.0,0.0,0.0,0.0,0.0,0.0,0.0,0.0,0.0,0.0,0.0,0.0,0.0,0.0,0.0,0.0,0.0,0.0,0.0,0.0,0.0,0.0,0.0,0.0,0.0,0.0,0.0,0.0,0.0,0.0,0.0,0.0,0.0,0.0,0.0,0.0,0.0,0.0,0.0,0.0,0.0,0.0,0.0,0.0,0.0,0.0,0.0,0.0,0.0,0.0,0.0,0.0,0.0,0.0,0.0,0.0,0.0,0.0,0.0,0.0,0.0,0.0,0.0,0.0,0.0,0.0,0.0,0.0,0.0,0.0,-2.1764,0.0,0.0,0.0,0.0,0.0,0.0,0.0,0.0,0.0,0.0,0.0,0.0,0.0,0.0,0.0,0.0,0.0,0.0,0.0,0.0,0.0,0.0,0.0,0.0,0.0,0.0,0.0,0.0,0.0,0.0,0.0,0.0,0.0,0.0,0.0,0.0,0.0,0.0,0.0,0.0,0.0,0.0,0.0,0.0,0.0,0.0,0.0,0.0,0.0,0.0,0.0,0.0,0.0,0.0,0.0,0.0,0.0,0.0,0.0,0.0,0.0,0.0,0.0,0.0,0.0,0.0,0.0,0.0,0.0,0.0,0.0,0.0,0.0,0.0,0.0,0.0,0.0,0.0,0.0,0.0,0.0,0.0,0.0,0.0,0.0,0.0,0.0,0.0,0.0,0.0,0.0,0.0,0.0,0.0,0.0,0.0,0.0,0.0,0.0,0.0,0.0,0.0,0.0,0.0,0.0,0.0,0.0,0.0,0.0,0.0,-2.1911,-2.1969,-2.1969,-2.2027,-2.2192,0.0,0.0,0.0,0.0,0.0,0.0,0.0,0.0,0.0,0.0,0.0,0.0,0.0,0.0,0.0,0.0,0.0,0.0,0.0,0.0,0.0,0.0,0.0,0.0,0.0,0.0,0.0,0.0,0.0,0.0,0.0,0.0,0.0,0.0,0.0,0.0,0.0,0.0,0.0,0.0,0.0,0.0,0.0,0.0,0.0,0.0,0.0,0.0,0.0,0.0,0.0,0.0,0.0,0.0,0.0,0.0,0.0,0.0,0.0,0.0,0.0,0.0,0.0,0.0,0.0,0.0,0.0,0.0,0.0,0.0,0.0,0.0,0.0,0.0,0.0,0.0,0.0,0.0,0.0,0.0,0.0,0.0,0.0,0.0,0.0,0.0,0.0,0.0,0.0,0.0,0.0,0.0,0.0,0.0,0.0,0.0,0.0,0.0,0.0,0.0,0.0,0.0,0.0,0.0,0.0,0.0,0.0,0.0,0.0,0.0,0.0,0.0,-2.2226,-2.2326,-2.2525,0.0,0.0,0.0,0.0,0.0,0.0,0.0,0.0,0.0,0.0,0.0,0.0,0.0,0.0,0.0,0.0,0.0,0.0,0.0,0.0,0.0,0.0,0.0,0.0,0.0,0.0,0.0,0.0,0.0,0.0,0.0,0.0,0.0,0.0,0.0,0.0,0.0,0.0,0.0,0.0,0.0,0.0,0.0,0.0,0.0,0.0,0.0,0.0,0.0,0.0,0.0,0.0,0.0,0.0,0.0,0.0,0.0,0.0,0.0,0.0,0.0,0.0,0.0,0.0,0.0,0.0,0.0,0.0,0.0,0.0,0.0,0.0,0.0,0.0,0.0,0.0,0.0,0.0,0.0,0.0,0.0,0.0,0.0,0.0,0.0,0.0,0.0,0.0,0.0,0.0,0.0,0.0,0.0,0.0,0.0,0.0,0.0,0.0,0.0,0.0,0.0,0.0,0.0,0.0,0.0,0.0,0.0,0.0,0.0,0.0,-2.2552,-2.2552,-2.2615,0.0,-2.2944,0.0,0.0,0.0,0.0,0.0,0.0,0.0,0.0,0.0,0.0,0.0,0.0,0.0,0.0,0.0,0.0,0.0,0.0,0.0,0.0,0.0,0.0,0.0,0.0,0.0,0.0,0.0,0.0,0.0,0.0,0.0,0.0,0.0,0.0,0.0,0.0,0.0,0.0,0.0,0.0,0.0,0.0,0.0,0.0,0.0,0.0,0.0,0.0,0.0,0.0,0.0,0.0,0.0,0.0,0.0,0.0,0.0,0.0,0.0,0.0,0.0,0.0,0.0,0.0,0.0,0.0,0.0,0.0,0.0,0.0,0.0,0.0,0.0,0.0,0.0,0.0,0.0,0.0,0.0,0.0,0.0,0.0,0.0,0.0,0.0,0.0,0.0,0.0,0.0,0.0,0.0,0.0,0.0,0.0,0.0,0.0,0.0,0.0,0.0,0.0,0.0,0.0,0.0,0.0,0.0,0.0,0.0,0.0,0.0,0.0,-2.2842,-2.2825,-2.2995,-2.3144,0.0,0.0,0.0,0.0,0.0,0.0,0.0,0.0,0.0,0.0,0.0,0.0,0.0,0.0,0.0,0.0,0.0,0.0,0.0,0.0,0.0,0.0,0.0,0.0,0.0,0.0,0.0,0.0,0.0,0.0,0.0,0.0,0.0,0.0,0.0,0.0,0.0,0.0,0.0,0.0,0.0,0.0,0.0,0.0,0.0,0.0,0.0,0.0,0.0,0.0,0.0,0.0,0.0,0.0,0.0,0.0,0.0,0.0,0.0,0.0,0.0,0.0,0.0,0.0,0.0,0.0,0.0,0.0,0.0,0.0,0.0,0.0,0.0,0.0,0.0,0.0,0.0,0.0,0.0,0.0,0.0,0.0,0.0,0.0,0.0,0.0,0.0,0.0,0.0,0.0,0.0,0.0,0.0,0.0,0.0,0.0,0.0,0.0,0.0,0.0,0.0,0.0,0.0,0.0,0.0,0.0,0.0,0.0,0.0,0.0,-2.3095,-2.3144,-2.3175,-2.3313,-2.343,-2.3567,0.0,0.0,0.0,0.0,0.0,0.0,0.0,0.0,0.0,0.0,0.0,0.0,0.0,0.0,0.0,0.0,0.0,0.0,0.0,0.0,0.0,0.0,0.0,0.0,0.0,0.0,0.0,0.0,0.0,0.0,0.0,0.0,0.0,0.0,0.0,0.0,0.0,0.0,0.0,0.0,0.0,0.0,0.0,0.0,0.0,0.0,0.0,0.0,0.0,0.0,0.0,0.0,0.0,0.0,0.0,0.0,0.0,0.0,0.0,0.0,0.0,0.0,0.0,0.0,0.0,0.0,0.0,0.0,0.0,0.0,0.0,0.0,0.0,0.0,0.0,0.0,0.0,0.0,0.0,0.0,0.0,0.0,0.0,0.0,0.0,0.0,0.0,0.0,0.0,0.0,0.0,0.0,0.0,0.0,0.0,0.0,0.0,0.0,0.0,0.0,0.0,0.0,0.0,0.0,0.0,0.0,0.0,0.0,-2.3102,-2.3289,-2.3453,-2.3567,-2.3585,-2.3634,0.0,0.0,0.0,0.0,0.0,0.0,0.0,0.0,0.0,0.0,0.0,0.0,0.0,0.0,0.0,0.0,0.0,0.0,0.0,0.0,0.0,0.0,0.0,0.0,0.0,0.0,0.0,0.0,0.0,0.0,0.0,0.0,0.0,0.0,0.0,0.0,0.0,0.0,0.0,0.0,0.0,0.0,0.0,0.0,0.0,0.0,0.0,0.0,0.0,0.0,0.0,0.0,0.0,0.0,0.0,0.0,0.0,0.0,0.0,0.0,0.0,0.0,0.0,0.0,0.0,0.0,0.0,0.0,0.0,0.0,0.0,0.0,0.0,0.0,0.0,0.0,0.0,0.0,0.0,0.0,0.0,0.0,0.0,0.0,0.0,0.0,0.0,0.0,0.0,0.0,0.0,0.0,0.0,0.0,0.0,0.0,0.0,0.0,0.0,0.0,0.0,0.0,0.0,0.0,0.0,0.0,0.0,0.0,0.0,-2.3289,-2.3517,-2.3638,-2.3771,-2.3771,-2.3813,0.0,0.0,0.0,0.0,0.0,0.0,0.0,0.0,0.0,0.0,0.0,0.0,0.0,0.0,0.0,0.0,0.0,0.0,0.0,0.0,0.0,0.0,0.0,0.0,0.0,0.0,0.0,0.0,0.0,0.0,0.0,0.0,0.0,0.0,0.0,0.0,0.0,0.0,0.0,0.0,0.0,0.0,0.0,0.0,0.0,0.0,0.0,0.0,0.0,0.0,0.0,0.0,0.0,0.0,0.0,0.0,0.0,0.0,0.0,0.0,0.0,0.0,0.0,0.0,0.0,0.0,0.0,0.0,0.0,0.0,0.0,0.0,0.0,0.0,0.0,0.0,0.0,0.0,0.0,0.0,0.0,0.0,0.0,0.0,0.0,0.0,0.0,0.0,0.0,0.0,0.0,0.0,0.0,0.0,0.0,0.0,0.0,0.0,0.0,0.0,0.0,0.0,0.0,0.0,0.0,0.0,0.0,0.0,0.0,-2.3571,0.0,-2.3831,0.0,-2.3976,-2.3996,0.0,0.0,0.0,0.0,0.0,0.0,0.0,0.0,0.0,0.0,0.0,0.0,0.0,0.0,0.0,0.0,0.0,0.0,0.0,0.0,0.0,0.0,0.0,0.0,0.0,0.0,0.0,0.0,0.0,0.0,0.0,0.0,0.0,0.0,0.0,0.0,0.0,0.0,0.0,0.0,0.0,0.0,0.0,0.0,0.0,0.0,0.0,0.0,0.0,0.0,0.0,0.0,0.0,0.0,0.0,0.0,0.0,0.0,0.0,0.0,0.0,0.0,0.0,0.0,0.0,0.0,0.0,0.0,0.0,0.0,0.0,0.0,0.0,0.0,0.0,0.0,0.0,0.0,0.0,0.0,0.0,0.0,0.0,0.0,0.0,0.0,0.0,0.0,0.0,0.0,0.0,0.0,0.0,0.0,0.0,0.0,0.0,0.0,0.0,0.0,0.0,0.0,0.0,0.0,0.0,0.0,0.0,0.0,-2.3754,-2.3951,-2.3951,-2.4085,-2.4149,-2.4167,-2.4169,0.0,0.0,0.0,0.0,0.0,0.0,0.0,0.0,0.0,0.0,0.0,0.0,0.0,0.0,0.0,0.0,0.0,0.0,0.0,0.0,0.0,0.0,0.0,0.0,0.0,0.0,0.0,0.0,0.0,0.0,0.0,0.0,0.0,0.0,0.0,0.0,0.0,0.0,0.0,0.0,0.0,0.0,0.0,0.0,0.0,0.0,0.0,0.0,0.0,0.0,0.0,0.0,0.0,0.0,0.0,0.0,0.0,0.0,0.0,0.0,0.0,0.0,0.0,0.0,0.0,0.0,0.0,0.0,0.0,0.0,0.0,0.0,0.0,0.0,0.0,0.0,0.0,0.0,0.0,0.0,0.0,0.0,0.0,0.0,0.0,0.0,0.0,0.0,0.0,0.0,0.0,0.0,0.0,0.0,0.0,0.0,0.0,0.0,0.0,0.0,0.0,0.0,0.0,0.0,0.0,0.0,0.0,0.0,0.0,-2.568,-2.574,-2.5821,-2.5864,-2.5408,-2.5133,0.0,0.0,0.0,0.0,0.0,0.0,0.0,0.0,0.0,0.0,0.0,0.0,0.0,0.0,0.0,0.0,0.0,0.0,0.0,0.0,0.0,0.0,0.0,0.0,0.0,0.0,0.0,0.0,0.0,0.0,0.0,0.0,0.0,0.0,0.0,0.0,0.0,0.0,0.0,0.0,0.0,0.0,0.0,0.0,0.0,0.0,0.0,0.0,0.0,0.0,0.0,0.0,0.0,0.0,0.0,0.0,0.0,0.0,0.0,0.0,0.0,0.0,0.0,0.0,0.0,0.0,0.0,0.0,0.0,0.0,0.0,0.0,0.0,0.0,0.0,0.0,0.0,0.0,0.0,0.0,0.0,0.0,0.0,0.0,0.0,0.0,0.0,0.0,0.0,0.0,0.0,0.0,0.0,0.0,0.0,0.0,0.0,0.0,0.0,0.0,0.0,0.0,0.0,0.0,0.0,0.0,0.0,0.0,0.0,-2.8305,-2.7831,-2.7414,-2.7198,-2.7059,-2.6562,-2.5708,0.0,0.0,0.0,0.0,0.0,0.0,0.0,0.0,0.0,0.0,0.0,0.0,0.0,0.0,0.0,0.0,0.0,0.0,0.0,0.0,0.0,0.0,0.0,0.0,0.0,0.0,0.0,0.0,0.0,0.0,0.0,0.0,0.0,0.0,0.0,0.0,0.0,0.0,0.0,0.0,0.0,0.0,0.0,0.0,0.0,0.0,0.0,0.0,0.0,0.0,0.0,0.0,0.0,0.0,0.0,0.0,0.0,0.0,0.0,0.0,0.0,0.0,0.0,0.0,0.0,0.0,0.0,0.0,0.0,0.0,0.0,0.0,0.0,0.0,0.0,0.0,0.0,0.0,0.0,0.0,0.0,0.0,0.0,0.0,0.0,0.0,0.0,0.0,0.0,0.0,0.0,0.0,0.0,0.0,0.0,0.0,0.0,0.0,0.0,0.0,0.0,0.0,0.0,0.0,0.0,0.0,0.0,0.0,-3.1658,-3.0245,-2.9141,-2.835,-2.8971,-2.8311,0.0,0.0,0.0,0.0,0.0,0.0,0.0,0.0,0.0,0.0,0.0,0.0,0.0,0.0,0.0,0.0,0.0,0.0,0.0,0.0,0.0,0.0,0.0,0.0,0.0,0.0,0.0,0.0,0.0,0.0,0.0,0.0,0.0,0.0,0.0,0.0,0.0,0.0,0.0,0.0,0.0,0.0,0.0,0.0,0.0,0.0,0.0,0.0,0.0,0.0,0.0,0.0,0.0,0.0,0.0,0.0,0.0,0.0,0.0,0.0,0.0,0.0,0.0,0.0,0.0,0.0,0.0,0.0,0.0,0.0,0.0,0.0,0.0,0.0,0.0,0.0,0.0,0.0,0.0,0.0,0.0,0.0,0.0,0.0,0.0,0.0,0.0,0.0,0.0,0.0,0.0,0.0,0.0,0.0,0.0,0.0,0.0,0.0,0.0,0.0,0.0,0.0,0.0,0.0,0.0,0.0,0.0,0.0,0.0,-3.2807,-3.3695,-3.3371,-3.1808,-3.0849,-2.9869,0.0,0.0,0.0,0.0,0.0,0.0,0.0,0.0,0.0,0.0,0.0,0.0,0.0,0.0,0.0,0.0,0.0,0.0,0.0,0.0,0.0,0.0,0.0,0.0,0.0,0.0,0.0,0.0,0.0,0.0,0.0,0.0,0.0,0.0,0.0,0.0,0.0,0.0,0.0,0.0,0.0,0.0,0.0,0.0,0.0,0.0,0.0,0.0,0.0,0.0,0.0,0.0,0.0,0.0,0.0,0.0,0.0,0.0,0.0,0.0,0.0,0.0,0.0,0.0,0.0,0.0,0.0,0.0,0.0,0.0,0.0,0.0,0.0,0.0,0.0,0.0,0.0,0.0,0.0,0.0,0.0,0.0,0.0,0.0,0.0,0.0,0.0,0.0,0.0,0.0,0.0,0.0,0.0,0.0,0.0,0.0,0.0,0.0,0.0,0.0,0.0,0.0,0.0,0.0,0.0,0.0,0.0,0.0,-3.1033,-3.3937,-3.5939,-3.6484,-3.5493,-3.3498,-3.1638,0.0,0.0,0.0,0.0,0.0,0.0,0.0,0.0,0.0,0.0,0.0,0.0,0.0,0.0,0.0,0.0,0.0,0.0,0.0,0.0,0.0,0.0,0.0,0.0,0.0,0.0,0.0,0.0,0.0,0.0,0.0,0.0,0.0,0.0,0.0,0.0,0.0,0.0,0.0,0.0,0.0,0.0,0.0,0.0,0.0,0.0,0.0,0.0,0.0,0.0,0.0,0.0,0.0,0.0,0.0,0.0,0.0,0.0,0.0,0.0,0.0,0.0,0.0,0.0,0.0,0.0,0.0,0.0,0.0,0.0,0.0,0.0,0.0,0.0,0.0,0.0,0.0,0.0,0.0,0.0,0.0,0.0,0.0,0.0,0.0,0.0,0.0,0.0,0.0,0.0,0.0,0.0,0.0,0.0,0.0,0.0,0.0,0.0,0.0,0.0,0.0,0.0,0.0,0.0,0.0,0.0,0.0,0.0,-3.237,-3.4946,-3.7272,-3.8622,-3.8783,-3.6234,-3.3431,0.0,0.0,0.0,0.0,0.0,0.0,0.0,0.0,0.0,0.0,0.0,0.0,0.0,0.0,0.0,0.0,0.0,0.0,0.0,0.0,0.0,0.0,0.0,0.0,0.0,0.0,0.0,0.0,0.0,0.0,0.0,0.0,0.0,0.0,0.0,0.0,0.0,0.0,0.0,0.0,0.0,0.0,0.0,0.0,0.0,0.0,0.0,0.0,0.0,0.0,0.0,0.0,0.0,0.0,0.0,0.0,0.0,0.0,0.0,0.0,0.0,0.0,0.0,0.0,0.0,0.0,0.0,0.0,0.0,0.0,0.0,0.0,0.0,0.0,0.0,0.0,0.0,0.0,0.0,0.0,0.0,0.0,0.0,0.0,0.0,0.0,0.0,0.0,0.0,0.0,0.0,0.0,0.0,0.0,0.0,0.0,0.0,0.0,0.0,0.0,0.0,0.0,0.0,0.0,0.0,0.0,0.0,0.0,-3.2889,-3.6071,-3.8051,-3.935,-4.0002,-3.6691,-3.4355,0.0,0.0,0.0,0.0,0.0,0.0,0.0,0.0,0.0,0.0,0.0,0.0,0.0,0.0,0.0,0.0,0.0,0.0,0.0,0.0,0.0,0.0,0.0,0.0,0.0,0.0,0.0,0.0,0.0,0.0,0.0,0.0,0.0,0.0,0.0,0.0,0.0,0.0,0.0,0.0,0.0,0.0,0.0,0.0,0.0,0.0,0.0,0.0,-2.6292,0.0,0.0,0.0,0.0,0.0,0.0,0.0,0.0,0.0,0.0,0.0,0.0,0.0,0.0,0.0,0.0,0.0,0.0,0.0,0.0,0.0,0.0,0.0,0.0,0.0,0.0,0.0,0.0,0.0,0.0,0.0,0.0,0.0,0.0,0.0,0.0,0.0,0.0,0.0,0.0,0.0,0.0,0.0,0.0,0.0,0.0,0.0,0.0,0.0,0.0,0.0,0.0,0.0,0.0,0.0,0.0,0.0,0.0,0.0,-3.4121,-3.7079,-3.8911,-4.0005,-4.0317,-3.7383,-3.5209,0.0,0.0,0.0,0.0,0.0,0.0,0.0,0.0,0.0,0.0,0.0,0.0,0.0,0.0,0.0,0.0,0.0,0.0,0.0,0.0,0.0,0.0,0.0,0.0,0.0,0.0,0.0,0.0,0.0,0.0,0.0,0.0,0.0,0.0,0.0,0.0,0.0,0.0,0.0,0.0,0.0,0.0,0.0,0.0,0.0,0.0,0.0,0.0,0.0,0.0,0.0,0.0,0.0,0.0,0.0,0.0,0.0,0.0,0.0,0.0,0.0,0.0,0.0,0.0,0.0,0.0,0.0,0.0,0.0,0.0,0.0,0.0,0.0,0.0,0.0,0.0,0.0,0.0,0.0,0.0,0.0,0.0,0.0,0.0,0.0,0.0,0.0,0.0,0.0,0.0,0.0,0.0,0.0,0.0,0.0,0.0,0.0,0.0,0.0,0.0,0.0,0.0,0.0,0.0,0.0,0.0,0.0,-3.2598,-3.5215,-3.7847,-3.9615,-4.0499,-4.046,-3.8174,-3.6027,-3.4155,0.0,0.0,0.0,0.0,0.0,0.0,0.0,0.0,0.0,0.0,0.0,0.0,0.0,0.0,0.0,0.0,0.0,0.0,0.0,0.0,0.0,0.0,0.0,0.0,0.0,0.0,0.0,0.0,0.0,0.0,0.0,0.0,0.0,0.0,0.0,0.0,0.0,0.0,-2.6792,-2.7489,0.0,0.0,0.0,0.0,0.0,0.0,0.0,0.0,-2.8087,0.0,0.0,0.0,0.0,0.0,0.0,0.0,0.0,0.0,0.0,0.0,0.0,0.0,0.0,0.0,0.0,0.0,0.0,0.0,0.0,0.0,0.0,0.0,0.0,0.0,0.0,0.0,0.0,0.0,0.0,0.0,0.0,0.0,0.0,0.0,0.0,0.0,0.0,0.0,0.0,0.0,0.0,0.0,0.0,0.0,0.0,0.0,0.0,0.0,0.0,0.0,0.0,0.0,0.0,0.0,0.0,-3.0061,-3.202,-3.4635,-3.7916,-3.9642,-4.0508,-4.045,-3.8738,-3.6647,-3.4205,0.0,0.0,0.0,0.0,0.0,0.0,0.0,0.0,0.0,0.0,0.0,0.0,0.0,0.0,0.0,0.0,0.0,0.0,0.0,0.0,0.0,0.0,0.0,0.0,0.0,0.0,0.0,0.0,0.0,0.0,0.0,0.0,0.0,0.0,0.0,0.0,0.0,0.0,0.0,-2.7459,-2.7679,0.0,0.0,0.0,0.0,0.0,0.0,0.0,0.0,-2.7527,0.0,0.0,0.0,0.0,0.0,0.0,0.0,0.0,0.0,0.0,0.0,0.0,0.0,0.0,0.0,0.0,0.0,0.0,0.0,0.0,0.0,0.0,0.0,0.0,0.0,0.0,0.0,0.0,0.0,0.0,0.0,0.0,0.0,0.0,0.0,0.0,0.0,0.0,0.0,0.0,0.0,0.0,0.0,0.0,0.0,0.0,0.0,0.0,0.0,0.0,0.0,0.0,0.0,0.0,0.0,-3.1346,-3.3212,-3.5605,-3.8584,-3.9854,-4.0296,-3.9854,-3.8219,-3.5911,0.0,0.0,0.0,0.0,0.0,0.0,0.0,0.0,0.0,0.0,0.0,0.0,0.0,0.0,0.0,0.0,0.0,0.0,0.0,0.0,0.0,0.0,0.0,0.0,0.0,0.0,0.0,0.0,0.0,0.0,0.0,0.0,0.0,0.0,0.0,0.0,0.0,0.0,0.0,0.0,-2.8868,-2.9547,-3.1226,0.0,0.0,0.0,0.0,0.0,0.0,-2.9459,-2.905,0.0,0.0,0.0,0.0,0.0,0.0,0.0,0.0,0.0,0.0,0.0,0.0,0.0,0.0,0.0,0.0,0.0,0.0,0.0,0.0,0.0,0.0,0.0,0.0,0.0,0.0,0.0,0.0,0.0,0.0,0.0,0.0,0.0,0.0,0.0,0.0,0.0,0.0,0.0,0.0,0.0,0.0,0.0,0.0,0.0,0.0,0.0,0.0,0.0,0.0,0.0,0.0,0.0,0.0,0.0,-3.2168,-3.4309,-3.6575,-3.895,-3.9988,-4.0104,-3.9296,-3.745,-3.4962,0.0,0.0,0.0,0.0,0.0,0.0,0.0,0.0,0.0,0.0,0.0,0.0,0.0,0.0,0.0,0.0,0.0,0.0,0.0,0.0,0.0,0.0,0.0,0.0,0.0,0.0,0.0,0.0,0.0,0.0,0.0,0.0,0.0,0.0,0.0,0.0,0.0,0.0,0.0,0.0,0.0,-3.1217,-3.3039,-3.1289,0.0,0.0,0.0,0.0,-3.0973,-3.1348,0.0,0.0,0.0,0.0,0.0,0.0,0.0,0.0,0.0,0.0,0.0,0.0,0.0,0.0,0.0,0.0,0.0,0.0,0.0,0.0,0.0,0.0,0.0,0.0,0.0,0.0,0.0,0.0,0.0,0.0,0.0,0.0,0.0,0.0,0.0,0.0,0.0,0.0,0.0,0.0,0.0,0.0,0.0,0.0,0.0,0.0,0.0,0.0,0.0,0.0,0.0,0.0,0.0,0.0,0.0,0.0,-3.0695,-3.378,-3.6286,-3.8123,-3.97,-4.0104,-3.9296,-3.692,-3.4404,0.0,0.0,0.0,0.0,0.0,0.0,0.0,0.0,0.0,0.0,0.0,0.0,0.0,0.0,0.0,0.0,0.0,0.0,0.0,0.0,0.0,0.0,0.0,0.0,0.0,0.0,0.0,0.0,0.0,0.0,0.0,0.0,0.0,0.0,0.0,0.0,0.0,0.0,0.0,0.0,0.0,-3.0563,-3.3051,-3.1802,-3.098,0.0,0.0,-3.2697,-3.2073,-3.3223,0.0,0.0,0.0,0.0,0.0,0.0,0.0,0.0,0.0,0.0,0.0,0.0,0.0,0.0,0.0,0.0,0.0,0.0,0.0,0.0,0.0,0.0,0.0,0.0,0.0,0.0,0.0,0.0,0.0,0.0,0.0,0.0,0.0,0.0,0.0,0.0,0.0,0.0,0.0,0.0,0.0,0.0,0.0,0.0,0.0,0.0,0.0,0.0,0.0,0.0,0.0,0.0,0.0,0.0,0.0,-2.9121,-3.0463,-3.3774,-3.6087,-3.7276,-3.9441,-3.9957,-3.8584,-3.6581,-3.4326,0.0,0.0,0.0,0.0,0.0,0.0,0.0,0.0,0.0,0.0,0.0,0.0,0.0,0.0,0.0,0.0,0.0,0.0,0.0,0.0,0.0,0.0,0.0,0.0,0.0,0.0,0.0,0.0,0.0,0.0,0.0,0.0,0.0,0.0,0.0,0.0,0.0,0.0,0.0,0.0,0.0,0.0,-3.3119,-3.2745,0.0,0.0,0.0,-3.3992,-3.3628,0.0,0.0,0.0,0.0,0.0,0.0,0.0,0.0,0.0,0.0,0.0,0.0,0.0,0.0,0.0,0.0,0.0,0.0,0.0,0.0,0.0,0.0,0.0,0.0,0.0,0.0,0.0,0.0,0.0,0.0,0.0,0.0,0.0,0.0,0.0,0.0,0.0,0.0,0.0,0.0,0.0,0.0,0.0,0.0,0.0,0.0,0.0,0.0,0.0,0.0,0.0,0.0,0.0,0.0,0.0,0.0,0.0,-3.0486,-3.4089,-3.6314,-3.7147,-3.9475,-3.9881,-3.8119,-3.6663,0.0,0.0,0.0,0.0,0.0,0.0,0.0,0.0,0.0,0.0,0.0,0.0,0.0,0.0,0.0,0.0,0.0,0.0,0.0,0.0,0.0,0.0,0.0,0.0,0.0,0.0,0.0,-2.1116,0.0,0.0,0.0,0.0,0.0,0.0,0.0,0.0,0.0,0.0,0.0,0.0,0.0,0.0,-3.1499,-3.3451,-3.3718,-3.4105,0.0,0.0,-3.5329,-3.532,-3.6246,-3.6235,0.0,0.0,0.0,0.0,0.0,0.0,0.0,0.0,0.0,0.0,0.0,0.0,0.0,0.0,0.0,0.0,0.0,0.0,0.0,0.0,0.0,0.0,0.0,0.0,0.0,0.0,0.0,0.0,0.0,0.0,0.0,0.0,0.0,0.0,0.0,0.0,0.0,0.0,0.0,0.0,0.0,0.0,0.0,0.0,0.0,0.0,0.0,0.0,0.0,0.0,0.0,0.0,0.0,0.0,0.0,-3.0701,-3.4766,-3.7316,-3.8209,-3.9908,-4.0005,-3.8345,-3.7439,-3.5426,0.0,0.0,0.0,0.0,0.0,0.0,0.0,0.0,0.0,0.0,0.0,0.0,0.0,0.0,0.0,0.0,0.0,0.0,0.0,0.0,0.0,0.0,0.0,0.0,0.0,0.0,0.0,0.0,0.0,0.0,0.0,0.0,0.0,0.0,0.0,0.0,0.0,0.0,0.0,0.0,0.0,-3.1724,-3.4254,-3.462,-3.5182,0.0,0.0,-3.7035,-3.7019,-3.8433,-3.8424,-3.5143,0.0,0.0,0.0,0.0,0.0,0.0,0.0,0.0,0.0,0.0,0.0,0.0,0.0,0.0,0.0,0.0,0.0,0.0,0.0,0.0,0.0,0.0,0.0,0.0,0.0,0.0,0.0,0.0,0.0,0.0,0.0,0.0,0.0,0.0,0.0,0.0,0.0,0.0,0.0,0.0,0.0,0.0,0.0,0.0,0.0,0.0,0.0,0.0,0.0,0.0,0.0,0.0,0.0,-3.0462,-3.1437,-3.5164,-3.7513,-3.8322,-4.0015,-4.0326,-3.9129,-3.8341,-3.6783,0.0,0.0,0.0,0.0,0.0,0.0,0.0,0.0,0.0,0.0,0.0,0.0,0.0,0.0,0.0,0.0,0.0,0.0,0.0,0.0,0.0,0.0,0.0,0.0,0.0,0.0,0.0,0.0,-2.4633,-2.4985,-2.518,0.0,0.0,0.0,0.0,0.0,0.0,0.0,0.0,0.0,0.0,-3.3337,-3.5888,-3.6699,0.0,0.0,-3.7653,-3.7804,-3.7272,-3.821,-3.8224,-3.5864,-3.5783,0.0,0.0,0.0,0.0,0.0,0.0,0.0,0.0,0.0,0.0,0.0,0.0,0.0,0.0,0.0,0.0,0.0,0.0,0.0,0.0,0.0,0.0,0.0,0.0,0.0,0.0,0.0,0.0,0.0,0.0,0.0,0.0,0.0,0.0,0.0,0.0,0.0,0.0,0.0,0.0,0.0,0.0,0.0,0.0,0.0,0.0,0.0,0.0,0.0,0.0,0.0,0.0,-3.1002,-3.27,-3.5699,-3.7717,-3.8747,-4.0246,-4.059,-3.9687,-3.913,-3.8007,0.0,0.0,0.0,0.0,0.0,0.0,0.0,0.0,0.0,0.0,0.0,0.0,0.0,0.0,0.0,0.0,0.0,0.0,0.0,0.0,0.0,0.0,0.0,0.0,0.0,0.0,0.0,0.0,-2.4985,-2.5141,-2.598,0.0,0.0,0.0,0.0,0.0,0.0,0.0,0.0,0.0,0.0,-3.4616,-3.6869,-3.7722,-3.799,-3.7634,-3.7882,-3.7993,-3.7648,-3.7883,-3.7702,-3.6575,0.0,0.0,0.0,0.0,0.0,0.0,0.0,0.0,0.0,0.0,0.0,0.0,0.0,0.0,0.0,0.0,0.0,0.0,0.0,0.0,0.0,0.0,0.0,0.0,0.0,0.0,0.0,0.0,0.0,0.0,-3.2871,0.0,0.0,0.0,0.0,0.0,0.0,0.0,0.0,0.0,0.0,0.0,0.0,0.0,0.0,0.0,0.0,0.0,0.0,0.0,0.0,0.0,0.0,-3.1164,-3.45,-3.6364,-3.8118,-3.9719,-4.0639,-4.0734,-3.9875,-3.9797,-3.8993,-3.7308,0.0,0.0,0.0,0.0,0.0,0.0,0.0,0.0,0.0,0.0,0.0,0.0,0.0,0.0,0.0,0.0,0.0,0.0,0.0,0.0,0.0,0.0,0.0,0.0,0.0,0.0,-2.4553,-2.518,-2.6,0.0,0.0,0.0,0.0,0.0,0.0,0.0,0.0,0.0,0.0,-3.3583,-3.529,-3.6966,-3.7233,-3.7564,-3.8324,-3.7779,-3.7531,-3.8322,-3.7791,-3.7234,0.0,0.0,0.0,0.0,0.0,0.0,0.0,0.0,0.0,0.0,0.0,0.0,0.0,0.0,0.0,0.0,0.0,0.0,0.0,0.0,0.0,0.0,0.0,0.0,0.0,0.0,0.0,-3.4891,-3.4847,0.0,0.0,0.0,0.0,0.0,0.0,0.0,0.0,0.0,0.0,0.0,-3.8545,-3.9685,0.0,0.0,0.0,0.0,0.0,0.0,0.0,0.0,0.0,0.0,0.0,0.0,-3.3142,-3.5422,-3.725,-3.8961,-4.062,-4.1518,-4.183,-4.1537,-4.1518,-4.0483,-3.8235,0.0,0.0,0.0,0.0,0.0,0.0,0.0,0.0,0.0,0.0,0.0,0.0,0.0,0.0,0.0,0.0,0.0,0.0,0.0,0.0,0.0,0.0,0.0,0.0,0.0,-2.4946,0.0,0.0,0.0,0.0,0.0,0.0,0.0,0.0,0.0,0.0,0.0,-3.1581,-3.3563,-3.4779,-3.6114,-3.7818,-3.8052,-3.8174,0.0,0.0,0.0,0.0,0.0,0.0,0.0,0.0,0.0,0.0,0.0,0.0,0.0,0.0,-3.9702,-3.6567,-3.6929,-3.7636,-3.7343,0.0,0.0,0.0,0.0,0.0,0.0,0.0,0.0,0.0,0.0,0.0,0.0,0.0,0.0,-3.7603,0.0,-3.6735,0.0,0.0,0.0,0.0,0.0,0.0,0.0,0.0,-3.9813,-4.1062,-4.1647,-4.2763,-4.3017,0.0,-4.2721,-4.0637,0.0,0.0,0.0,0.0,0.0,0.0,0.0,0.0,-3.4774,-3.6777,-3.858,-4.0151,-4.1498,-4.2415,-4.2845,-4.2845,-4.2572,-4.1618,-3.9976,-3.8528,-3.7097,0.0,0.0,0.0,0.0,0.0,0.0,0.0,0.0,0.0,0.0,0.0,0.0,0.0,0.0,0.0,0.0,0.0,0.0,0.0,0.0,0.0,0.0,0.0,-2.6097,0.0,0.0,0.0,0.0,0.0,0.0,0.0,0.0,0.0,-2.9684,-3.1588,-3.3626,-3.5334,-3.6294,-3.7219,-3.8344,0.0,0.0,0.0,0.0,0.0,0.0,0.0,-4.0161,-4.1023,-4.1417,-4.2084,-4.3528,-4.4231,-4.4602,-4.4602,0.0,0.0,-4.0207,-4.0216,-4.0828,-4.0826,-4.1474,-4.2238,-4.2786,-4.3587,-4.4269,0.0,0.0,0.0,0.0,0.0,0.0,0.0,0.0,-4.1201,-4.1227,0.0,-4.0285,0.0,0.0,0.0,0.0,0.0,-3.9162,0.0,0.0,-4.3821,-4.507,-4.5051,-4.5148,-4.5148,-4.507,-4.4348,-4.3505,-4.2459,-4.0023,0.0,0.0,0.0,0.0,0.0,0.0,-3.6068,-3.8482,-4.0223,-4.1557,-4.2435,-4.3294,-4.3723,-4.3704,-4.2942,-4.2454,-4.2298,-4.0034,-3.9055,-3.9692,-3.6645,0.0,0.0,0.0,0.0,0.0,0.0,0.0,0.0,0.0,0.0,0.0,0.0,0.0,0.0,0.0,0.0,0.0,0.0,0.0,0.0,-2.8908,0.0,0.0,0.0,0.0,0.0,0.0,0.0,0.0,0.0,0.0,-3.2446,-3.3793,-3.5389,-3.7021,0.0,0.0,0.0,0.0,-3.9853,-3.9931,-3.996,-4.0305,-4.1152,-4.1991,-4.2815,-4.3684,0.0,0.0,-4.6261,-4.6436,-4.6495,-4.6475,-4.7178,-4.6921,-4.4419,-4.4579,-4.5109,-4.5145,-4.5847,-4.6472,-4.6569,-4.7276,-4.7666,-4.6649,0.0,0.0,0.0,0.0,-4.3783,-4.4455,-4.4753,-4.5382,-4.564,-4.5514,-4.3475,0.0,0.0,0.0,0.0,0.0,0.0,-4.3642,-4.3993,-4.5925,-4.6866,-4.6885,-4.8076,-4.833,-4.7725,-4.8076,-4.7822,-4.694,-4.5648,-4.2846,-3.8741,0.0,0.0,0.0,0.0,-3.8697,-3.947,-4.114,-4.2454,-4.3313,-4.4172,-4.4641,-4.4621,-4.4387,-4.3665,-4.2454,-4.1693,-4.0834,-3.9855,-3.886,0.0,0.0,0.0,0.0,0.0,0.0,0.0,0.0,0.0,0.0,0.0,0.0,0.0,0.0,0.0,0.0,0.0,0.0,0.0,-3.0431,-3.0782,-3.0372,0.0,0.0,0.0,0.0,0.0,0.0,0.0,0.0,0.0,-3.7507,-3.6937,-3.6889,0.0,0.0,-3.872,-3.9355,-4.0179,-4.1169,-4.2392,0.0,0.0,0.0,-4.5028,-4.5476,-4.6339,-4.7686,-4.872,-4.8974,-4.952,-4.995,-4.9911,-5.0126,-5.0028,-4.9403,-4.8857,-4.8658,-4.8736,-4.9833,-5.0828,-5.0926,-5.155,-5.2058,-5.207,-4.8913,-4.6387,-4.5841,-4.6691,-4.7731,-4.86,-4.9298,-4.9489,-4.9567,-4.9415,-4.7225,-4.6069,-4.5679,-4.3938,0.0,0.0,0.0,-4.6573,-4.7565,-4.8623,-4.9481,-5.0184,-5.116,-5.118,-5.0379,-5.0887,-5.0496,-4.9306,-4.8837,-4.6667,-4.2967,0.0,0.0,-3.8843,-4.0132,-4.0831,-4.0906,-4.2549,-4.3684,-4.4192,-4.507,-4.5519,-4.55,-4.5187,-4.4504,-4.3489,-4.3099,-4.2259,-4.0893,-4.0503,-3.9624,0.0,0.0,0.0,0.0,0.0,0.0,0.0,0.0,0.0,0.0,0.0,-2.9962,-3.0289,0.0,0.0,0.0,-3.207,-3.3007,-3.3339,-3.291,0.0,0.0,0.0,0.0,0.0,0.0,0.0,-3.5857,-3.7767,-3.9517,-4.0637,-3.9921,-3.9443,-3.9984,-4.0042,-4.0354,-4.1242,0.0,-4.3266,-4.4961,-4.5664,-4.6316,-4.7159,-4.7588,-4.8115,-4.8974,-4.9911,-5.0594,-5.0633,-5.1063,-5.1375,-5.1394,-5.1394,-5.1511,-5.1843,-5.1746,-5.1511,-5.1238,-5.2253,-5.3151,-5.3229,-5.3912,-5.442,-5.6714,-5.5569,-5.0955,-5.0008,-5.1569,-5.1667,-5.2692,-5.4177,-5.3366,-5.3014,-5.2878,-5.1102,-4.9876,-4.9017,-4.7514,0.0,-4.8017,-4.8076,-4.9384,-5.159,-5.1609,-5.2448,-5.3971,-5.3971,-5.358,-5.28,-5.28,-5.1941,-5.0379,-5.0321,-4.9442,-4.7783,-4.5405,-4.3297,-4.1651,-4.2396,-4.2806,-4.2825,-4.4465,-4.5324,-4.5324,-4.6027,-4.6397,-4.6397,-4.55,-4.5012,-4.4992,-4.4153,-4.3313,-4.2533,-4.1674,-4.1186,-4.103,0.0,0.0,0.0,0.0,0.0,0.0,0.0,0.0,0.0,0.0,0.0,0.0,0.0,0.0,0.0,-3.572,0.0,-3.7516,-3.5447,0.0,0.0,0.0,-3.4842,-3.7243,-3.7672,-3.8394,-3.9937,0.0,0.0,-4.26,0.0,-4.2832,-4.2894,-4.2729,-4.2954,-4.387,-4.4738,-4.5878,-4.744,-4.7834,-4.8174,-4.8915,-4.9599,-5.0301,-5.1023,-5.1394,-5.1336,-5.1336,-5.1375,-5.1394,-5.1394,-5.1394,-5.1609,-5.2429,-5.3093,-5.3678,-5.2878,-5.3561,-5.4225,-5.4322,-5.4888,-5.5201,-5.8053,-5.6654,-5.5439,-5.4929,-5.5022,-5.5755,-5.632,-5.6675,-5.5981,-5.5669,-5.5513,-5.3132,-5.1609,-5.0809,-5.1066,-5.1301,-5.1511,-5.2175,-5.2796,-5.3366,-5.3385,-5.36,-5.399,-5.399,-5.3893,-5.3698,-5.3698,-5.3151,-5.2117,-5.2078,-5.1199,-4.954,-4.8896,-4.7412,-4.5203,-4.5929,-4.6378,-4.6358,-4.7373,-4.79,-4.7881,-4.749,-4.7295,-4.7295,-4.5812,-4.5012,-4.4992,-4.4153,-4.3606,-4.3391,-4.2552,-4.181,-4.1127,-3.9312,0.0,0.0,0.0,0.0,0.0,0.0,0.0,0.0,0.0,-3.3453,-3.4312,0.0,-3.5018,0.0,-3.7633,-3.9253,-4.0112,-3.9624,0.0,0.0,-3.816,-3.8512,-3.9156,-4.0971,-4.2318,-4.2728,-4.3938,-4.5141,-4.6167,-4.6327,-4.66,-4.7138,-4.5528,-4.4846,-4.6338,-4.7338,-4.8279,-4.9282,-4.9985,-5.0555,-5.0692,-5.0926,-5.1141,-5.1375,-5.1394,-5.1394,-5.1394,-5.1394,-5.1394,-5.1394,-5.1394,-5.1511,-5.1687,-5.2409,-5.3171,-5.3659,-5.4908,-5.5981,-5.5981,-5.6138,-5.6216,-5.9531,-5.8704,-5.8736,-5.8587,-5.8247,-5.7668,-5.7936,-5.869,-5.7948,-5.7875,-5.8168,-5.5962,-5.4732,-5.4225,-5.3971,-5.4068,-5.442,-5.4142,-5.4416,-5.5123,-5.4771,-5.4771,-5.5142,-5.5142,-5.4752,-5.4029,-5.44,-5.3932,-5.278,-5.3073,-5.2605,-5.1297,-5.1258,-5.036,-4.8642,-4.8287,-4.8135,-4.8154,-4.8564,-4.8798,-4.8779,-4.8369,-4.7978,-4.7588,-4.628,-4.5402,-4.5012,-4.4153,-4.3528,-4.3138,-4.265,-4.2181,-4.1674,-4.0073,-3.9097,0.0,0.0,0.0,0.0,0.0,0.0,0.0,0.0,0.0,0.0,0.0,-3.818,-3.9331,-4.1069,-4.2318,-4.2806,-4.2474,-4.2201,-4.2045,-4.2435,-4.3001,-4.3723,-4.509,-4.5968,-4.5968,-4.6827,-4.7588,-4.8029,-4.8092,-4.8443,-4.9259,-4.8123,-4.7552,-4.8459,-4.9103,-4.9688,-5.0532,-5.1082,-5.1394,-5.1394,-5.1394,-5.1394,-5.1394,-5.1394,-5.1394,-5.1394,-5.1394,-5.1394,-5.1394,-5.1394,-5.1394,-5.1414,-5.1746,-5.239,-5.3268,-5.4186,-5.522,-5.6352,-5.6606,-5.6606,-6.0766,-6.0676,-6.079,-6.0809,-6.0536,-5.8333,-5.8525,-6.0313,-5.9446,-5.9451,-5.9983,-5.8538,-5.7777,-5.7543,-5.6118,-5.5879,-5.6489,-5.504,-5.5157,-5.6508,-5.5806,-5.5864,-5.6606,-5.6606,-5.5806,-5.44,-5.5103,-5.4635,-5.3073,-5.3795,-5.3717,-5.2897,-5.2878,-5.2429,-5.155,-5.0067,-4.9247,-4.913,-4.913,-4.913,-4.913,-4.8915,-4.8466,-4.7764,-4.671,-4.5792,-4.5031,-4.427,-4.3469,-4.263,-4.2669,-4.2728,-4.2689,-4.1205,-4.0698,0.0,-4.0132,0.0,0.0,0.0,0.0,0.0,0.0,0.0,0.0,-4.0561,-4.1635,-4.3997,-4.4875,-4.5382,-4.548,-4.4797,-4.4972,-4.6436,-4.6632,-4.7198,-4.8584,-4.8798,-4.8837,-4.8954,-4.8974,-4.8993,-4.915,-4.9208,-4.9618,-5.034,-5.0395,-5.0317,-5.0399,-5.034,-5.0535,-5.1316,-5.1394,-5.1394,-5.1394,-5.1394,-5.1394,-5.1394,-5.1394,-5.1394,-5.1394,-5.1394,-5.1394,-5.1394,-5.1394,-5.1355,-5.1258,-5.1219,-5.1492,-5.2156,-5.2507,-5.3424,-5.5513,-5.6274,-5.6391,-6.049,-5.9998,-6.0014,-5.9685,-5.9089,-5.8622,-5.9484,-6.1215,-6.0451,-5.9417,-5.8285,-5.7953,-5.7465,-5.684,-5.6504,-5.6445,-5.6586,-5.6255,-5.6294,-5.6586,-5.643,-5.643,-5.6606,-5.6606,-5.643,-5.6138,-5.6274,-5.5806,-5.483,-5.4966,-5.4596,-5.3776,-5.3756,-5.3311,-5.2487,0.0,0.0,0.0,-5.0906,-5.0906,-5.0867,-4.952,-4.8759,-4.8599,-4.6436,0.0,-4.5015,-4.4839,-4.4351,-4.3528,-4.4133,0.0,0.0,0.0,0.0,0.0,0.0,0.0,0.0,0.0,0.0,0.0,-4.4563,-4.4426,-4.4071,-4.468,-4.5558,-4.6729,-4.7002,-4.7373,-4.8017,-4.7939,-4.7959,-4.8271,-4.833,-4.8466,-4.8779,-4.8818,-4.9072,-4.9774,-4.9852,-5.0126,-5.0789,-5.1492,-5.196,-5.2058,-5.2195,-5.2214,-5.2117,-5.1492,-5.1219,-5.1375,-5.1394,-5.1394,-5.1394,-5.1394,-5.1394,-5.1394,-5.1394,-5.1394,-5.1394,-5.1394,-5.1394,-5.1394,-5.1394,-5.116,-5.0496,-5.036,-5.0399,-5.0575,-5.1141,-5.2214,-5.4088,-5.5044,-5.5337,-6.058,0.0,-6.0441,-6.0262,0.0,-6.0108,-6.072,-6.1547,-6.0683,-6.0093,-5.9729,-5.971,-5.9495,-5.9104,-5.8675,-5.848,-5.8441,-5.8031,-5.7836,-5.7836,-5.7836,-5.7601,-5.7192,-5.7192,-5.6743,-5.5981,-5.6391,-5.6157,-5.5357,-5.5728,-5.5513,-5.4635,-5.4654,-5.4205,-5.3366,-5.3354,-5.2694,-5.1408,-5.1398,-5.1394,-5.1355,-5.0546,-4.9905,-4.9453,0.0,0.0,0.0,0.0,0.0,0.0,0.0,0.0,0.0,0.0,0.0,-4.5597,-4.5226,-4.5168,-4.5597,-4.6027,-4.6651,-4.7471,-4.831,-4.8271,-4.6979,-4.7686,-4.8545,-4.9364,-4.9481,-4.9638,-5.0028,-5.0087,-5.0067,-5.0087,-5.0087,-5.0087,-5.0087,-5.0087,-5.0262,-5.0672,-5.1121,-5.157,-5.198,-5.239,-5.2683,-5.2683,-5.2312,-5.2097,-5.2038,-5.1687,-5.1394,-5.1394,-5.1394,-5.1394,-5.1394,-5.1394,-5.1394,-5.1394,-5.1394,-5.1394,-5.1394,-5.1394,-5.1394,-5.1394,-5.1394,-5.1023,-4.9774,-4.9481,-4.9368,-4.9023,-4.9221,-5.0083,-5.1706,-5.3384,-5.4488,-6.0804,-6.0856,-6.1058,-6.1188,-6.1208,-6.1514,-6.1671,-6.1637,0.0,0.0,0.0,-6.1466,-6.1388,-6.1193,-6.051,-6.0178,-6.0119,-5.9417,-5.9104,-5.9085,-5.8948,-5.848,-5.7816,-5.766,-5.686,-5.5611,-5.6255,-5.6235,-5.5571,-5.6255,-5.6235,-5.5587,-5.5528,-5.5083,-5.4283,-5.408,-5.3305,-5.1941,-5.1714,-5.155,-5.1414,-5.1252,-5.0908,-5.0326,-4.9408,-4.8567,-4.7842,-4.7141,-4.661,-4.6319,-4.6573,-4.6749,-4.6749,-4.6885,-4.7042,-4.7198,-4.7217,-4.753,-4.8213,-4.8271,-4.8857,-5.0243,-5.0984,-5.0789,-4.9364,-4.9911,-5.0633,-5.1336,-5.1394,-5.1375,-5.1394,-5.1394,-5.1394,-5.1394,-5.1394,-5.1375,-5.1375,-5.1394,-5.1316,-5.1472,-5.1941,-5.2448,-5.239,-5.2585,-5.2702,-5.2624,-5.2175,-5.1629,-5.1609,-5.155,-5.1394,-5.1394,-5.157,-5.1629,-5.1453,-5.1609,-5.155,-5.1433,-5.1394,-5.1394,-5.1394,-5.1394,-5.1394,-5.1394,-5.1316,-5.0516,-4.9192,-4.8763,-4.8376,-4.7547,-4.751,-4.8037,-4.9536,-5.158,-5.3106,-6.0856,-6.0964,-6.0997,-6.1113,-6.1234,-6.1451,-6.1588,-6.1676,-6.1534,-6.1149,-6.0588,-6.0588,-6.0159,-5.9456,-5.9339,-5.928,-5.928,-5.9139,-5.9119,0.0,-5.8339,-5.7914,-5.7758,-5.7094,-5.6645,-5.643,-5.6567,-5.6547,-5.645,-5.6547,-5.6528,-5.643,-5.6411,-5.5981,-5.5123,-5.4381,-5.3877,-5.3639,-5.2897,-5.2156,-5.1414,-5.0734,-5.0649,-5.1132,-4.9726,-4.8863,-4.8724,-4.8599,-4.7838,-4.6436,-4.7686,-4.8447,-4.8466,-4.913,-4.9891,-5.0614,-5.0672,-5.0731,-5.0848,-5.0887,-5.0965,-5.1199,-5.1336,-5.1277,-5.1063,-5.116,-5.1277,-5.1394,-5.1394,-5.1394,-5.1394,-5.1394,-5.1394,-5.1394,-5.1394,-5.1394,-5.1394,-5.1394,-5.1394,-5.1394,-5.1492,-5.1648,-5.1785,-5.2292,-5.2702,-5.2683,-5.2429,-5.2448,-5.2331,-5.1882,-5.1453,-5.1492,-5.2058,-5.2136,-5.1746,-5.2078,-5.2097,-5.1511,-5.1394,-5.1394,-5.1394,-5.1394,-5.1394,-5.1394,-5.0848,-4.9993,-4.9029,-4.8259,-4.7569,-4.6827,-4.7045,-4.7811,-4.871,-4.9877,-5.0821,-6.0831,-6.0899,-6.0962,-6.1036,-6.1092,-6.1374,-6.1537,-6.1595,-6.1685,-6.1486,-6.1115,-6.1115,-6.0881,-6.0529,-6.051,-6.051,-6.051,-6.0505,-6.0276,-5.9788,-5.9397,-5.8695,-5.7816,-5.7426,-5.7016,-5.6626,-5.6606,-5.6606,-5.6606,-5.6606,-5.661,-5.6621,-5.661,-5.6391,-5.6001,-5.5611,-5.5181,-5.4689,-5.3842,-5.2976,-5.2142,-5.1752,-5.1501,-5.1406,-5.0625,-5.0251,-5.0262,-5.0269,-4.9879,-4.9091,-4.9794,-5.0204,-5.0223,-5.0594,-5.0984,-5.1355,-5.1394,-5.1394,-5.1394,-5.1394,-5.1394,-5.1394,-5.1394,-5.1394,-5.1394,-5.1394,-5.1394,-5.1394,-5.1394,-5.1394,-5.1394,-5.1394,-5.1394,-5.1394,-5.1394,-5.1394,-5.1394,-5.1394,-5.1394,-5.1433,-5.1824,-5.2097,-5.2097,-5.2448,-5.2702,-5.2663,-5.237,-5.2175,-5.2624,-5.239,-5.2292,-5.2702,-5.278,-5.2546,-5.2175,-5.239,-5.2312,-5.155,-5.1394,-5.1394,-5.1394,-5.1394,-5.1398,-5.1346,-5.0699,-4.9876,-4.9062,-4.8192,-4.7311,-4.653,-4.6502,-4.7123,-4.7782,-4.8879,-5.002,-6.08,-6.08,-6.0916,-6.0981,-6.1015,-6.1303,-6.1451,-6.1519,-6.1654,-6.1701,-6.1701,-6.1701,-6.1701,-6.1701,-6.1701,-6.1701,-6.1701,-6.1701,-6.1232,-6.0451,-6.0198,-5.928,-5.7875,-5.7641,-5.7211,-5.6684,-5.6782,-5.6786,-5.663,-5.6782,-5.677,-5.6624,-5.6614,-5.6606,-5.6614,-5.6606,-5.6255,-5.5591,-5.4939,-5.4074,-5.3045,-5.3008,-5.2656,-5.205,-5.1797,-5.1674,-5.1691,-5.1511,-5.1394,-5.1394,-5.1394,-5.1394,-5.1394,-5.1394,-5.1394,-5.1394,-5.1394,-5.1394,-5.1394,-5.1394,-5.1394,-5.1394,-5.1398,-5.1402,-5.1402,-5.1398,-5.1394,-5.1394,-5.1394,-5.1394,-5.1394,-5.1394,-5.1394,-5.1394,-5.1394,-5.1394,-5.1394,-5.1394,-5.1394,-5.1472,-5.1999,-5.2351,-5.239,-5.2394,-5.2374,-5.2253,-5.1941,-5.2019,-5.2565,-5.2702,-5.3093,-5.3834,-5.3698,-5.3151,-5.2878,-5.2917,-5.2546,-5.1629,-5.1394,-5.1394,-5.1394,-5.1394,-5.1398,-5.1294,-5.0532,-4.9825,-4.9171,-4.8273,-4.7405,-4.6676,-4.662,-4.679,-4.756,-4.9184,-5.0268,-6.08,-6.08,-6.0819,-6.0897,-6.1021,-6.1162,-6.1335,-6.1519,-6.1634,-6.1701,-6.1661,-6.1701,-6.1701,-6.1701,-6.1701,-6.1701,-6.1701,-6.1701,-6.1232,-6.0373,-5.9573,-5.8714,-5.7797,-5.7074,-5.6665,-5.6723,-5.7328,-5.7282,-5.6747,-5.736,-5.7371,-5.6688,-5.6606,-5.6614,-5.6607,-5.6614,-5.6547,-5.6489,-5.6391,-5.5552,-5.3994,-5.3883,-5.3845,-5.3764,-5.2983,-5.2589,-5.2507,-5.1824,-5.1414,-5.1394,-5.1394,-5.1394,-5.1394,-5.1394,-5.1394,-5.1394,-5.1394,-5.1394,-5.1394,-5.1394,-5.1394,-5.1394,-5.1389,-5.1396,-5.1396,-5.1385,-5.1394,-5.1394,-5.1394,-5.1394,-5.1394,-5.1394,-5.1394,-5.1398,-5.1394,-5.1394,-5.1394,-5.1394,-5.1394,-5.1394,-5.1535,-5.1531,-5.171,-5.174,-5.1645,-5.1804,-5.2058,-5.2433,-5.28,-5.2858,-5.3385,-5.4654,-5.5025,-5.4342,-5.3307,-5.3405,-5.2995,-5.1785,-5.1394,-5.1394,-5.1394,-5.1394,-5.1379,-5.104,-5.0195,-4.9435,-4.9301,-4.8667,-4.7551,-4.7349,-4.726,-4.7434,-4.8392,-5.0035,-5.1235,-6.08,-6.08,-6.08,-6.0877,-6.1019,-6.113,-6.1305,-6.15,-6.1654,-6.1427,-6.1037,-6.1466,-6.1701,-6.1701,-6.1701,-6.1701,-6.1701,-6.1701,-6.1232,-6.0354,-5.9517,-5.8663,-5.7874,-5.7528,-5.7367,-5.7371,-5.7721,-5.7692,-5.738,-5.7222,-5.6946,-5.6653,-5.6618,-5.661,-5.6618,-5.661,-5.6606,-5.6606,-5.6606,-5.6235,-5.5571,-5.5045,-5.4523,-5.4027,-5.3647,-5.319,-5.2741,-5.2331,-5.1941,-5.1453,-5.1394,-5.1394,-5.1394,-5.1394,-5.1394,-5.1394,-5.1385,-5.1391,-5.1391,-5.1391,-5.1385,-5.1394,-5.1402,-5.1389,-5.1396,-5.1385,-5.1394,-5.1394,-5.1385,-5.1391,-5.1391,-5.1391,-5.1391,-5.1391,-5.1391,-5.1391,-5.1391,-5.1391,-5.1391,-5.1391,-5.1391,-5.1639,-5.2026,-5.216,-5.216,-5.2104,-5.2159,-5.23,-5.3175,-5.3483,-5.399,-5.5025,-5.5708,-5.5298,-5.3873,-5.3717,-5.319,-5.196,-5.1394,-5.1394,-5.1394,-5.1394,-5.1265,-5.083,-5.0029,-4.9382,-4.9151,-4.8829,-4.8135,-4.8114,-4.8036,-4.8213,-4.9049,-4.9997,-5.0732,-6.08,-6.08,-6.08,-6.0877,-6.102,-6.1161,-6.1323,-6.15,-6.1654,-6.1213,-6.051,-6.1076,-6.1193,-6.1056,-6.1466,-6.1701,-6.1701,-6.1701,-6.1232,-6.0397,-5.9723,-5.8906,-5.7983,-5.7896,-5.777,-5.761,-5.7784,-5.7889,-5.7793,-5.703,-5.662,-5.662,-5.661,-5.661,-5.6606,-5.6606,-5.6606,-5.6606,-5.6606,-5.6606,-5.6508,-5.5989,-5.5254,-5.4457,-5.435,-5.3951,-5.3093,-5.2819,-5.2429,-5.1804,-5.155,-5.1394,-5.1394,-5.1398,-5.1402,-5.1394,-5.1389,-5.1394,-5.1394,-5.14,-5.14,-5.1391,-5.1389,-5.1394,-5.14,-5.1396,-5.1385,-5.1394,-5.1389,-5.1394,-5.1402,-5.1402,-5.1402,-5.1402,-5.1402,-5.1402,-5.1402,-5.1558,-5.1792,-5.1753,-5.2105,-5.2201,-5.2646,-5.2848,-5.2928,-5.23,-5.2026,-5.2069,-5.335,-5.3795,-5.4303,-5.5162,-5.6025,-5.5677,-5.4127,-5.3854,-5.3132,-5.2038,-5.1394,-5.1394,-5.1398,-5.1402,-5.1336,-5.0959,-5.037,-5.0259,-5.0349,-4.9888,-4.9405,-4.944,-4.9339,-4.9281,-4.99,-5.0074,-5.0538,-6.08,-6.0762,-6.0781,-6.0803,-6.0982,-6.107,-6.1277,-6.1431,-6.1595,-6.1193,-6.0451,-6.0471,-6.0022,-5.9436,-6.0881,-6.1661,-6.1642,-6.1583,-6.1154,-6.0436,-6.027,-5.9453,-5.7949,-5.789,-5.7534,-5.72,-5.7731,-5.7921,-5.7793,-5.7018,-5.6607,-5.6621,-5.6616,-5.6605,-5.6606,-5.6606,-5.6606,-5.6606,-5.6606,-5.6606,-5.6606,-5.6547,-5.6083,-5.5341,-5.524,-5.483,-5.3971,-5.3151,-5.2702,-5.2644,-5.1921,-5.1472,-5.1453,-5.143,-5.145,-5.1457,-5.1418,-5.1418,-5.1441,-5.142,-5.1386,-5.1387,-5.1387,-5.1387,-5.1387,-5.1387,-5.1402,-5.1398,-5.1402,-5.1394,-5.1387,-5.1387,-5.1387,-5.1387,-5.1387,-5.1387,-5.1426,-5.1992,-5.2558,-5.2715,-5.3262,-5.3516,-5.2949,-5.3437,-5.3142,-5.2365,-5.2234,-5.2761,-5.3018,-5.358,-5.4381,-5.5185,-5.5798,-5.5729,-5.3487,-5.3522,-5.3171,-5.2019,-5.1394,-5.1398,-5.1389,-5.1385,-5.131,-5.115,-5.0738,-5.0848,-5.1586,-5.1722,-5.1335,-5.1122,-5.0867,-5.0887,-5.0558,-5.0751,-5.1196,-5.9661,-5.9204,-5.9184,-5.9321,-5.9526,-5.9566,-6.0047,-6.077,-6.0851,-6.0705,-6.0432,-6.0393,-5.9924,-5.9124,-5.9749,-6.0041,-6.0041,-6.0086,-6.0181,-6.03,-5.9879,-5.957,-5.957,-5.9512,-5.9375,-5.9078,-5.8823,-5.8142,-5.7109,-5.6736,-5.6619,-5.662,-5.6616,-5.6605,-5.661,-5.6606,-5.6606,-5.6606,-5.6606,-5.6606,-5.6606,-5.6606,-5.643,-5.6177,-5.6118,-5.5728,-5.4849,-5.4517,-5.4108,-5.3565,-5.3221,-5.3068,-5.3002,-5.2533,-5.2224,-5.2184,-5.1714,-5.1631,-5.2085,-5.1701,-5.14,-5.1387,-5.1387,-5.1387,-5.1387,-5.1387,-5.1386,-5.1387,-5.1387,-5.1386,-5.1387,-5.1387,-5.1387,-5.1387,-5.1387,-5.1387,-5.1426,-5.1699,-5.2051,-5.2754,-5.3887,-5.4648,-5.4453,-5.4629,-5.4336,-5.3356,-5.3344,-5.3467,-5.3663,-5.4275,-5.4942,-5.5322,-5.5946,-5.5681,-5.309,-5.3448,-5.3483,-5.2175,-5.1398,-5.1391,-5.14,-5.1396,-5.1327,-5.1136,-5.0835,-5.1219,-5.1915,-5.2224,-5.2089,-5.226,-5.2028,-5.1428,-5.1003,-5.1061,-5.1583,-5.962,-5.9224,-5.9175,-5.934,-5.9588,-5.9607,-6.0049,-6.0798,-6.0822,-6.051,-6.0119,-6.0276,-5.9768,-5.887,-5.8968,-5.9104,-5.9148,-5.943,-6.0017,-6.0728,-6.0252,-6.0137,-6.0351,-6.039,-6.0273,-5.9961,-5.9492,-5.8535,-5.7578,-5.7441,-5.7305,-5.7051,-5.7024,-5.6875,-5.6665,-5.6606,-5.6606,-5.6606,-5.6606,-5.6606,-5.6606,-5.6606,-5.6606,-5.6606,-5.661,-5.6341,-5.5747,-5.5443,-5.5052,-5.4482,-5.4141,-5.3874,-5.3542,-5.2752,-5.2285,-5.2205,-5.1718,-5.1618,-5.2124,-5.1746,-5.1385,-5.1402,-5.1387,-5.1387,-5.1387,-5.1387,-5.1387,-5.1387,-5.1387,-5.1387,-5.1387,-5.1387,-5.1387,-5.1387,-5.1387,-5.1387,-5.1406,-5.168,-5.2402,-5.3496,-5.4551,-5.5195,-5.5293,-5.5273,-5.4824,-5.4101,-5.398,-5.4066,-5.4447,-5.4861,-5.5438,-5.5706,-5.6204,-5.5723,-5.418,-5.4043,-5.3359,-5.2065,-5.1411,-5.1402,-5.1389,-5.1385,-5.138,-5.1144,-5.1257,-5.1695,-5.2089,-5.2472,-5.2763,-5.3053,-5.2569,-5.1912,-5.1563,-5.1254,-5.166,-6.079,-6.0716,-6.0942,-6.0842,-6.0983,-6.0953,-6.1381,-6.1456,-6.1525,-6.0686,-5.9788,-6.0119,-5.9592,-5.8421,-5.8851,-5.9104,-5.9347,-5.9956,-6.0663,-6.1367,-6.1406,-6.1055,-6.0547,-6.0547,-6.0156,-5.9473,-5.9277,-5.9199,-5.8984,-5.8906,-5.8574,-5.7969,-5.7782,-5.734,-5.6606,-5.661,-5.6606,-5.6606,-5.6606,-5.6606,-5.6606,-5.6606,-5.661,-5.661,-5.6602,-5.6563,-5.6528,-5.5801,-5.5375,-5.5248,-5.4584,-5.3659,-5.2967,-5.2168,-5.1559,-5.1623,-5.146,-5.1421,-5.1499,-5.1496,-5.1421,-5.1548,-5.1462,-5.1543,-5.1582,-5.1543,-5.1504,-5.1406,-5.1484,-5.1504,-5.1523,-5.1621,-5.1562,-5.1406,-5.1465,-5.1562,-5.1562,-5.2168,-5.3301,-5.4629,-5.5195,-5.5293,-5.5312,-5.5449,-5.5137,-5.4433,-5.4277,-5.449,-5.5023,-5.5335,-5.5731,-5.6266,-5.6497,-5.5946,-5.5254,-5.4512,-5.3164,-5.1977,-5.1597,-5.1386,-5.1386,-5.1401,-5.1706,-5.1591,-5.1707,-5.2163,-5.3285,-5.3614,-5.3614,-5.3672,-5.3014,-5.2376,-5.2105,-5.1796,-5.1486,-5.9933,-5.9444,-5.9409,-5.9521,-5.9708,-5.9718,-6.0098,-6.0783,-6.0803,-6.0803,-6.0822,-6.0549,-6.008,-5.9592,-5.9319,-5.9436,-5.9987,-6.0292,-6.0559,-6.082,-6.084,-6.1035,-6.125,-6.1289,-6.0859,-6.0156,-6.0019,-5.9726,-5.9336,-5.9238,-5.8769,-5.8066,-5.791,-5.7438,-5.6655,-5.661,-5.6621,-5.6606,-5.6606,-5.6606,-5.6606,-5.6621,-5.6605,-5.6605,-5.6621,-5.661,-5.6586,-5.6337,-5.6214,-5.6167,-5.5934,-5.5116,-5.3867,-5.3353,-5.2911,-5.2296,-5.1698,-5.173,-5.2126,-5.1777,-5.1738,-5.2129,-5.2305,-5.2285,-5.2285,-5.2285,-5.2051,-5.1641,-5.1914,-5.2305,-5.2383,-5.2851,-5.2637,-5.1523,-5.1914,-5.2051,-5.1738,-5.2226,-5.3144,-5.4199,-5.4922,-5.5488,-5.6015,-5.6152,-5.5723,-5.5137,-5.5293,-5.5644,-5.541,-5.5742,-5.6209,-5.6582,-5.6502,-5.625,-5.543,-5.4609,-5.3535,-5.2422,-5.1879,-5.141,-5.1354,-5.1405,-5.1754,-5.2255,-5.2384,-5.2933,-5.4058,-5.4175,-5.3865,-5.3672,-5.2898,-5.2569,-5.2531,-5.226,-5.1873,-5.9821,-5.9638,-5.9721,-5.9824,-5.9938,-5.9942,-6.0282,-6.0837,-6.0881,-6.1017,-6.1095,-6.0998,-6.0705,-6.0412,-6.0139,-6.0373,-6.0842,-6.09,-6.0897,-6.0874,-6.0879,-6.1191,-6.168,-6.1699,-6.1465,-6.0976,-6.0879,-6.0625,-6.0137,-5.9765,-5.9219,-5.8496,-5.8066,-5.7461,-5.6699,-5.662,-5.6614,-5.6607,-5.6621,-5.6614,-5.661,-5.6618,-5.661,-5.6614,-5.6621,-5.6606,-5.6606,-5.6614,-5.6605,-5.6538,-5.6306,-5.5546,-5.4568,-5.4169,-5.3744,-5.3229,-5.2741,-5.2635,-5.3041,-5.2734,-5.2558,-5.3066,-5.3183,-5.3183,-5.3183,-5.3183,-5.2871,-5.2598,-5.2851,-5.3203,-5.3262,-5.3613,-5.3437,-5.2539,-5.2871,-5.291,-5.2539,-5.2832,-5.3555,-5.4355,-5.4707,-5.539,-5.623,-5.6211,-5.6133,-5.5859,-5.5957,-5.6015,-5.5527,-5.5742,-5.5937,-5.6133,-5.6269,-5.5879,-5.5371,-5.4629,-5.3867,-5.2988,-5.2182,-5.1665,-5.1334,-5.1314,-5.1536,-5.2734,-5.3204,-5.3669,-5.46,-5.3323,-5.2685,-5.255,-5.2666,-5.2492,-5.2337,-5.2337,-5.2182,-6.0236,-6.1055,-6.1246,-6.1166,-6.1261,-6.1247,-6.1169,-6.1408,-6.1388,-6.092,-6.0568,-6.09,-6.092,-6.0588,-6.0725,-6.1056,-6.1486,-6.1252,-6.1134,-6.1186,-6.1243,-6.1328,-6.166,-6.1699,-6.164,-6.1601,-6.1601,-6.1543,-6.1152,-6.0566,-5.9961,-5.8926,-5.8183,-5.7461,-5.6758,-5.6621,-5.6621,-5.6621,-5.6614,-5.6602,-5.6614,-5.661,-5.6602,-5.662,-5.6605,-5.661,-5.6606,-5.6621,-5.6621,-5.6513,-5.5941,-5.5517,-5.5145,-5.4501,-5.4122,-5.3932,-5.3951,-5.3834,-5.394,-5.3761,-5.3867,-5.4023,-5.4082,-5.4062,-5.4062,-5.4082,-5.3945,-5.373,-5.3945,-5.4062,-5.4062,-5.4297,-5.4258,-5.418,-5.3965,-5.3867,-5.4043,-5.3984,-5.4238,-5.4824,-5.4687,-5.4726,-5.6348,-5.5957,-5.5996,-5.6191,-5.5976,-5.5683,-5.543,-5.541,-5.498,-5.5293,-5.5937,-5.6094,-5.5742,-5.5058,-5.4355,-5.3965,-5.3039,-5.229,-5.1904,-5.1897,-5.2166,-5.3281,-5.3942,-5.4465,-5.4233,-5.2995,-5.2279,-5.2318,-5.2318,-5.2182,-5.2318,-5.2511,-5.2898,-5.919,-5.9505,-5.9557,-5.9662,-5.9763,-5.9788,-5.9802,-5.9802,-5.9827,-5.9768,-5.9549,-5.9666,-5.9763,-5.949,-5.971,-5.9788,-5.9885,-5.9861,-5.9783,-5.9788,-5.98,-6.0574,-6.1479,-6.1679,-6.1659,-6.1617,-6.1511,-6.1358,-6.0762,-6.041,-5.9609,-5.8262,-5.7988,-5.7441,-5.6738,-5.6621,-5.6621,-5.6621,-5.661,-5.6607,-5.6616,-5.661,-5.6605,-5.6618,-5.6605,-5.6618,-5.6606,-5.661,-5.6614,-5.6586,-5.6415,-5.5931,-5.5404,-5.5091,-5.474,-5.4244,-5.4088,-5.4029,-5.4049,-5.408,-5.4328,-5.4883,-5.4961,-5.4961,-5.4961,-5.4961,-5.4648,-5.4336,-5.4512,-5.4961,-5.5058,-5.5488,-5.5801,-5.5762,-5.4863,-5.4375,-5.4726,-5.4414,-5.4336,-5.5058,-5.5078,-5.5527,-5.6133,-5.6348,-5.623,-5.6445,-5.6289,-5.5918,-5.5547,-5.5664,-5.5508,-5.5488,-5.5898,-5.623,-5.6152,-5.5488,-5.5,-5.4844,-5.4105,-5.3165,-5.3056,-5.3201,-5.3697,-5.4523,-5.4387,-5.4735,-5.3904,-5.2821,-5.2531,-5.2086,-5.2144,-5.2163,-5.2879,-5.3265,-5.371,-5.841,-5.8835,-5.8948,-5.9033,-5.91,-5.9124,-5.9124,-5.9124,-5.9124,-5.9124,-5.9119,-5.9119,-5.9104,-5.9113,-5.9117,-5.9113,-5.9104,-5.9124,-5.9139,-5.9143,-5.9183,-5.9718,-6.0432,-6.0596,-6.062,-6.0641,-6.0679,-6.0366,-5.9883,-5.9569,-5.8789,-5.8027,-5.7519,-5.709,-5.666,-5.6621,-5.6621,-5.6621,-5.6614,-5.6612,-5.6614,-5.6607,-5.6618,-5.661,-5.6618,-5.6618,-5.6606,-5.6606,-5.6606,-5.6606,-5.6586,-5.6372,-5.5942,-5.5845,-5.5611,-5.5103,-5.5083,-5.5123,-5.5083,-5.5103,-5.5313,-5.5723,-5.5859,-5.584,-5.5859,-5.584,-5.5547,-5.5332,-5.5605,-5.5801,-5.5918,-5.6328,-5.6562,-5.6406,-5.5683,-5.5312,-5.5801,-5.5449,-5.5371,-5.5625,-5.5586,-5.5625,-5.6445,-5.6308,-5.6328,-5.6406,-5.6172,-5.5781,-5.5449,-5.5859,-5.5918,-5.5586,-5.5801,-5.6211,-5.6133,-5.5527,-5.5312,-5.5195,-5.4966,-5.4039,-5.3696,-5.3928,-5.4274,-5.46,-5.4716,-5.4561,-5.3768,-5.2898,-5.2086,-5.1815,-5.195,-5.2434,-5.3169,-5.3846,-5.4329,-5.7716,-5.8457,-5.8702,-5.8827,-5.8773,-5.8831,-5.8675,-5.8792,-5.8675,-5.8695,-5.8695,-5.8773,-5.8613,-5.8858,-5.8541,-5.8769,-5.8753,-5.8577,-5.8675,-5.8636,-5.8636,-5.8773,-5.8816,-5.9304,-5.9416,-5.9428,-5.9234,-5.9183,-5.8976,-5.8335,-5.7929,-5.7558,-5.6953,-5.668,-5.6612,-5.6619,-5.6621,-5.6621,-5.662,-5.6614,-5.6602,-5.6614,-5.6606,-5.6606,-5.6606,-5.661,-5.6606,-5.6606,-5.6606,-5.6606,-5.6606,-5.6586,-5.6547,-5.6586,-5.6528,-5.643,-5.6333,-5.6372,-5.6508,-5.6352,-5.6477,-5.6493,-5.6522,-5.6621,-5.6504,-5.6445,-5.6406,-5.6289,-5.6582,-5.6504,-5.6504,-5.6601,-5.6601,-5.6562,-5.6484,-5.6562,-5.6621,-5.6621,-5.6621,-5.6582,-5.5879,-5.5937,-5.6094,-5.6035,-5.5742,-5.6484,-5.6211,-5.5859,-5.5644,-5.584,-5.5508,-5.4863,-5.539,-5.623,-5.5957,-5.5547,-5.5488,-5.5462,-5.5409,-5.4815,-5.3964,-5.4022,-5.4271,-5.4561,-5.5084,-5.4871,-5.4058,-5.3111,-5.2298,-5.2028,-5.2472,-5.2937,-5.3478,-5.4136,-5.4697,-5.6394,-5.6667,-5.6815,-5.6992,-5.7129,-5.7133,-5.7172,-5.7192,-5.7172,-5.7289,-5.7176,-5.7187,-5.7218,-5.7206,-5.7291,-5.7137,-5.7289,-5.7289,-5.7153,-5.7153,-5.7153,-5.7153,-5.7484,-5.8343,-5.9011,-5.9019,-5.9089,-5.8773,-5.823,-5.7906,-5.7547,-5.6914,-5.6797,-5.6621,-5.6621,-5.6621,-5.6618,-5.6607,-5.661,-5.6612,-5.6607,-5.661,-5.6606,-5.6606,-5.6606,-5.6606,-5.6606,-5.6606,-5.6606,-5.6606,-5.6606,-5.6606,-5.6606,-5.6606,-5.6606,-5.6606,-5.6606,-5.6606,-5.6606,-5.6606,-5.6606,-5.6614,-5.6621,-5.6621,-5.6621,-5.6621,-5.6621,-5.6621,-5.6621,-5.6621,-5.6621,-5.6621,-5.6621,-5.6621,-5.6621,-5.6621,-5.6621,-5.6621,-5.6621,-5.6543,-5.6426,-5.6387,-5.6562,-5.6484,-5.6367,-5.6543,-5.6328,-5.5996,-5.5937,-5.5957,-5.5586,-5.5058,-5.5547,-5.6368,-5.6222,-5.5902,-5.5796,-5.5724,-5.5666,-5.555,-5.4735,-5.4503,-5.4909,-5.5277,-5.5683,-5.518,-5.4387,-5.4271,-5.3652,-5.3362,-5.3033,-5.3556,-5.4078,-5.4619,-5.5045,-5.6064,-5.6211,-5.638,-5.6503,-5.6602,-5.6606,-5.6606,-5.6606,-5.6606,-5.6606,-5.6606,-5.6618,-5.6607,-5.6612,-5.6605,-5.6637,-5.6606,-5.6606,-5.6626,-5.6665,-5.6645,-5.6626,-5.6684,-5.7387,-5.7933,-5.7933,-5.7903,-5.7633,-5.7389,-5.7294,-5.7028,-5.666,-5.6621,-5.6621,-5.6621,-5.6621,-5.6621,-5.6618,-5.6614,-5.6621,-5.6618,-5.6614,-5.6606,-5.6606,-5.6606,-5.6606,-5.6606,-5.6606,-5.6606,-5.6606,-5.6606,-5.6606,-5.6606,-5.6606,-5.6606,-5.6606,-5.6606,-5.6606,-5.6606,-5.6606,-5.6606,-5.6606,-5.6616,-5.6621,-5.6621,-5.6621,-5.6621,-5.6621,-5.6621,-5.6621,-5.6621,-5.6621,-5.6621,-5.6621,-5.6621,-5.6621,-5.6621,-5.6621,-5.6621,-5.6621,-5.6582,-5.6562,-5.6601,-5.6621,-5.6601,-5.6582,-5.6582,-5.6289,-5.6308,-5.6308,-5.6269,-5.6035,-5.623,-5.6498,-5.6462,-5.6314,-5.614,-5.6051,-5.5954,-5.5857,-5.5451,-5.5509,-5.5722,-5.5818,-5.5741,-5.5509,-5.4909,-5.489,-5.4639,-5.3884,-5.3633,-5.4194,-5.4677,-5.5103,-5.5451,-5.6174,-5.6313,-5.6528,-5.6606,-5.6606,-5.6606,-5.6606,-5.6606,-5.6606,-5.6606,-5.6606,-5.6606,-5.661,-5.661,-5.6602,-5.6618,-5.661,-5.6606,-5.6606,-5.6606,-5.6614,-5.6614,-5.6673,-5.677,-5.6848,-5.663,-5.6793,-5.6727,-5.6715,-5.6621,-5.6719,-5.6621,-5.6621,-5.6621,-5.6621,-5.6621,-5.6612,-5.661,-5.6606,-5.661,-5.6606,-5.6606,-5.6606,-5.6606,-5.6606,-5.6606,-5.6606,-5.6606,-5.6606,-5.6606,-5.6606,-5.6606,-5.6606,-5.6606,-5.6606,-5.6606,-5.6606,-5.6606,-5.6606,-5.6606,-5.6606,-5.6614,-5.6616,-5.6621,-5.6621,-5.6621,-5.6621,-5.6621,-5.6621,-5.6621,-5.6621,-5.6621,-5.6621,-5.6621,-5.6621,-5.6621,-5.6621,-5.6621,-5.6621,-5.6621,-5.6621,-5.6621,-5.6621,-5.6621,-5.6621,-5.6601,-5.6601,-5.6601,-5.6601,-5.6582,-5.6492,-5.6422,-5.6474,-5.6416,-5.6379,-5.6283,-5.6186,-5.6147,-5.607,-5.6012,-5.5915,-5.5915,-5.5857,-5.5606,-5.5451,-5.5374,-5.5374,-5.5296,-5.4871,-5.4136,-5.431,-5.4967,-5.5335,-5.5606,-5.5799,-5.6174,-5.6333,-5.6528,-5.6606,-5.6606,-5.6606,-5.6606,-5.6606,-5.6606,-5.6606,-5.6606,-5.6606,-5.6606,-5.6606,-5.6606,-5.6606,-5.6606,-5.6606,-5.6606,-5.6614,-5.6605,-5.6607,-5.6607,-5.6605,-5.6607,-5.6605,-5.6618,-5.6614,-5.6605,-5.6621,-5.6621,-5.6621,-5.6621,-5.6621,-5.6607,-5.6618,-5.6618,-5.6606,-5.6606,-5.6606,-5.6606,-5.6606,-5.6606,-5.6606,-5.6606,-5.6606,-5.6606,-5.6606,-5.6606,-5.6606,-5.6606,-5.6606,-5.6606,-5.6606,-5.6606,-5.6606,-5.6606,-5.6606,-5.661,-5.661,-5.6605,-5.6618,-5.6621,-5.6621,-5.6621,-5.6621,-5.6621,-5.6621,-5.6621,-5.6621,-5.6621,-5.6621,-5.6621,-5.6621,-5.6621,-5.666,-5.668,-5.6719,-5.6738,-5.6797,-5.6719,-5.6621,-5.6621,-5.6601,-5.6601,-5.6601,-5.6601,-5.6562,-5.6543,-5.6549,-5.6543,-5.6513,-5.6471,-5.6379,-5.6263,-5.6147,-5.6051,-5.607,-5.6031,-5.6031,-5.5973,-5.5993,-5.5877,-5.5702,-5.5702,-5.576,-5.5741,-5.5664,-5.5528,-5.5103,-5.5412,-5.5741,-5.578,-5.5818,-5.5857,-5.6232,-5.6445,-5.6547,-5.6606,-5.6606,-5.6606,-5.6606,-5.6606,-5.6606,-5.6606,-5.6606,-5.6606,-5.6614,-5.6618,-5.6621,-5.6618,-5.6606,-5.6606,-5.6618,-5.661,-5.6618,-5.6616,-5.6612,-5.6612,-5.6612,-5.6607,-5.6618,-5.6606,-5.6606,-5.6605,-5.6618,-5.6621,-5.6621,-5.6621,-5.6614,-5.6606,-5.6606,-5.6606,-5.6606,-5.6606,-5.6606,-5.6606,-5.6606,-5.6606,-5.6606,-5.6606,-5.6606,-5.6606,-5.6606,-5.6606,-5.6606,-5.6606,-5.6606,-5.6606,-5.6606,-5.6606,-5.6606,-5.6618,-5.661,-5.6612,-5.6618,-5.6621,-5.6621,-5.6621,-5.6621,-5.6621,-5.6618,-5.6621,-5.6621,-5.6621,-5.6621,-5.6621,-5.6621,-5.6621,-5.666,-5.6894,-5.7148,-5.7246,-5.7265,-5.7187,-5.6933,-5.6797,-5.6621,-5.6601,-5.6582,-5.6582,-5.6568,-5.6527,-5.6477,-5.6495,-5.651,-5.6424,-5.6385,-5.6283,-5.6167,-5.6089,-5.6012,-5.6012,-5.6012,-5.6012,-5.6012,-5.6012,-5.6012,-5.5935,-5.5993,-5.6012,-5.5973,-5.5838,-5.5954,-5.6012,-5.5935,-5.5896,-5.5954,-5.6012,-5.6012,-5.6329,-5.6606,-5.6606,-5.6606,-5.6606,-5.6606,-5.6606,-5.6606,-5.6606,-5.6606,-5.6606,-5.6606,-5.6614,-5.6607,-5.6612,-5.661,-5.6618,-5.6614,-5.6621,-5.6616,-5.662,-5.662,-5.6616,-5.661,-5.6607,-5.6605,-5.6602,-5.661,-5.6606,-5.661,-5.6607,-5.6621,-5.6621,-5.6618,-5.6621,-5.661,-5.6606,-5.6606,-5.6606,-5.6606,-5.6606,-5.6606,-5.6606,-5.6606,-5.6606,-5.6606,-5.6606,-5.6606,-5.6606,-5.6606,-5.6606,-5.6606,-5.6606,-5.6606,-5.6606,-5.6606,-5.6606,-5.6607,-5.6621,-5.6621,-5.6621,-5.6621,-5.6777,-5.6777,-5.6621,-5.6614,-5.6621,-5.6618,-5.6621,-5.6621,-5.664,-5.6777,-5.6894,-5.6992,-5.7148,-5.7383,-5.793,-5.8144,-5.8125,-5.7871,-5.7347,-5.6992,-5.6836,-5.6484,-5.6445,-5.6461,-5.6445,-5.642,-5.6391,-5.6426,-5.6411,-5.6306,-5.6228,-5.6142,-5.607,-5.6051,-5.6012,-5.6012,-5.6012,-5.6012,-5.6012,-5.6012,-5.6012,-5.6012,-5.6012,-5.6012,-5.6012,-5.6012,-5.6012,-5.6012,-5.6012,-5.6012,-5.6012,-5.6012,-5.6012,-5.6406,-5.6606,-5.6606,-5.6606,-5.6606,-5.6606,-5.6606,-5.6606,-5.6606,-5.6606,-5.661,-5.6606,-5.661,-5.6621,-5.6618,-5.662,-5.6618,-5.6607,-5.6618,-5.661,-5.6619,-5.6621,-5.662,-5.6602,-5.6618,-5.6618,-5.6605,-5.6621,-5.661,-5.6606,-5.6607,-5.6621,-5.6621,-5.662,-5.6605,-5.661,-5.6606,-5.6606,-5.6606,-5.6606,-5.6606,-5.6606,-5.6606,-5.6606,-5.6606,-5.6606,-5.6606,-5.6606,-5.6606,-5.6606,-5.6606,-5.6606,-5.6606,-5.6606,-5.6606,-5.6606,-5.661,-5.6621,-5.6621,-5.6621,-5.6621,-5.6738,-5.7129,-5.7187,-5.6855,-5.6612,-5.6614,-5.661,-5.6614,-5.6621,-5.6738,-5.7246,-5.7578,-5.7812,-5.7949,-5.8398,-5.8906,-5.8984,-5.8984,-5.89,-5.8487,-5.7619,-5.707,-5.666,-5.6316,-5.6329,-5.636,-5.6434,-5.6547,-5.678,-5.6592,-5.6536,-5.6427,-5.6336,-5.6051,-5.6012,-5.6012,-5.6012,-5.6012,-5.6012,-5.6012,-5.6012,-5.6012,-5.6012,-5.6012,-5.6012,-5.6012,-5.6012,-5.6012,-5.6012,-5.6012,-5.6012,-5.6012,-5.6012,-5.6012,-5.6528,-5.6606,-5.6606,-5.6606,-5.6606,-5.6606,-5.6606,-5.6606,-5.6606,-5.6614,-5.6605,-5.6612,-5.6614,-5.6621,-5.6621,-5.6621,-5.6621,-5.6621,-5.6621,-5.6621,-5.6621,-5.6621,-5.6621,-5.6618,-5.661,-5.661,-5.6614,-5.6614,-5.661,-5.6618,-5.6614,-5.662,-5.6616,-5.6607,-5.6621,-5.661,-5.6606,-5.6606,-5.6606,-5.6606,-5.6606,-5.6606,-5.6606,-5.6606,-5.6606,-5.6606,-5.6606,-5.6606,-5.661,-5.6614,-5.6618,-5.6618,-5.6614,-5.6614,-5.6614,-5.6634,-5.7115,-5.7101,-5.6719,-5.666,-5.6719,-5.668,-5.6992,-5.6894,-5.666,-5.6619,-5.6605,-5.6606,-5.6621,-5.6614,-5.6621,-5.6933,-5.707,-5.748,-5.8437,-5.8945,-5.9394,-5.9726,-5.9801,-5.9714,-5.9572,-5.874,-5.8081,-5.7924,-5.7658,-5.7449,-5.7532,-5.764,-5.7703,-5.7857,-5.7482,-5.6958,-5.682,-5.667,-5.6263,-5.6012,-5.6031,-5.6031,-5.607,-5.6051,-5.6012,-5.6012,-5.6012,-5.6012,-5.6012,-5.6012,-5.6012,-5.6012,-5.6012,-5.6012,-5.6012,-5.6012,-5.6012,-5.6012,-5.6012,-5.6606,-5.6606,-5.6606,-5.6606,-5.6606,-5.6606,-5.6606,-5.6606,-5.6606,-5.6618,-5.6612,-5.6621,-5.6621,-5.6621,-5.6621,-5.6621,-5.6621,-5.6621,-5.6621,-5.6621,-5.6621,-5.6621,-5.6621,-5.6621,-5.6618,-5.6614,-5.661,-5.6606,-5.661,-5.6618,-5.661,-5.6619,-5.6605,-5.661,-5.6606,-5.6606,-5.6606,-5.6606,-5.6606,-5.6606,-5.6606,-5.6606,-5.6606,-5.6606,-5.6606,-5.6606,-5.6606,-5.6606,-5.661,-5.6618,-5.6618,-5.6618,-5.6618,-5.661,-5.6813,-5.7001,-5.7542,-5.774,-5.7514,-5.7461,-5.7265,-5.7187,-5.6973,-5.7129,-5.6992,-5.6816,-5.662,-5.6605,-5.661,-5.661,-5.6719,-5.6973,-5.7578,-5.8047,-5.8594,-5.9101,-5.9666,-6.018,-6.0519,-6.0493,-6.0326,-6.0094,-5.9609,-5.9474,-5.9163,-5.8757,-5.872,-5.8778,-5.8758,-5.872,-5.8062,-5.7385,-5.7153,-5.6882,-5.6321,-5.6051,-5.6051,-5.6186,-5.6225,-5.6128,-5.6128,-5.6051,-5.6012,-5.6012,-5.6012,-5.6012,-5.6012,-5.6012,-5.6012,-5.6012,-5.6012,-5.6012,-5.6012,-5.6031,-5.6051,-5.6606,-5.6606,-5.6606,-5.6606,-5.6606,-5.6606,-5.6606,-5.6606,-5.6606,-5.6618,-5.6612,-5.6621,-5.6621,-5.6621,-5.6621,-5.6621,-5.6621,-5.6621,-5.6621,-5.6621,-5.6621,-5.6621,-5.6621,-5.6621,-5.6619,-5.661,-5.6614,-5.6606,-5.6606,-5.661,-5.661,-5.661,-5.661,-5.6606,-5.6606,-5.6606,-5.6606,-5.6606,-5.6606,-5.6606,-5.6606,-5.6606,-5.6606,-5.6606,-5.6606,-5.6606,-5.6606,-5.6606,-5.661,-5.6614,-5.661,-5.661,-5.661,-5.6606,-5.6868,-5.7477,-5.789,-5.8277,-5.8593,-5.8665,-5.8887,-5.873,-5.8242,-5.7617,-5.7558,-5.6953,-5.668,-5.666,-5.6747,-5.6786,-5.7187,-5.7832,-5.8437,-5.8828,-5.9258,-5.998,-6.0516,-6.09,-6.1192,-6.1214,-6.1002,-6.0673,-6.0576,-6.0325,-5.9996,-5.9551,-5.9397,-5.9455,-5.9281,-5.9126,-5.8372,-5.7772,-5.7501,-5.7056,-5.6321,-5.6225,-5.6573,-5.6766,-5.6863,-5.6553,-5.6283,-5.6205,-5.6302,-5.6012,-5.6012,-5.6012,-5.6012,-5.6012,-5.6012,-5.6012,-5.6031,-5.6089,-5.6244,-5.636,-5.6302,-5.6606,-5.6606,-5.6606,-5.6606,-5.6606,-5.6606,-5.6606,-5.6606,-5.6606,-5.6618,-5.6612,-5.6621,-5.6621,-5.6621,-5.6621,-5.6621,-5.6621,-5.6621,-5.6621,-5.6621,-5.6621,-5.6621,-5.6621,-5.6616,-5.6607,-5.6607,-5.6614,-5.6606,-5.6606,-5.6606,-5.6606,-5.6606,-5.6606,-5.6606,-5.6606,-5.6606,-5.6606,-5.6606,-5.6606,-5.6606,-5.6606,-5.6606,-5.661,-5.6605,-5.6605,-5.6618,-5.661,-5.6606,-5.6614,-5.6618,-5.6614,-5.6606,-5.6645,-5.6645,-5.7113,-5.7879,-5.8316,-5.9074,-5.9631,-5.9553,-5.9212,-5.9043,-5.8437,-5.7949,-5.7969,-5.7168,-5.6719,-5.6738,-5.7148,-5.7383,-5.7617,-5.8437,-5.914,-5.9492,-6.0039,-6.0781,-6.1136,-6.1358,-6.1408,-6.1253,-6.1176,-6.1021,-6.1002,-6.1002,-6.0673,-6.0344,-6.0209,-6.0074,-5.9919,-5.9725,-5.9087,-5.8372,-5.8043,-5.7269,-5.6515,-5.6747,-5.7172,-5.7308,-5.7424,-5.7288,-5.7018,-5.6863,-5.6863,-5.6437,-5.6089,-5.6147,-5.6147,-5.6051,-5.6012,-5.6012,-5.6109,-5.6244,-5.6437,-5.667,-5.6747,-5.6606,-5.6606,-5.6606,-5.6606,-5.6606,-5.6606,-5.6606,-5.6606,-5.6606,-5.6614,-5.6607,-5.6616,-5.6619,-5.662,-5.6621,-5.6621,-5.6621,-5.6621,-5.6621,-5.6621,-5.6621,-5.6621,-5.6616,-5.6605,-5.6618,-5.6621,-5.6614,-5.6606,-5.6606,-5.6606,-5.6606,-5.6606,-5.6606,-5.6606,-5.6606,-5.6606,-5.6606,-5.6606,-5.6606,-5.6606,-5.6606,-5.6606,-5.661,-5.6602,-5.6602,-5.6607,-5.6605,-5.6607,-5.661,-5.661,-5.6605,-5.661,-5.6688,-5.6922,-5.7411,-5.816,-5.8984,-5.9862,-6.0339,-6.037,-5.9834,-5.9629,-5.9219,-5.8691,-5.8203,-5.7715,-5.7676,-5.7578,-5.8008,-5.8301,-5.834,-5.9121,-5.9648,-5.998,-6.0547,-6.1194,-6.1136,-6.1255,-6.125,-6.1215,-6.1176,-6.1118,-6.1118,-6.1118,-6.0983,-6.0731,-6.0692,-6.0634,-6.0634,-6.0422,-6.0112,-5.9358,-5.8662,-5.7714,-5.6766,-5.7327,-5.7791,-5.7598,-5.7791,-5.8178,-5.8043,-5.7811,-5.7598,-5.7404,-5.7037,-5.6573,-5.6341,-5.6283,-5.6147,-5.6012,-5.6109,-5.6205,-5.6805,-5.7076,-5.7404,-5.6606,-5.6606,-5.6606,-5.6606,-5.6606,-5.6606,-5.6606,-5.6606,-5.6606,-5.6606,-5.661,-5.6614,-5.6621,-5.6612,-5.6619,-5.6621,-5.6621,-5.6621,-5.6621,-5.6621,-5.6621,-5.6621,-5.6602,-5.6606,-5.6606,-5.6606,-5.6606,-5.6606,-5.6606,-5.6606,-5.6606,-5.6606,-5.6606,-5.6606,-5.6606,-5.6606,-5.6606,-5.6606,-5.6606,-5.6606,-5.661,-5.661,-5.6618,-5.6614,-5.6621,-5.661,-5.6612,-5.6619,-5.6621,-5.6621,-5.6621,-5.668,-5.6836,-5.7395,-5.8098,-5.9012,-5.982,-6.067,-6.1471,-6.1557,-6.1094,-6.039,-5.9902,-5.9531,-5.9238,-5.8984,-5.8769,-5.8437,-5.9004,-5.914,-5.9433,-5.9844,-6.0215,-6.0527,-6.1113,-6.1289,-6.1225,-6.1197,-6.1231,-6.1215,-6.1157,-6.1099,-6.1118,-6.1118,-6.1137,-6.1079,-6.1079,-6.1099,-6.1099,-6.0944,-6.0615,-5.9841,-5.899,-5.8062,-5.7346,-5.8023,-5.8352,-5.812,-5.8314,-5.8894,-5.8855,-5.8449,-5.8314,-5.8255,-5.7462,-5.6515,-5.6476,-5.6553,-5.6399,-5.6244,-5.6051,-5.6225,-5.6882,-5.7521,-5.7927,-5.6606,-5.6606,-5.6606,-5.6606,-5.6606,-5.6606,-5.6606,-5.6606,-5.6606,-5.6606,-5.6606,-5.6606,-5.6606,-5.6618,-5.6605,-5.6612,-5.6618,-5.6621,-5.6621,-5.6621,-5.6616,-5.6602,-5.6606,-5.6606,-5.6606,-5.6606,-5.6606,-5.6606,-5.6606,-5.6606,-5.6606,-5.6606,-5.6606,-5.6606,-5.6606,-5.6606,-5.6606,-5.6606,-5.6606,-5.661,-5.6621,-5.663,-5.6632,-5.6644,-5.6632,-5.6671,-5.6612,-5.6619,-5.664,-5.6699,-5.6719,-5.6946,-5.7333,-5.7984,-5.8609,-5.9576,-6.0409,-6.078,-6.1436,-6.166,-6.1582,-6.1035,-6.0312,-5.9922,-5.9883,-5.8828,-5.8789,-5.9277,-5.9805,-5.9922,-6.0137,-6.0801,-6.1172,-6.1152,-6.1425,-6.1352,-6.1294,-6.1268,-6.1253,-6.1195,-6.1137,-6.1234,-6.1273,-6.1225,-6.1203,-6.1174,-6.1157,-6.1118,-6.1099,-6.1021,-6.077,-5.9957,-5.9126,-5.8275,-5.7927,-5.8526,-5.8797,-5.8604,-5.9184,-6.0054,-5.9783,-5.9203,-5.8642,-5.841,-5.7366,-5.6418,-5.665,-5.6824,-5.6689,-5.6515,-5.6534,-5.6863,-5.7637,-5.8217,-5.8604,-5.6157,-5.6177,-5.6469,-5.6606,-5.6606,-5.6606,-5.6606,-5.6606,-5.6606,-5.6606,-5.6606,-5.6606,-5.6606,-5.6606,-5.6606,-5.661,-5.6607,-5.6621,-5.6621,-5.6618,-5.6602,-5.661,-5.6606,-5.6606,-5.6606,-5.6606,-5.6606,-5.6606,-5.6606,-5.6606,-5.6606,-5.6606,-5.6606,-5.6606,-5.6606,-5.6606,-5.6606,-5.6606,-5.6606,-5.661,-5.6696,-5.6803,-5.6907,-5.6808,-5.6808,-5.6925,-5.6705,-5.6653,-5.6738,-5.6894,-5.7148,-5.7461,-5.8086,-5.8772,-5.9292,-6.0132,-6.0789,-6.1106,-6.1562,-6.1699,-6.166,-6.1582,-6.0332,-6.0137,-6.0449,-5.9726,-5.9707,-6.0058,-6.0524,-6.0703,-6.0918,-6.1616,-6.1549,-6.15,-6.1427,-6.1341,-6.1286,-6.1272,-6.1253,-6.1195,-6.1234,-6.1331,-6.1426,-6.1333,-6.1274,-6.1242,-6.1215,-6.1157,-6.1099,-6.1041,-6.0963,-6.0325,-5.9667,-5.901,-5.872,-5.8971,-5.9126,-5.9048,-5.9822,-6.075,-6.0654,-6.0074,-5.93,-5.8681,-5.8314,-5.7888,-5.725,-5.7114,-5.7327,-5.7424,-5.7424,-5.7869,-5.8507,-5.8797,-5.9048,-5.5279,-5.5415,-5.6216,-5.6547,-5.6586,-5.6606,-5.6606,-5.6606,-5.6606,-5.6606,-5.6606,-5.6606,-5.6606,-5.6606,-5.6606,-5.6606,-5.661,-5.661,-5.6621,-5.6607,-5.6614,-5.6606,-5.6606,-5.6606,-5.6606,-5.6606,-5.6606,-5.6606,-5.6606,-5.6606,-5.6606,-5.6606,-5.6606,-5.6606,-5.6606,-5.6606,-5.6606,-5.6606,-5.6606,-5.6704,-5.6907,-5.7371,-5.7285,-5.719,-5.7265,-5.7129,-5.6875,-5.663,-5.7086,-5.7441,-5.7812,-5.8398,-5.9121,-5.9961,-6.0249,-6.0663,-6.1285,-6.1523,-6.166,-6.1699,-6.1699,-6.1601,-6.082,-6.0976,-6.0996,-6.0605,-6.0469,-6.0838,-6.1334,-6.1447,-6.1668,-6.1607,-6.1537,-6.1465,-6.1368,-6.131,-6.1253,-6.1234,-6.1234,-6.1234,-6.1311,-6.1407,-6.1502,-6.1465,-6.1336,-6.1281,-6.1215,-6.1137,-6.1099,-6.1099,-6.1021,-6.0925,-6.0325,-5.9899,-5.9725,-5.9532,-5.9493,-5.9455,-6.0209,-6.0983,-6.0925,-6.075,-6.0016,-5.9551,-5.9745,-5.9377,-5.8526,-5.8236,-5.8352,-5.8372,-5.8275,-5.843,-5.8932,-5.8971,-5.93,-5.4752,-5.5318,-5.5571,-5.602,-5.6567,-5.6606,-5.6606,-5.6606,-5.6606,-5.6606,-5.6606,-5.6606,-5.6606,-5.6606,-5.6606,-5.6606,-5.6606,-5.6606,-5.661,-5.661,-5.661,-5.6606,-5.6606,-5.6606,-5.6606,-5.6606,-5.6606,-5.6606,-5.6606,-5.6606,-5.6606,-5.6606,-5.6606,-5.6606,-5.6606,-5.6606,-5.6606,-5.6645,-5.6665,-5.6899,-5.725,-5.7699,-5.7571,-5.7528,-5.7606,-5.7356,-5.6829,-5.6618,-5.7098,-5.7754,-5.791,-5.8496,-5.998,-6.0331,-6.0544,-6.1287,-6.1601,-6.1699,-6.1699,-6.1699,-6.1699,-6.1562,-6.0937,-6.0996,-6.1152,-6.1115,-6.0881,-6.1354,-6.1634,-6.1634,-6.1595,-6.1526,-6.1449,-6.1361,-6.1291,-6.1232,-6.1195,-6.1195,-6.1215,-6.1348,-6.1406,-6.1477,-6.1569,-6.1477,-6.1356,-6.1283,-6.1215,-6.1137,-6.1099,-6.1099,-6.1079,-6.1002,-6.075,-6.0248,-6.0016,-5.9841,-5.9841,-5.9957,-6.0654,-6.1079,-6.0963,-6.075,-6.0422,-6.019,-6.0054,-5.988,-5.9551,-5.9377,-5.9223,-5.9145,-5.9068,-5.9165,-5.9281,-5.9358,-5.9629,-5.3776,-5.4342,-5.5044,-5.5801,-5.6528,-5.6606,-5.6606,-5.6606,-5.6606,-5.6606,-5.6606,-5.6606,-5.6606,-5.6606,-5.6606,-5.6606,-5.6606,-5.6606,-5.6606,-5.6606,-5.6606,-5.6606,-5.6606,-5.6606,-5.6606,-5.6606,-5.6606,-5.6606,-5.6606,-5.6606,-5.6606,-5.6606,-5.6606,-5.6606,-5.6606,-5.6606,-5.6606,-5.6743,-5.6899,-5.7133,-5.7445,-5.7875,-5.7953,-5.7543,-5.766,-5.7367,-5.6762,-5.6626,-5.7226,-5.8141,-5.8357,-5.9179,-6.0547,-6.0957,-6.1015,-6.1621,-6.168,-6.1699,-6.1699,-6.1699,-6.1699,-6.1582,-6.1211,-6.1308,-6.1157,-6.101,-6.1167,-6.1466,-6.1534,-6.1578,-6.1518,-6.1463,-6.1358,-6.1254,-6.1214,-6.1154,-6.1155,-6.1157,-6.1272,-6.1405,-6.1494,-6.1574,-6.1555,-6.1473,-6.1375,-6.1303,-6.1215,-6.1137,-6.1099,-6.1099,-6.1099,-6.106,-6.0828,-6.0499,-6.0344,-6.0267,-6.0344,-6.0441,-6.075,-6.1041,-6.0983,-6.0905,-6.0731,-6.0422,-6.0132,-6.0093,-6.0209,-6.0074,-5.9938,-5.988,-5.9899,-6.0054,-6.0016,-5.9822,-6.0209,-5.2644,-5.2917,-5.4576,-5.5728,-5.645,-5.6547,-5.6606,-5.6606,-5.6606,-5.6606,-5.6606,-5.6606,-5.6606,-5.6606,-5.6606,-5.6606,-5.6606,-5.6606,-5.6606,-5.6606,-5.6606,-5.6606,-5.6606,-5.6606,-5.6606,-5.6606,-5.6606,-5.6606,-5.6606,-5.6606,-5.6606,-5.6606,-5.6606,-5.6606,-5.6606,-5.6606,-5.6626,-5.6684,-5.7133,-5.7523,-5.7406,-5.7875,-5.8343,-5.7231,-5.7289,-5.7445,-5.686,-5.6918,-5.743,-5.8515,-5.9419,-6.0073,-6.0976,-6.1582,-6.164,-6.166,-6.1699,-6.1699,-6.1699,-6.1699,-6.1699,-6.1699,-6.1699,-6.1621,-6.1394,-6.1163,-6.1354,-6.1501,-6.16,-6.1588,-6.153,-6.1438,-6.1329,-6.1292,-6.1272,-6.1252,-6.1233,-6.1292,-6.1407,-6.152,-6.1559,-6.1599,-6.1516,-6.1441,-6.1578,-6.1406,-6.1427,-6.1369,-6.1582,-6.1582,-6.1331,-6.1311,-6.1002,-6.0847,-6.0828,-6.0789,-6.0905,-6.1041,-6.1079,-6.1079,-6.1041,-6.106,-6.1099,-6.0789,-6.0518,-6.077,-6.0867,-6.0654,-6.0557,-6.0673,-6.075,-6.0944,-6.0809,-6.0422,-6.0518,-5.2097,-5.2858,-5.4576,-5.5435,-5.5689,-5.6313,-5.6586,-5.6606,-5.6606,-5.6586,-5.6606,-5.6606,-5.6606,-5.6606,-5.6606,-5.6606,-5.6606,-5.6606,-5.6606,-5.6606,-5.6606,-5.6606,-5.6606,-5.6606,-5.6606,-5.6606,-5.6606,-5.6606,-5.6606,-5.6606,-5.6606,-5.6606,-5.6606,-5.6606,-5.6606,-5.6606,-5.6626,-5.6665,-5.7172,-5.7562,-5.7523,-5.7621,-5.7777,-5.7484,-5.766,-5.7309,-5.6996,-5.725,-5.7996,-5.8937,-5.9753,-6.0633,-6.1582,-6.168,-6.1699,-6.1699,-6.1699,-6.1699,-6.1699,-6.1699,-6.1699,-6.1699,-6.1699,-6.1699,-6.1631,-6.146,-6.1442,-6.1582,-6.1634,-6.1616,-6.1562,-6.1442,-6.1348,-6.1348,-6.1348,-6.1348,-6.133,-6.1466,-6.1582,-6.1643,-6.1672,-6.1696,-6.1633,-6.1594,-6.1676,-6.1853,-6.2066,-6.2259,-6.2743,-6.2839,-6.2066,-6.1853,-6.1331,-6.1157,-6.1215,-6.1234,-6.1292,-6.1157,-6.1099,-6.1099,-6.1099,-6.1099,-6.1099,-6.1099,-6.1041,-6.1099,-6.1099,-6.1041,-6.1021,-6.1099,-6.1099,-6.1099,-6.1099,-6.0809,-6.0886,-5.1687,-5.2292,-5.3561,-5.4381,-5.4771,-5.5259,-5.5669,-5.5981,-5.602,-5.6255,-5.6586,-5.6606,-5.6606,-5.6606,-5.6606,-5.6606,-5.6606,-5.6606,-5.6606,-5.6606,-5.6606,-5.6606,-5.6606,-5.6606,-5.6606,-5.6606,-5.6606,-5.6606,-5.6606,-5.6606,-5.6606,-5.6606,-5.6606,-5.6606,-5.6606,-5.6606,-5.6606,-5.6645,-5.7133,-5.727,-5.7387,-5.7543,-5.7504,-5.7465,-5.7172,-5.6938,-5.7113,-5.7387,-5.8207,-5.9241,-6.0256,-6.0983,-6.1609,-6.1699,-6.1699,-6.1699,-6.1699,-6.1699,-6.1699,-6.1699,-6.1699,-6.1699,-6.1713,-6.1704,-6.1709,-6.1577,-6.1564,-6.1691,-6.1666,-6.1646,-6.1607,-6.1493,-6.1428,-6.1389,-6.14,-6.1386,-6.1649,-6.1968,-6.2177,-6.238,-6.2601,-6.2988,-6.2792,-6.2269,-6.2394,-6.2646,-6.282,-6.282,-6.3362,-6.4019,-6.3245,-6.2723,-6.2394,-6.1911,-6.1834,-6.1737,-6.1601,-6.1427,-6.1118,-6.1099,-6.1099,-6.1099,-6.1099,-6.1099,-6.1099,-6.1099,-6.1099,-6.1099,-6.1099,-6.1099,-6.1099,-6.1099,-6.1099,-6.1099,-6.1099,-5.1414,-5.1531,-5.237,-5.3132,-5.3795,-5.401,-5.4478,-5.5083,-5.5279,-5.563,-5.6098,-5.6274,-5.6469,-5.6606,-5.6606,-5.6606,-5.6606,-5.6606,-5.6606,-5.6606,-5.6606,-5.6606,-5.6606,-5.6606,-5.6606,-5.6606,-5.6606,-5.6606,-5.6606,-5.6606,-5.6606,-5.6606,-5.6606,-5.6606,-5.6606,-5.6606,-5.6606,-5.6606,-5.6762,-5.6684,-5.6938,-5.725,-5.7094,-5.684,-5.6626,-5.6645,-5.6957,-5.7562,-5.8402,-5.9475,-6.0705,-6.1334,-6.1651,-6.1713,-6.1709,-6.1717,-6.1699,-6.1699,-6.1699,-6.1699,-6.1699,-6.1699,-6.1699,-6.1709,-6.1701,-6.1717,-6.1705,-6.1696,-6.1696,-6.166,-6.1631,-6.1584,-6.1517,-6.1484,-6.1484,-6.1484,-6.1894,-6.2363,-6.2737,-6.302,-6.3419,-6.3882,-6.3632,-6.3091,-6.3033,-6.3323,-6.3478,-6.3497,-6.371,-6.4425,-6.4464,-6.4213,-6.4077,-6.3536,-6.2627,-6.222,-6.1988,-6.1408,-6.1099,-6.1099,-6.1099,-6.1099,-6.1099,-6.1099,-6.1099,-6.1099,-6.1099,-6.1099,-6.1099,-6.1099,-6.1099,-6.1099,-6.1099,-6.1099,-6.1099,-5.1394,-5.1492,-5.2351,-5.2819,-5.3053,-5.3698,-5.4108,-5.4361,-5.5044,-5.5064,-5.5005,-5.5396,-5.5864,-5.6606,-5.6606,-5.6606,-5.6606,-5.6606,-5.6606,-5.6606,-5.6606,-5.6606,-5.6606,-5.6606,-5.6606,-5.6606,-5.6606,-5.6606,-5.6606,-5.6606,-5.6606,-5.6606,-5.6606,-5.6606,-5.6606,-5.6606,-5.6606,-5.6606,-5.6606,-5.6606,-5.6606,-5.6782,-5.6743,-5.6626,-5.6606,-5.7016,-5.7582,-5.8402,-5.9261,-6.0198,-6.1017,-6.151,-6.1631,-6.1647,-6.1701,-6.1701,-6.1717,-6.1709,-6.1699,-6.1699,-6.1699,-6.1699,-6.1707,-6.1701,-6.1709,-6.1709,-6.1701,-6.1701,-6.1696,-6.1696,-6.1679,-6.1678,-6.1621,-6.168,-6.1699,-6.166,-6.1836,-6.2578,-6.3188,-6.3455,-6.3755,-6.4035,-6.4116,-6.3632,-6.3265,-6.3555,-6.3826,-6.3922,-6.458,-6.5102,-6.5528,-6.5431,-6.5354,-6.4174,-6.2878,-6.2607,-6.2298,-6.1621,-6.1099,-6.1099,-6.1099,-6.1099,-6.1099,-6.1099,-6.1099,-6.1099,-6.1099,-6.1099,-6.1099,-6.1099,-6.1099,-6.1099,-6.1099,-6.1099,-6.1099]}]]